<?xml version="1.0" encoding="UTF-8" standalone="no" ?>
<gpx xmlns="http://www.topografix.com/GPX/1/1" xmlns:xsi="http://www.w3.org/2001/XMLSchema-instance" xsi:schemaLocation="http://www.topografix.com/GPX/1/1 http://www.topografix.com/GPX/1/1/gpx.xsd" version="1.1" creator="VisuGPX - https://www.visugpx.com">
  <metadata>
    <name>Rando à St Guilhem, tour du Roc de la Vigne</name>
    <desc><![CDATA[A partir du barrage, on fait le tour du Roc de la Vigne par des chemins non-balisés mais agréables, en 5h de marche environ.]]></desc>
  </metadata>
  <trk>
    <name><![CDATA[2014-03-30T08:18:12Z]]></name>
    <trkseg>
      <trkpt lat="43.74345" lon="3.56612">
        <ele>84.871</ele>
        <time>2014-03-30T08:18:12Z</time>
      </trkpt>
      <trkpt lat="43.74347" lon="3.56612">
        <ele>84.391</ele>
        <time>2014-03-30T08:18:23Z</time>
      </trkpt>
      <trkpt lat="43.74346" lon="3.56614">
        <ele>86.042</ele>
        <time>2014-03-30T08:18:30Z</time>
      </trkpt>
      <trkpt lat="43.74348" lon="3.56618">
        <ele>86.881</ele>
        <time>2014-03-30T08:18:34Z</time>
      </trkpt>
      <trkpt lat="43.74353" lon="3.56629">
        <ele>87.901</ele>
        <time>2014-03-30T08:18:43Z</time>
      </trkpt>
      <trkpt lat="43.74352" lon="3.56633">
        <ele>86.25</ele>
        <time>2014-03-30T08:18:50Z</time>
      </trkpt>
      <trkpt lat="43.74352" lon="3.56637">
        <ele>86.261</ele>
        <time>2014-03-30T08:18:56Z</time>
      </trkpt>
      <trkpt lat="43.74355" lon="3.56643">
        <ele>90.932</ele>
        <time>2014-03-30T08:19:04Z</time>
      </trkpt>
      <trkpt lat="43.74351" lon="3.56639">
        <ele>87.532</ele>
        <time>2014-03-30T08:19:28Z</time>
      </trkpt>
      <trkpt lat="43.7435" lon="3.56634">
        <ele>87.841</ele>
        <time>2014-03-30T08:19:36Z</time>
      </trkpt>
      <trkpt lat="43.74349" lon="3.56632">
        <ele>87.611</ele>
        <time>2014-03-30T08:19:39Z</time>
      </trkpt>
      <trkpt lat="43.74347" lon="3.56621">
        <ele>88.291</ele>
        <time>2014-03-30T08:19:47Z</time>
      </trkpt>
      <trkpt lat="43.74343" lon="3.5661">
        <ele>87.201</ele>
        <time>2014-03-30T08:19:56Z</time>
      </trkpt>
      <trkpt lat="43.74342" lon="3.56609">
        <ele>86.711</ele>
        <time>2014-03-30T08:20:03Z</time>
      </trkpt>
      <trkpt lat="43.74342" lon="3.56606">
        <ele>85.341</ele>
        <time>2014-03-30T08:20:10Z</time>
      </trkpt>
      <trkpt lat="43.74347" lon="3.56603">
        <ele>91.661</ele>
        <time>2014-03-30T08:21:26Z</time>
      </trkpt>
      <trkpt lat="43.74347" lon="3.56602">
        <ele>91.471</ele>
        <time>2014-03-30T08:21:27Z</time>
      </trkpt>
      <trkpt lat="43.74348" lon="3.56595">
        <ele>90.811</ele>
        <time>2014-03-30T08:21:35Z</time>
      </trkpt>
      <trkpt lat="43.7435" lon="3.56586">
        <ele>90.671</ele>
        <time>2014-03-30T08:21:41Z</time>
      </trkpt>
      <trkpt lat="43.74349" lon="3.56584">
        <ele>90.551</ele>
        <time>2014-03-30T08:21:43Z</time>
      </trkpt>
      <trkpt lat="43.74344" lon="3.56569">
        <ele>89.381</ele>
        <time>2014-03-30T08:21:56Z</time>
      </trkpt>
      <trkpt lat="43.74341" lon="3.56557">
        <ele>88.981</ele>
        <time>2014-03-30T08:22:05Z</time>
      </trkpt>
      <trkpt lat="43.74338" lon="3.56539">
        <ele>88.751</ele>
        <time>2014-03-30T08:22:17Z</time>
      </trkpt>
      <trkpt lat="43.74341" lon="3.56523">
        <ele>88.451</ele>
        <time>2014-03-30T08:22:27Z</time>
      </trkpt>
      <trkpt lat="43.74346" lon="3.56511">
        <ele>90.562</ele>
        <time>2014-03-30T08:22:37Z</time>
      </trkpt>
      <trkpt lat="43.74358" lon="3.565">
        <ele>90.771</ele>
        <time>2014-03-30T08:22:49Z</time>
      </trkpt>
      <trkpt lat="43.74369" lon="3.56492">
        <ele>87.72</ele>
        <time>2014-03-30T08:22:59Z</time>
      </trkpt>
      <trkpt lat="43.74386" lon="3.56479">
        <ele>83.83</ele>
        <time>2014-03-30T08:23:13Z</time>
      </trkpt>
      <trkpt lat="43.74396" lon="3.56471">
        <ele>83.991</ele>
        <time>2014-03-30T08:23:24Z</time>
      </trkpt>
      <trkpt lat="43.74403" lon="3.56465">
        <ele>90.402</ele>
        <time>2014-03-30T08:23:34Z</time>
      </trkpt>
      <trkpt lat="43.7441" lon="3.56455">
        <ele>94.262</ele>
        <time>2014-03-30T08:23:44Z</time>
      </trkpt>
      <trkpt lat="43.74415" lon="3.56442">
        <ele>92.781</ele>
        <time>2014-03-30T08:23:52Z</time>
      </trkpt>
      <trkpt lat="43.74419" lon="3.56424">
        <ele>89.471</ele>
        <time>2014-03-30T08:24:02Z</time>
      </trkpt>
      <trkpt lat="43.74421" lon="3.5641">
        <ele>88.711</ele>
        <time>2014-03-30T08:24:10Z</time>
      </trkpt>
      <trkpt lat="43.74422" lon="3.5639">
        <ele>90.201</ele>
        <time>2014-03-30T08:24:22Z</time>
      </trkpt>
      <trkpt lat="43.74423" lon="3.5637">
        <ele>91.822</ele>
        <time>2014-03-30T08:24:34Z</time>
      </trkpt>
      <trkpt lat="43.74426" lon="3.56348">
        <ele>88.201</ele>
        <time>2014-03-30T08:24:45Z</time>
      </trkpt>
      <trkpt lat="43.74429" lon="3.56334">
        <ele>87.801</ele>
        <time>2014-03-30T08:24:53Z</time>
      </trkpt>
      <trkpt lat="43.74434" lon="3.5632">
        <ele>86.71</ele>
        <time>2014-03-30T08:25:03Z</time>
      </trkpt>
      <trkpt lat="43.74436" lon="3.56316">
        <ele>86.731</ele>
        <time>2014-03-30T08:25:10Z</time>
      </trkpt>
      <trkpt lat="43.74438" lon="3.56318">
        <ele>86.151</ele>
        <time>2014-03-30T08:25:19Z</time>
      </trkpt>
      <trkpt lat="43.74439" lon="3.56316">
        <ele>85.89</ele>
        <time>2014-03-30T08:25:26Z</time>
      </trkpt>
      <trkpt lat="43.74439" lon="3.56316">
        <ele>85.031</ele>
        <time>2014-03-30T08:25:43Z</time>
      </trkpt>
      <trkpt lat="43.7444" lon="3.56316">
        <ele>85.071</ele>
        <time>2014-03-30T08:25:53Z</time>
      </trkpt>
      <trkpt lat="43.74443" lon="3.56317">
        <ele>84.42</ele>
        <time>2014-03-30T08:25:58Z</time>
      </trkpt>
      <trkpt lat="43.74454" lon="3.56318">
        <ele>83.75</ele>
        <time>2014-03-30T08:26:08Z</time>
      </trkpt>
      <trkpt lat="43.74469" lon="3.56316">
        <ele>83.55</ele>
        <time>2014-03-30T08:26:20Z</time>
      </trkpt>
      <trkpt lat="43.74479" lon="3.56316">
        <ele>84.941</ele>
        <time>2014-03-30T08:26:29Z</time>
      </trkpt>
      <trkpt lat="43.74492" lon="3.56321">
        <ele>90.352</ele>
        <time>2014-03-30T08:26:41Z</time>
      </trkpt>
      <trkpt lat="43.74502" lon="3.56322">
        <ele>92.123</ele>
        <time>2014-03-30T08:26:51Z</time>
      </trkpt>
      <trkpt lat="43.74514" lon="3.5632">
        <ele>91.052</ele>
        <time>2014-03-30T08:27:01Z</time>
      </trkpt>
      <trkpt lat="43.74526" lon="3.56318">
        <ele>90.052</ele>
        <time>2014-03-30T08:27:12Z</time>
      </trkpt>
      <trkpt lat="43.74538" lon="3.56317">
        <ele>90.672</ele>
        <time>2014-03-30T08:27:23Z</time>
      </trkpt>
      <trkpt lat="43.74548" lon="3.56317">
        <ele>94.743</ele>
        <time>2014-03-30T08:27:33Z</time>
      </trkpt>
      <trkpt lat="43.74559" lon="3.56315">
        <ele>96.333</ele>
        <time>2014-03-30T08:27:43Z</time>
      </trkpt>
      <trkpt lat="43.74569" lon="3.56313">
        <ele>98.213</ele>
        <time>2014-03-30T08:27:53Z</time>
      </trkpt>
      <trkpt lat="43.7458" lon="3.56309">
        <ele>95.652</ele>
        <time>2014-03-30T08:28:02Z</time>
      </trkpt>
      <trkpt lat="43.74591" lon="3.56313">
        <ele>93.481</ele>
        <time>2014-03-30T08:28:11Z</time>
      </trkpt>
      <trkpt lat="43.74601" lon="3.56322">
        <ele>92.642</ele>
        <time>2014-03-30T08:28:22Z</time>
      </trkpt>
      <trkpt lat="43.7461" lon="3.56328">
        <ele>91.642</ele>
        <time>2014-03-30T08:28:31Z</time>
      </trkpt>
      <trkpt lat="43.74621" lon="3.56337">
        <ele>93.023</ele>
        <time>2014-03-30T08:28:42Z</time>
      </trkpt>
      <trkpt lat="43.74635" lon="3.5634">
        <ele>90.562</ele>
        <time>2014-03-30T08:28:53Z</time>
      </trkpt>
      <trkpt lat="43.74647" lon="3.5634">
        <ele>94.523</ele>
        <time>2014-03-30T08:29:04Z</time>
      </trkpt>
      <trkpt lat="43.74651" lon="3.56336">
        <ele>95.632</ele>
        <time>2014-03-30T08:29:09Z</time>
      </trkpt>
      <trkpt lat="43.74654" lon="3.56317">
        <ele>97.092</ele>
        <time>2014-03-30T08:29:21Z</time>
      </trkpt>
      <trkpt lat="43.7465" lon="3.563">
        <ele>94.281</ele>
        <time>2014-03-30T08:29:31Z</time>
      </trkpt>
      <trkpt lat="43.74643" lon="3.56282">
        <ele>91.621</ele>
        <time>2014-03-30T08:29:42Z</time>
      </trkpt>
      <trkpt lat="43.74638" lon="3.56266">
        <ele>90.571</ele>
        <time>2014-03-30T08:29:52Z</time>
      </trkpt>
      <trkpt lat="43.74637" lon="3.56248">
        <ele>90.672</ele>
        <time>2014-03-30T08:30:03Z</time>
      </trkpt>
      <trkpt lat="43.74637" lon="3.56228">
        <ele>91.632</ele>
        <time>2014-03-30T08:30:15Z</time>
      </trkpt>
      <trkpt lat="43.7464" lon="3.56218">
        <ele>92.271</ele>
        <time>2014-03-30T08:30:22Z</time>
      </trkpt>
      <trkpt lat="43.74647" lon="3.56208">
        <ele>94.202</ele>
        <time>2014-03-30T08:30:31Z</time>
      </trkpt>
      <trkpt lat="43.74658" lon="3.56195">
        <ele>94.421</ele>
        <time>2014-03-30T08:30:42Z</time>
      </trkpt>
      <trkpt lat="43.74667" lon="3.56184">
        <ele>93.131</ele>
        <time>2014-03-30T08:30:51Z</time>
      </trkpt>
      <trkpt lat="43.74677" lon="3.56173">
        <ele>95.511</ele>
        <time>2014-03-30T08:31:02Z</time>
      </trkpt>
      <trkpt lat="43.74685" lon="3.56162">
        <ele>97.222</ele>
        <time>2014-03-30T08:31:12Z</time>
      </trkpt>
      <trkpt lat="43.74692" lon="3.56152">
        <ele>99.422</ele>
        <time>2014-03-30T08:31:21Z</time>
      </trkpt>
      <trkpt lat="43.74699" lon="3.56141">
        <ele>102.649</ele>
        <time>2014-03-30T08:31:31Z</time>
      </trkpt>
      <trkpt lat="43.74706" lon="3.56131">
        <ele>104.492</ele>
        <time>2014-03-30T08:31:40Z</time>
      </trkpt>
      <trkpt lat="43.74707" lon="3.56131">
        <ele>104.932</ele>
        <time>2014-03-30T08:31:41Z</time>
      </trkpt>
      <trkpt lat="43.74716" lon="3.56121">
        <ele>106.392</ele>
        <time>2014-03-30T08:31:51Z</time>
      </trkpt>
      <trkpt lat="43.74726" lon="3.56112">
        <ele>105.321</ele>
        <time>2014-03-30T08:32:01Z</time>
      </trkpt>
      <trkpt lat="43.74738" lon="3.56103">
        <ele>103.421</ele>
        <time>2014-03-30T08:32:11Z</time>
      </trkpt>
      <trkpt lat="43.74749" lon="3.56099">
        <ele>107.122</ele>
        <time>2014-03-30T08:32:22Z</time>
      </trkpt>
      <trkpt lat="43.74759" lon="3.56092">
        <ele>105.402</ele>
        <time>2014-03-30T08:32:31Z</time>
      </trkpt>
      <trkpt lat="43.74771" lon="3.56088">
        <ele>105.092</ele>
        <time>2014-03-30T08:32:41Z</time>
      </trkpt>
      <trkpt lat="43.74777" lon="3.56086">
        <ele>106.452</ele>
        <time>2014-03-30T08:32:49Z</time>
      </trkpt>
      <trkpt lat="43.74782" lon="3.56082">
        <ele>107.262</ele>
        <time>2014-03-30T08:32:57Z</time>
      </trkpt>
      <trkpt lat="43.74785" lon="3.5608">
        <ele>107.662</ele>
        <time>2014-03-30T08:33:03Z</time>
      </trkpt>
      <trkpt lat="43.74793" lon="3.56086">
        <ele>109.102</ele>
        <time>2014-03-30T08:33:11Z</time>
      </trkpt>
      <trkpt lat="43.74803" lon="3.56088">
        <ele>106.222</ele>
        <time>2014-03-30T08:33:20Z</time>
      </trkpt>
      <trkpt lat="43.74809" lon="3.56094">
        <ele>108.062</ele>
        <time>2014-03-30T08:33:27Z</time>
      </trkpt>
      <trkpt lat="43.7482" lon="3.56099">
        <ele>104.152</ele>
        <time>2014-03-30T08:33:38Z</time>
      </trkpt>
      <trkpt lat="43.74829" lon="3.56101">
        <ele>101.982</ele>
        <time>2014-03-30T08:33:46Z</time>
      </trkpt>
      <trkpt lat="43.74839" lon="3.56109">
        <ele>102.382</ele>
        <time>2014-03-30T08:33:56Z</time>
      </trkpt>
      <trkpt lat="43.74845" lon="3.56116">
        <ele>105.143</ele>
        <time>2014-03-30T08:34:03Z</time>
      </trkpt>
      <trkpt lat="43.74854" lon="3.56121">
        <ele>104.052</ele>
        <time>2014-03-30T08:34:12Z</time>
      </trkpt>
      <trkpt lat="43.74861" lon="3.56129">
        <ele>104.452</ele>
        <time>2014-03-30T08:34:21Z</time>
      </trkpt>
      <trkpt lat="43.74866" lon="3.56136">
        <ele>105.733</ele>
        <time>2014-03-30T08:34:29Z</time>
      </trkpt>
      <trkpt lat="43.74871" lon="3.56144">
        <ele>107.633</ele>
        <time>2014-03-30T08:34:37Z</time>
      </trkpt>
      <trkpt lat="43.74873" lon="3.56145">
        <ele>108.133</ele>
        <time>2014-03-30T08:34:40Z</time>
      </trkpt>
      <trkpt lat="43.74877" lon="3.56149">
        <ele>109.123</ele>
        <time>2014-03-30T08:34:47Z</time>
      </trkpt>
      <trkpt lat="43.74881" lon="3.56153">
        <ele>109.243</ele>
        <time>2014-03-30T08:34:54Z</time>
      </trkpt>
      <trkpt lat="43.74887" lon="3.56163">
        <ele>110.703</ele>
        <time>2014-03-30T08:35:03Z</time>
      </trkpt>
      <trkpt lat="43.74894" lon="3.56171">
        <ele>111.033</ele>
        <time>2014-03-30T08:35:11Z</time>
      </trkpt>
      <trkpt lat="43.74901" lon="3.56179">
        <ele>109.462</ele>
        <time>2014-03-30T08:35:18Z</time>
      </trkpt>
      <trkpt lat="43.74906" lon="3.56186">
        <ele>110.543</ele>
        <time>2014-03-30T08:35:25Z</time>
      </trkpt>
      <trkpt lat="43.74913" lon="3.5619">
        <ele>112.153</ele>
        <time>2014-03-30T08:35:32Z</time>
      </trkpt>
      <trkpt lat="43.74921" lon="3.56196">
        <ele>116.124</ele>
        <time>2014-03-30T08:35:41Z</time>
      </trkpt>
      <trkpt lat="43.74922" lon="3.56197">
        <ele>117.054</ele>
        <time>2014-03-30T08:35:42Z</time>
      </trkpt>
      <trkpt lat="43.74931" lon="3.562">
        <ele>121.214</ele>
        <time>2014-03-30T08:35:52Z</time>
      </trkpt>
      <trkpt lat="43.74941" lon="3.56206">
        <ele>121.713</ele>
        <time>2014-03-30T08:36:01Z</time>
      </trkpt>
      <trkpt lat="43.74946" lon="3.56207">
        <ele>120.072</ele>
        <time>2014-03-30T08:36:06Z</time>
      </trkpt>
      <trkpt lat="43.74953" lon="3.56211">
        <ele>121.182</ele>
        <time>2014-03-30T08:36:13Z</time>
      </trkpt>
      <trkpt lat="43.74963" lon="3.56212">
        <ele>117.302</ele>
        <time>2014-03-30T08:36:22Z</time>
      </trkpt>
      <trkpt lat="43.74972" lon="3.5621">
        <ele>114.532</ele>
        <time>2014-03-30T08:36:29Z</time>
      </trkpt>
      <trkpt lat="43.74979" lon="3.56207">
        <ele>114.123</ele>
        <time>2014-03-30T08:36:35Z</time>
      </trkpt>
      <trkpt lat="43.74989" lon="3.56204">
        <ele>115.802</ele>
        <time>2014-03-30T08:36:45Z</time>
      </trkpt>
      <trkpt lat="43.74996" lon="3.56201">
        <ele>115.992</ele>
        <time>2014-03-30T08:36:51Z</time>
      </trkpt>
      <trkpt lat="43.75" lon="3.562">
        <ele>116.904</ele>
        <time>2014-03-30T08:36:56Z</time>
      </trkpt>
      <trkpt lat="43.75003" lon="3.56199">
        <ele>117.573</ele>
        <time>2014-03-30T08:36:59Z</time>
      </trkpt>
      <trkpt lat="43.7501" lon="3.56194">
        <ele>119.703</ele>
        <time>2014-03-30T08:37:07Z</time>
      </trkpt>
      <trkpt lat="43.75013" lon="3.56188">
        <ele>121.594</ele>
        <time>2014-03-30T08:37:15Z</time>
      </trkpt>
      <trkpt lat="43.75014" lon="3.56188">
        <ele>121.984</ele>
        <time>2014-03-30T08:37:16Z</time>
      </trkpt>
      <trkpt lat="43.7502" lon="3.56181">
        <ele>121.243</ele>
        <time>2014-03-30T08:37:24Z</time>
      </trkpt>
      <trkpt lat="43.7502" lon="3.56169">
        <ele>119.753</ele>
        <time>2014-03-30T08:37:33Z</time>
      </trkpt>
      <trkpt lat="43.7502" lon="3.56163">
        <ele>121.733</ele>
        <time>2014-03-30T08:37:39Z</time>
      </trkpt>
      <trkpt lat="43.75021" lon="3.56153">
        <ele>124.374</ele>
        <time>2014-03-30T08:37:47Z</time>
      </trkpt>
      <trkpt lat="43.7502" lon="3.56144">
        <ele>123.443</ele>
        <time>2014-03-30T08:37:56Z</time>
      </trkpt>
      <trkpt lat="43.75021" lon="3.56138">
        <ele>124.053</ele>
        <time>2014-03-30T08:38:04Z</time>
      </trkpt>
      <trkpt lat="43.75022" lon="3.56134">
        <ele>123.873</ele>
        <time>2014-03-30T08:38:09Z</time>
      </trkpt>
      <trkpt lat="43.75023" lon="3.56131">
        <ele>123.743</ele>
        <time>2014-03-30T08:38:14Z</time>
      </trkpt>
      <trkpt lat="43.75026" lon="3.56125">
        <ele>125.393</ele>
        <time>2014-03-30T08:38:22Z</time>
      </trkpt>
      <trkpt lat="43.75029" lon="3.5612">
        <ele>128.814</ele>
        <time>2014-03-30T08:38:31Z</time>
      </trkpt>
      <trkpt lat="43.7503" lon="3.56114">
        <ele>130.213</ele>
        <time>2014-03-30T08:38:38Z</time>
      </trkpt>
      <trkpt lat="43.75032" lon="3.56112">
        <ele>131.153</ele>
        <time>2014-03-30T08:38:44Z</time>
      </trkpt>
      <trkpt lat="43.75033" lon="3.5611">
        <ele>119.003</ele>
        <time>2014-03-30T08:41:04Z</time>
      </trkpt>
      <trkpt lat="43.75037" lon="3.56107">
        <ele>120.993</ele>
        <time>2014-03-30T08:41:10Z</time>
      </trkpt>
      <trkpt lat="43.7504" lon="3.56104">
        <ele>123.303</ele>
        <time>2014-03-30T08:41:16Z</time>
      </trkpt>
      <trkpt lat="43.75043" lon="3.561">
        <ele>125.023</ele>
        <time>2014-03-30T08:41:24Z</time>
      </trkpt>
      <trkpt lat="43.75044" lon="3.56101">
        <ele>126.403</ele>
        <time>2014-03-30T08:41:29Z</time>
      </trkpt>
      <trkpt lat="43.75043" lon="3.56102">
        <ele>129.743</ele>
        <time>2014-03-30T08:41:37Z</time>
      </trkpt>
      <trkpt lat="43.75041" lon="3.56103">
        <ele>127.543</ele>
        <time>2014-03-30T08:41:45Z</time>
      </trkpt>
      <trkpt lat="43.7504" lon="3.56103">
        <ele>126.272</ele>
        <time>2014-03-30T08:41:51Z</time>
      </trkpt>
      <trkpt lat="43.75039" lon="3.56103">
        <ele>126.383</ele>
        <time>2014-03-30T08:41:53Z</time>
      </trkpt>
      <trkpt lat="43.75038" lon="3.5611">
        <ele>127.463</ele>
        <time>2014-03-30T08:42:01Z</time>
      </trkpt>
      <trkpt lat="43.75043" lon="3.56112">
        <ele>129.144</ele>
        <time>2014-03-30T08:42:08Z</time>
      </trkpt>
      <trkpt lat="43.75045" lon="3.5611">
        <ele>129.543</ele>
        <time>2014-03-30T08:42:13Z</time>
      </trkpt>
      <trkpt lat="43.75048" lon="3.56108">
        <ele>131.783</ele>
        <time>2014-03-30T08:42:20Z</time>
      </trkpt>
      <trkpt lat="43.7505" lon="3.56107">
        <ele>133.453</ele>
        <time>2014-03-30T08:42:27Z</time>
      </trkpt>
      <trkpt lat="43.75047" lon="3.56107">
        <ele>132.823</ele>
        <time>2014-03-30T08:42:36Z</time>
      </trkpt>
      <trkpt lat="43.75047" lon="3.5611">
        <ele>136.523</ele>
        <time>2014-03-30T08:42:44Z</time>
      </trkpt>
      <trkpt lat="43.75047" lon="3.56115">
        <ele>138.193</ele>
        <time>2014-03-30T08:42:52Z</time>
      </trkpt>
      <trkpt lat="43.75046" lon="3.56124">
        <ele>140.103</ele>
        <time>2014-03-30T08:43:01Z</time>
      </trkpt>
      <trkpt lat="43.75048" lon="3.56131">
        <ele>141.193</ele>
        <time>2014-03-30T08:43:09Z</time>
      </trkpt>
      <trkpt lat="43.75049" lon="3.56135">
        <ele>141.493</ele>
        <time>2014-03-30T08:43:14Z</time>
      </trkpt>
      <trkpt lat="43.75051" lon="3.56145">
        <ele>140.823</ele>
        <time>2014-03-30T08:43:24Z</time>
      </trkpt>
      <trkpt lat="43.75055" lon="3.56145">
        <ele>140.143</ele>
        <time>2014-03-30T08:43:30Z</time>
      </trkpt>
      <trkpt lat="43.75058" lon="3.5614">
        <ele>140.883</ele>
        <time>2014-03-30T08:43:39Z</time>
      </trkpt>
      <trkpt lat="43.75062" lon="3.56136">
        <ele>143.533</ele>
        <time>2014-03-30T08:43:49Z</time>
      </trkpt>
      <trkpt lat="43.75064" lon="3.56134">
        <ele>144.408</ele>
        <time>2014-03-30T08:43:53Z</time>
      </trkpt>
      <trkpt lat="43.75069" lon="3.56133">
        <ele>146.343</ele>
        <time>2014-03-30T08:44:00Z</time>
      </trkpt>
      <trkpt lat="43.75075" lon="3.56135">
        <ele>147.873</ele>
        <time>2014-03-30T08:44:09Z</time>
      </trkpt>
      <trkpt lat="43.75081" lon="3.56139">
        <ele>149.653</ele>
        <time>2014-03-30T08:44:18Z</time>
      </trkpt>
      <trkpt lat="43.75086" lon="3.56141">
        <ele>150.733</ele>
        <time>2014-03-30T08:44:25Z</time>
      </trkpt>
      <trkpt lat="43.75093" lon="3.56143">
        <ele>150.593</ele>
        <time>2014-03-30T08:44:34Z</time>
      </trkpt>
      <trkpt lat="43.75099" lon="3.56146">
        <ele>152.073</ele>
        <time>2014-03-30T08:44:42Z</time>
      </trkpt>
      <trkpt lat="43.75105" lon="3.56149">
        <ele>153.913</ele>
        <time>2014-03-30T08:44:51Z</time>
      </trkpt>
      <trkpt lat="43.75111" lon="3.56152">
        <ele>155.684</ele>
        <time>2014-03-30T08:45:00Z</time>
      </trkpt>
      <trkpt lat="43.75117" lon="3.56156">
        <ele>158.233</ele>
        <time>2014-03-30T08:45:09Z</time>
      </trkpt>
      <trkpt lat="43.75127" lon="3.56156">
        <ele>155.593</ele>
        <time>2014-03-30T08:45:18Z</time>
      </trkpt>
      <trkpt lat="43.75135" lon="3.56158">
        <ele>156.863</ele>
        <time>2014-03-30T08:45:27Z</time>
      </trkpt>
      <trkpt lat="43.75138" lon="3.56158">
        <ele>157.243</ele>
        <time>2014-03-30T08:45:30Z</time>
      </trkpt>
      <trkpt lat="43.75147" lon="3.56162">
        <ele>158.173</ele>
        <time>2014-03-30T08:45:40Z</time>
      </trkpt>
      <trkpt lat="43.75155" lon="3.56167">
        <ele>159.673</ele>
        <time>2014-03-30T08:45:49Z</time>
      </trkpt>
      <trkpt lat="43.75162" lon="3.56171">
        <ele>159.873</ele>
        <time>2014-03-30T08:45:58Z</time>
      </trkpt>
      <trkpt lat="43.75167" lon="3.56176">
        <ele>158.213</ele>
        <time>2014-03-30T08:46:07Z</time>
      </trkpt>
      <trkpt lat="43.7517" lon="3.56176">
        <ele>158.043</ele>
        <time>2014-03-30T08:46:14Z</time>
      </trkpt>
      <trkpt lat="43.75174" lon="3.56179">
        <ele>158.443</ele>
        <time>2014-03-30T08:46:20Z</time>
      </trkpt>
      <trkpt lat="43.75178" lon="3.56185">
        <ele>158.503</ele>
        <time>2014-03-30T08:46:28Z</time>
      </trkpt>
      <trkpt lat="43.75182" lon="3.56188">
        <ele>159.123</ele>
        <time>2014-03-30T08:46:36Z</time>
      </trkpt>
      <trkpt lat="43.75185" lon="3.56193">
        <ele>159.603</ele>
        <time>2014-03-30T08:46:44Z</time>
      </trkpt>
      <trkpt lat="43.75188" lon="3.56199">
        <ele>161.074</ele>
        <time>2014-03-30T08:46:53Z</time>
      </trkpt>
      <trkpt lat="43.75193" lon="3.56203">
        <ele>161.263</ele>
        <time>2014-03-30T08:47:02Z</time>
      </trkpt>
      <trkpt lat="43.75198" lon="3.56207">
        <ele>162.084</ele>
        <time>2014-03-30T08:47:10Z</time>
      </trkpt>
      <trkpt lat="43.75202" lon="3.56212">
        <ele>164.614</ele>
        <time>2014-03-30T08:47:17Z</time>
      </trkpt>
      <trkpt lat="43.75204" lon="3.56216">
        <ele>166.104</ele>
        <time>2014-03-30T08:47:23Z</time>
      </trkpt>
      <trkpt lat="43.75207" lon="3.56221">
        <ele>166.893</ele>
        <time>2014-03-30T08:47:30Z</time>
      </trkpt>
      <trkpt lat="43.75211" lon="3.56227">
        <ele>166.654</ele>
        <time>2014-03-30T08:47:38Z</time>
      </trkpt>
      <trkpt lat="43.75214" lon="3.56233">
        <ele>166.444</ele>
        <time>2014-03-30T08:47:46Z</time>
      </trkpt>
      <trkpt lat="43.75218" lon="3.56237">
        <ele>166.464</ele>
        <time>2014-03-30T08:47:52Z</time>
      </trkpt>
      <trkpt lat="43.75224" lon="3.56241">
        <ele>167.364</ele>
        <time>2014-03-30T08:48:01Z</time>
      </trkpt>
      <trkpt lat="43.75227" lon="3.56244">
        <ele>169.285</ele>
        <time>2014-03-30T08:48:08Z</time>
      </trkpt>
      <trkpt lat="43.75231" lon="3.5625">
        <ele>174.934</ele>
        <time>2014-03-30T08:48:50Z</time>
      </trkpt>
      <trkpt lat="43.75236" lon="3.56254">
        <ele>174.494</ele>
        <time>2014-03-30T08:48:58Z</time>
      </trkpt>
      <trkpt lat="43.75242" lon="3.56257">
        <ele>174.484</ele>
        <time>2014-03-30T08:49:06Z</time>
      </trkpt>
      <trkpt lat="43.75247" lon="3.56263">
        <ele>177.234</ele>
        <time>2014-03-30T08:49:14Z</time>
      </trkpt>
      <trkpt lat="43.75252" lon="3.56267">
        <ele>180.724</ele>
        <time>2014-03-30T08:49:23Z</time>
      </trkpt>
      <trkpt lat="43.75257" lon="3.56272">
        <ele>182.454</ele>
        <time>2014-03-30T08:49:32Z</time>
      </trkpt>
      <trkpt lat="43.75261" lon="3.56277">
        <ele>182.654</ele>
        <time>2014-03-30T08:49:40Z</time>
      </trkpt>
      <trkpt lat="43.75264" lon="3.56278">
        <ele>180.274</ele>
        <time>2014-03-30T08:49:45Z</time>
      </trkpt>
      <trkpt lat="43.75266" lon="3.56281">
        <ele>180.134</ele>
        <time>2014-03-30T08:49:50Z</time>
      </trkpt>
      <trkpt lat="43.75271" lon="3.56281">
        <ele>180.744</ele>
        <time>2014-03-30T08:49:57Z</time>
      </trkpt>
      <trkpt lat="43.75277" lon="3.56284">
        <ele>182.014</ele>
        <time>2014-03-30T08:50:05Z</time>
      </trkpt>
      <trkpt lat="43.75282" lon="3.56285">
        <ele>184.634</ele>
        <time>2014-03-30T08:50:14Z</time>
      </trkpt>
      <trkpt lat="43.75283" lon="3.56285">
        <ele>184.954</ele>
        <time>2014-03-30T08:50:15Z</time>
      </trkpt>
      <trkpt lat="43.75288" lon="3.56287">
        <ele>188.154</ele>
        <time>2014-03-30T08:50:24Z</time>
      </trkpt>
      <trkpt lat="43.75291" lon="3.56287">
        <ele>190.725</ele>
        <time>2014-03-30T08:50:31Z</time>
      </trkpt>
      <trkpt lat="43.75294" lon="3.56286">
        <ele>194.205</ele>
        <time>2014-03-30T08:50:38Z</time>
      </trkpt>
      <trkpt lat="43.75298" lon="3.56284">
        <ele>197.655</ele>
        <time>2014-03-30T08:50:47Z</time>
      </trkpt>
      <trkpt lat="43.75304" lon="3.56285">
        <ele>197.194</ele>
        <time>2014-03-30T08:50:55Z</time>
      </trkpt>
      <trkpt lat="43.75312" lon="3.56286">
        <ele>198.474</ele>
        <time>2014-03-30T08:51:05Z</time>
      </trkpt>
      <trkpt lat="43.75317" lon="3.56286">
        <ele>198.994</ele>
        <time>2014-03-30T08:51:14Z</time>
      </trkpt>
      <trkpt lat="43.75322" lon="3.56283">
        <ele>200.695</ele>
        <time>2014-03-30T08:51:22Z</time>
      </trkpt>
      <trkpt lat="43.75327" lon="3.56282">
        <ele>201.584</ele>
        <time>2014-03-30T08:51:29Z</time>
      </trkpt>
      <trkpt lat="43.75335" lon="3.56283">
        <ele>201.584</ele>
        <time>2014-03-30T08:51:38Z</time>
      </trkpt>
      <trkpt lat="43.75337" lon="3.56284">
        <ele>201.714</ele>
        <time>2014-03-30T08:51:47Z</time>
      </trkpt>
      <trkpt lat="43.75341" lon="3.56291">
        <ele>201.134</ele>
        <time>2014-03-30T08:51:55Z</time>
      </trkpt>
      <trkpt lat="43.75341" lon="3.56297">
        <ele>201.595</ele>
        <time>2014-03-30T08:52:04Z</time>
      </trkpt>
      <trkpt lat="43.75343" lon="3.56305">
        <ele>201.364</ele>
        <time>2014-03-30T08:52:12Z</time>
      </trkpt>
      <trkpt lat="43.75345" lon="3.56313">
        <ele>202.665</ele>
        <time>2014-03-30T08:52:20Z</time>
      </trkpt>
      <trkpt lat="43.75347" lon="3.56317">
        <ele>202.384</ele>
        <time>2014-03-30T08:52:27Z</time>
      </trkpt>
      <trkpt lat="43.75349" lon="3.56326">
        <ele>200.294</ele>
        <time>2014-03-30T08:52:35Z</time>
      </trkpt>
      <trkpt lat="43.7535" lon="3.56335">
        <ele>198.534</ele>
        <time>2014-03-30T08:52:43Z</time>
      </trkpt>
      <trkpt lat="43.75352" lon="3.5634">
        <ele>196.714</ele>
        <time>2014-03-30T08:52:48Z</time>
      </trkpt>
      <trkpt lat="43.75359" lon="3.56352">
        <ele>196.674</ele>
        <time>2014-03-30T08:52:58Z</time>
      </trkpt>
      <trkpt lat="43.75364" lon="3.56356">
        <ele>198.745</ele>
        <time>2014-03-30T08:53:05Z</time>
      </trkpt>
      <trkpt lat="43.75366" lon="3.56358">
        <ele>198.126</ele>
        <time>2014-03-30T08:53:08Z</time>
      </trkpt>
      <trkpt lat="43.75374" lon="3.56358">
        <ele>203.387</ele>
        <time>2014-03-30T08:53:18Z</time>
      </trkpt>
      <trkpt lat="43.75378" lon="3.56357">
        <ele>205.987</ele>
        <time>2014-03-30T08:53:22Z</time>
      </trkpt>
      <trkpt lat="43.75384" lon="3.56359">
        <ele>206.206</ele>
        <time>2014-03-30T08:53:28Z</time>
      </trkpt>
      <trkpt lat="43.75389" lon="3.5636">
        <ele>203.325</ele>
        <time>2014-03-30T08:53:33Z</time>
      </trkpt>
      <trkpt lat="43.75397" lon="3.56367">
        <ele>203.865</ele>
        <time>2014-03-30T08:53:45Z</time>
      </trkpt>
      <trkpt lat="43.75402" lon="3.56369">
        <ele>203.414</ele>
        <time>2014-03-30T08:53:52Z</time>
      </trkpt>
      <trkpt lat="43.75409" lon="3.56371">
        <ele>202.415</ele>
        <time>2014-03-30T08:54:00Z</time>
      </trkpt>
      <trkpt lat="43.75417" lon="3.56378">
        <ele>200.664</ele>
        <time>2014-03-30T08:54:11Z</time>
      </trkpt>
      <trkpt lat="43.75423" lon="3.56386">
        <ele>201.074</ele>
        <time>2014-03-30T08:54:20Z</time>
      </trkpt>
      <trkpt lat="43.75432" lon="3.56396">
        <ele>199.894</ele>
        <time>2014-03-30T08:54:31Z</time>
      </trkpt>
      <trkpt lat="43.75436" lon="3.56402">
        <ele>199.244</ele>
        <time>2014-03-30T08:54:37Z</time>
      </trkpt>
      <trkpt lat="43.75439" lon="3.56406">
        <ele>199.074</ele>
        <time>2014-03-30T08:54:41Z</time>
      </trkpt>
      <trkpt lat="43.75443" lon="3.56409">
        <ele>200.385</ele>
        <time>2014-03-30T08:54:45Z</time>
      </trkpt>
      <trkpt lat="43.75448" lon="3.56416">
        <ele>204.576</ele>
        <time>2014-03-30T08:54:53Z</time>
      </trkpt>
      <trkpt lat="43.75448" lon="3.56417">
        <ele>205.196</ele>
        <time>2014-03-30T08:54:54Z</time>
      </trkpt>
      <trkpt lat="43.75447" lon="3.56425">
        <ele>204.785</ele>
        <time>2014-03-30T08:55:03Z</time>
      </trkpt>
      <trkpt lat="43.75448" lon="3.56428">
        <ele>206.695</ele>
        <time>2014-03-30T08:55:06Z</time>
      </trkpt>
      <trkpt lat="43.75453" lon="3.56439">
        <ele>209.165</ele>
        <time>2014-03-30T08:55:14Z</time>
      </trkpt>
      <trkpt lat="43.75459" lon="3.56444">
        <ele>214.807</ele>
        <time>2014-03-30T08:55:22Z</time>
      </trkpt>
      <trkpt lat="43.75464" lon="3.5645">
        <ele>216.585</ele>
        <time>2014-03-30T08:55:29Z</time>
      </trkpt>
      <trkpt lat="43.7547" lon="3.56457">
        <ele>220.626</ele>
        <time>2014-03-30T08:55:37Z</time>
      </trkpt>
      <trkpt lat="43.75478" lon="3.56464">
        <ele>220.495</ele>
        <time>2014-03-30T08:55:45Z</time>
      </trkpt>
      <trkpt lat="43.75482" lon="3.56467">
        <ele>220.895</ele>
        <time>2014-03-30T08:55:50Z</time>
      </trkpt>
      <trkpt lat="43.75487" lon="3.56473">
        <ele>222.005</ele>
        <time>2014-03-30T08:55:58Z</time>
      </trkpt>
      <trkpt lat="43.75489" lon="3.56479">
        <ele>222.455</ele>
        <time>2014-03-30T08:56:03Z</time>
      </trkpt>
      <trkpt lat="43.75495" lon="3.56487">
        <ele>224.706</ele>
        <time>2014-03-30T08:56:12Z</time>
      </trkpt>
      <trkpt lat="43.75501" lon="3.56492">
        <ele>226.835</ele>
        <time>2014-03-30T08:56:20Z</time>
      </trkpt>
      <trkpt lat="43.75506" lon="3.56498">
        <ele>226.665</ele>
        <time>2014-03-30T08:56:26Z</time>
      </trkpt>
      <trkpt lat="43.75511" lon="3.56505">
        <ele>224.684</ele>
        <time>2014-03-30T08:56:36Z</time>
      </trkpt>
      <trkpt lat="43.75513" lon="3.56507">
        <ele>224.335</ele>
        <time>2014-03-30T08:56:42Z</time>
      </trkpt>
      <trkpt lat="43.75519" lon="3.56513">
        <ele>223.795</ele>
        <time>2014-03-30T08:56:50Z</time>
      </trkpt>
      <trkpt lat="43.75522" lon="3.5652">
        <ele>224.985</ele>
        <time>2014-03-30T08:56:58Z</time>
      </trkpt>
      <trkpt lat="43.75529" lon="3.56523">
        <ele>217.015</ele>
        <time>2014-03-30T08:57:08Z</time>
      </trkpt>
      <trkpt lat="43.75533" lon="3.56528">
        <ele>216.915</ele>
        <time>2014-03-30T08:57:16Z</time>
      </trkpt>
      <trkpt lat="43.75536" lon="3.56531">
        <ele>216.535</ele>
        <time>2014-03-30T08:57:23Z</time>
      </trkpt>
      <trkpt lat="43.7554" lon="3.5654">
        <ele>218.835</ele>
        <time>2014-03-30T08:57:31Z</time>
      </trkpt>
      <trkpt lat="43.75545" lon="3.56544">
        <ele>220.705</ele>
        <time>2014-03-30T08:57:40Z</time>
      </trkpt>
      <trkpt lat="43.75544" lon="3.56538">
        <ele>219.125</ele>
        <time>2014-03-30T08:57:47Z</time>
      </trkpt>
      <trkpt lat="43.75544" lon="3.56532">
        <ele>218.495</ele>
        <time>2014-03-30T08:57:54Z</time>
      </trkpt>
      <trkpt lat="43.75544" lon="3.56527">
        <ele>218.445</ele>
        <time>2014-03-30T08:58:01Z</time>
      </trkpt>
      <trkpt lat="43.75543" lon="3.56521">
        <ele>219.009</ele>
        <time>2014-03-30T08:58:08Z</time>
      </trkpt>
      <trkpt lat="43.75543" lon="3.5652">
        <ele>218.165</ele>
        <time>2014-03-30T08:58:19Z</time>
      </trkpt>
      <trkpt lat="43.75544" lon="3.56522">
        <ele>218.805</ele>
        <time>2014-03-30T09:00:26Z</time>
      </trkpt>
      <trkpt lat="43.75543" lon="3.56516">
        <ele>222.325</ele>
        <time>2014-03-30T09:00:57Z</time>
      </trkpt>
      <trkpt lat="43.75542" lon="3.56513">
        <ele>222.685</ele>
        <time>2014-03-30T09:01:00Z</time>
      </trkpt>
      <trkpt lat="43.75541" lon="3.56501">
        <ele>223.195</ele>
        <time>2014-03-30T09:01:10Z</time>
      </trkpt>
      <trkpt lat="43.75541" lon="3.56497">
        <ele>224.355</ele>
        <time>2014-03-30T09:01:17Z</time>
      </trkpt>
      <trkpt lat="43.75541" lon="3.56488">
        <ele>224.355</ele>
        <time>2014-03-30T09:01:26Z</time>
      </trkpt>
      <trkpt lat="43.75542" lon="3.5648">
        <ele>224.595</ele>
        <time>2014-03-30T09:01:34Z</time>
      </trkpt>
      <trkpt lat="43.75544" lon="3.5648">
        <ele>227.075</ele>
        <time>2014-03-30T09:01:41Z</time>
      </trkpt>
      <trkpt lat="43.75548" lon="3.56482">
        <ele>229.976</ele>
        <time>2014-03-30T09:01:50Z</time>
      </trkpt>
      <trkpt lat="43.75548" lon="3.56478">
        <ele>232.466</ele>
        <time>2014-03-30T09:01:56Z</time>
      </trkpt>
      <trkpt lat="43.75545" lon="3.56472">
        <ele>234.016</ele>
        <time>2014-03-30T09:02:04Z</time>
      </trkpt>
      <trkpt lat="43.75544" lon="3.56469">
        <ele>233.875</ele>
        <time>2014-03-30T09:02:09Z</time>
      </trkpt>
      <trkpt lat="43.75546" lon="3.56467">
        <ele>235.855</ele>
        <time>2014-03-30T09:02:15Z</time>
      </trkpt>
      <trkpt lat="43.75551" lon="3.56469">
        <ele>236.855</ele>
        <time>2014-03-30T09:02:23Z</time>
      </trkpt>
      <trkpt lat="43.75552" lon="3.56469">
        <ele>237.005</ele>
        <time>2014-03-30T09:02:24Z</time>
      </trkpt>
      <trkpt lat="43.75556" lon="3.56475">
        <ele>239.085</ele>
        <time>2014-03-30T09:02:33Z</time>
      </trkpt>
      <trkpt lat="43.75556" lon="3.5648">
        <ele>241.576</ele>
        <time>2014-03-30T09:02:39Z</time>
      </trkpt>
      <trkpt lat="43.75558" lon="3.56485">
        <ele>242.196</ele>
        <time>2014-03-30T09:02:46Z</time>
      </trkpt>
      <trkpt lat="43.75559" lon="3.56491">
        <ele>242.356</ele>
        <time>2014-03-30T09:02:54Z</time>
      </trkpt>
      <trkpt lat="43.7556" lon="3.56496">
        <ele>243.136</ele>
        <time>2014-03-30T09:03:01Z</time>
      </trkpt>
      <trkpt lat="43.75564" lon="3.56499">
        <ele>242.545</ele>
        <time>2014-03-30T09:03:08Z</time>
      </trkpt>
      <trkpt lat="43.75565" lon="3.56496">
        <ele>242.085</ele>
        <time>2014-03-30T09:03:12Z</time>
      </trkpt>
      <trkpt lat="43.75568" lon="3.56487">
        <ele>242.115</ele>
        <time>2014-03-30T09:03:21Z</time>
      </trkpt>
      <trkpt lat="43.75569" lon="3.5648">
        <ele>242.255</ele>
        <time>2014-03-30T09:03:29Z</time>
      </trkpt>
      <trkpt lat="43.7557" lon="3.56472">
        <ele>243.045</ele>
        <time>2014-03-30T09:03:37Z</time>
      </trkpt>
      <trkpt lat="43.75571" lon="3.56463">
        <ele>244.655</ele>
        <time>2014-03-30T09:03:47Z</time>
      </trkpt>
      <trkpt lat="43.7557" lon="3.56454">
        <ele>245.785</ele>
        <time>2014-03-30T09:03:56Z</time>
      </trkpt>
      <trkpt lat="43.7557" lon="3.56451">
        <ele>246.115</ele>
        <time>2014-03-30T09:04:02Z</time>
      </trkpt>
      <trkpt lat="43.75568" lon="3.56447">
        <ele>247.106</ele>
        <time>2014-03-30T09:04:08Z</time>
      </trkpt>
      <trkpt lat="43.75571" lon="3.56448">
        <ele>248.295</ele>
        <time>2014-03-30T09:04:14Z</time>
      </trkpt>
      <trkpt lat="43.75577" lon="3.56453">
        <ele>251.005</ele>
        <time>2014-03-30T09:04:24Z</time>
      </trkpt>
      <trkpt lat="43.75579" lon="3.56455">
        <ele>250.095</ele>
        <time>2014-03-30T09:04:30Z</time>
      </trkpt>
      <trkpt lat="43.75582" lon="3.56459">
        <ele>251.615</ele>
        <time>2014-03-30T09:04:37Z</time>
      </trkpt>
      <trkpt lat="43.75584" lon="3.56456">
        <ele>253.605</ele>
        <time>2014-03-30T09:04:44Z</time>
      </trkpt>
      <trkpt lat="43.75583" lon="3.5645">
        <ele>255.616</ele>
        <time>2014-03-30T09:04:52Z</time>
      </trkpt>
      <trkpt lat="43.75582" lon="3.56441">
        <ele>256.745</ele>
        <time>2014-03-30T09:05:01Z</time>
      </trkpt>
      <trkpt lat="43.75579" lon="3.56434">
        <ele>257.865</ele>
        <time>2014-03-30T09:05:09Z</time>
      </trkpt>
      <trkpt lat="43.75575" lon="3.56429">
        <ele>258.715</ele>
        <time>2014-03-30T09:05:16Z</time>
      </trkpt>
      <trkpt lat="43.7557" lon="3.56422">
        <ele>259.805</ele>
        <time>2014-03-30T09:05:25Z</time>
      </trkpt>
      <trkpt lat="43.7557" lon="3.56422">
        <ele>259.945</ele>
        <time>2014-03-30T09:05:26Z</time>
      </trkpt>
      <trkpt lat="43.75566" lon="3.56417">
        <ele>260.755</ele>
        <time>2014-03-30T09:05:34Z</time>
      </trkpt>
      <trkpt lat="43.75566" lon="3.56416">
        <ele>262.285</ele>
        <time>2014-03-30T09:05:41Z</time>
      </trkpt>
      <trkpt lat="43.75567" lon="3.56417">
        <ele>262.895</ele>
        <time>2014-03-30T09:05:44Z</time>
      </trkpt>
      <trkpt lat="43.7557" lon="3.56417">
        <ele>263.295</ele>
        <time>2014-03-30T09:05:47Z</time>
      </trkpt>
      <trkpt lat="43.75574" lon="3.5642">
        <ele>264.125</ele>
        <time>2014-03-30T09:05:55Z</time>
      </trkpt>
      <trkpt lat="43.75576" lon="3.5642">
        <ele>264.524</ele>
        <time>2014-03-30T09:06:03Z</time>
      </trkpt>
      <trkpt lat="43.75577" lon="3.56422">
        <ele>264.454</ele>
        <time>2014-03-30T09:06:10Z</time>
      </trkpt>
      <trkpt lat="43.75576" lon="3.56424">
        <ele>266.254</ele>
        <time>2014-03-30T09:06:19Z</time>
      </trkpt>
      <trkpt lat="43.75571" lon="3.56432">
        <ele>275.035</ele>
        <time>2014-03-30T09:07:15Z</time>
      </trkpt>
      <trkpt lat="43.75575" lon="3.56427">
        <ele>275.245</ele>
        <time>2014-03-30T09:08:27Z</time>
      </trkpt>
      <trkpt lat="43.75577" lon="3.56428">
        <ele>272.645</ele>
        <time>2014-03-30T09:08:49Z</time>
      </trkpt>
      <trkpt lat="43.75579" lon="3.56425">
        <ele>272.065</ele>
        <time>2014-03-30T09:10:22Z</time>
      </trkpt>
      <trkpt lat="43.75583" lon="3.56427">
        <ele>269.945</ele>
        <time>2014-03-30T09:10:49Z</time>
      </trkpt>
      <trkpt lat="43.75585" lon="3.56429">
        <ele>270.587</ele>
        <time>2014-03-30T09:10:55Z</time>
      </trkpt>
      <trkpt lat="43.75588" lon="3.56432">
        <ele>271.135</ele>
        <time>2014-03-30T09:11:02Z</time>
      </trkpt>
      <trkpt lat="43.75592" lon="3.56437">
        <ele>272.115</ele>
        <time>2014-03-30T09:11:10Z</time>
      </trkpt>
      <trkpt lat="43.75596" lon="3.56441">
        <ele>272.345</ele>
        <time>2014-03-30T09:11:18Z</time>
      </trkpt>
      <trkpt lat="43.756" lon="3.56445">
        <ele>271.565</ele>
        <time>2014-03-30T09:11:26Z</time>
      </trkpt>
      <trkpt lat="43.75603" lon="3.5645">
        <ele>271.925</ele>
        <time>2014-03-30T09:11:34Z</time>
      </trkpt>
      <trkpt lat="43.75605" lon="3.5645">
        <ele>272.605</ele>
        <time>2014-03-30T09:11:40Z</time>
      </trkpt>
      <trkpt lat="43.75605" lon="3.56445">
        <ele>272.765</ele>
        <time>2014-03-30T09:11:47Z</time>
      </trkpt>
      <trkpt lat="43.75605" lon="3.56439">
        <ele>273.115</ele>
        <time>2014-03-30T09:11:54Z</time>
      </trkpt>
      <trkpt lat="43.75603" lon="3.56432">
        <ele>272.515</ele>
        <time>2014-03-30T09:12:02Z</time>
      </trkpt>
      <trkpt lat="43.75601" lon="3.56427">
        <ele>272.015</ele>
        <time>2014-03-30T09:12:09Z</time>
      </trkpt>
      <trkpt lat="43.75597" lon="3.56419">
        <ele>272.215</ele>
        <time>2014-03-30T09:12:17Z</time>
      </trkpt>
      <trkpt lat="43.75592" lon="3.56411">
        <ele>271.605</ele>
        <time>2014-03-30T09:12:27Z</time>
      </trkpt>
      <trkpt lat="43.75586" lon="3.56404">
        <ele>271.555</ele>
        <time>2014-03-30T09:12:36Z</time>
      </trkpt>
      <trkpt lat="43.7558" lon="3.56397">
        <ele>272.575</ele>
        <time>2014-03-30T09:12:45Z</time>
      </trkpt>
      <trkpt lat="43.75579" lon="3.56397">
        <ele>272.705</ele>
        <time>2014-03-30T09:12:46Z</time>
      </trkpt>
      <trkpt lat="43.75576" lon="3.56394">
        <ele>273.225</ele>
        <time>2014-03-30T09:12:51Z</time>
      </trkpt>
      <trkpt lat="43.7557" lon="3.56383">
        <ele>273.675</ele>
        <time>2014-03-30T09:13:03Z</time>
      </trkpt>
      <trkpt lat="43.75567" lon="3.56377">
        <ele>273.845</ele>
        <time>2014-03-30T09:13:11Z</time>
      </trkpt>
      <trkpt lat="43.75566" lon="3.56374">
        <ele>274.395</ele>
        <time>2014-03-30T09:13:16Z</time>
      </trkpt>
      <trkpt lat="43.75567" lon="3.56373">
        <ele>275.365</ele>
        <time>2014-03-30T09:13:22Z</time>
      </trkpt>
      <trkpt lat="43.7557" lon="3.56376">
        <ele>276.105</ele>
        <time>2014-03-30T09:13:28Z</time>
      </trkpt>
      <trkpt lat="43.75575" lon="3.56381">
        <ele>277.635</ele>
        <time>2014-03-30T09:13:37Z</time>
      </trkpt>
      <trkpt lat="43.75578" lon="3.56382">
        <ele>279.505</ele>
        <time>2014-03-30T09:13:43Z</time>
      </trkpt>
      <trkpt lat="43.75578" lon="3.56374">
        <ele>280.695</ele>
        <time>2014-03-30T09:13:51Z</time>
      </trkpt>
      <trkpt lat="43.75579" lon="3.56367">
        <ele>281.825</ele>
        <time>2014-03-30T09:14:00Z</time>
      </trkpt>
      <trkpt lat="43.75583" lon="3.56362">
        <ele>283.645</ele>
        <time>2014-03-30T09:14:08Z</time>
      </trkpt>
      <trkpt lat="43.75587" lon="3.56365">
        <ele>285.225</ele>
        <time>2014-03-30T09:14:16Z</time>
      </trkpt>
      <trkpt lat="43.7559" lon="3.56369">
        <ele>286.935</ele>
        <time>2014-03-30T09:14:23Z</time>
      </trkpt>
      <trkpt lat="43.75596" lon="3.56374">
        <ele>288.275</ele>
        <time>2014-03-30T09:14:32Z</time>
      </trkpt>
      <trkpt lat="43.75601" lon="3.56377">
        <ele>289.425</ele>
        <time>2014-03-30T09:14:40Z</time>
      </trkpt>
      <trkpt lat="43.75604" lon="3.5638">
        <ele>290.976</ele>
        <time>2014-03-30T09:14:47Z</time>
      </trkpt>
      <trkpt lat="43.75607" lon="3.56382">
        <ele>292.645</ele>
        <time>2014-03-30T09:14:53Z</time>
      </trkpt>
      <trkpt lat="43.75611" lon="3.5639">
        <ele>294.965</ele>
        <time>2014-03-30T09:15:02Z</time>
      </trkpt>
      <trkpt lat="43.75616" lon="3.56395">
        <ele>294.585</ele>
        <time>2014-03-30T09:15:11Z</time>
      </trkpt>
      <trkpt lat="43.75619" lon="3.56392">
        <ele>295.375</ele>
        <time>2014-03-30T09:15:18Z</time>
      </trkpt>
      <trkpt lat="43.75619" lon="3.56391">
        <ele>295.355</ele>
        <time>2014-03-30T09:15:19Z</time>
      </trkpt>
      <trkpt lat="43.75617" lon="3.56381">
        <ele>295.355</ele>
        <time>2014-03-30T09:15:28Z</time>
      </trkpt>
      <trkpt lat="43.75615" lon="3.56373">
        <ele>295.315</ele>
        <time>2014-03-30T09:15:36Z</time>
      </trkpt>
      <trkpt lat="43.75613" lon="3.56367">
        <ele>295.885</ele>
        <time>2014-03-30T09:15:44Z</time>
      </trkpt>
      <trkpt lat="43.75614" lon="3.56365">
        <ele>296.335</ele>
        <time>2014-03-30T09:15:47Z</time>
      </trkpt>
      <trkpt lat="43.75618" lon="3.56361">
        <ele>298.086</ele>
        <time>2014-03-30T09:15:54Z</time>
      </trkpt>
      <trkpt lat="43.75619" lon="3.56358">
        <ele>299.325</ele>
        <time>2014-03-30T09:15:59Z</time>
      </trkpt>
      <trkpt lat="43.7562" lon="3.56346">
        <ele>299.865</ele>
        <time>2014-03-30T09:16:09Z</time>
      </trkpt>
      <trkpt lat="43.75623" lon="3.56337">
        <ele>299.905</ele>
        <time>2014-03-30T09:16:18Z</time>
      </trkpt>
      <trkpt lat="43.75628" lon="3.56329">
        <ele>300.644</ele>
        <time>2014-03-30T09:16:27Z</time>
      </trkpt>
      <trkpt lat="43.7563" lon="3.56324">
        <ele>301.135</ele>
        <time>2014-03-30T09:16:32Z</time>
      </trkpt>
      <trkpt lat="43.75634" lon="3.56321">
        <ele>301.545</ele>
        <time>2014-03-30T09:16:37Z</time>
      </trkpt>
      <trkpt lat="43.7564" lon="3.56313">
        <ele>301.894</ele>
        <time>2014-03-30T09:16:47Z</time>
      </trkpt>
      <trkpt lat="43.75645" lon="3.56307">
        <ele>303.225</ele>
        <time>2014-03-30T09:16:56Z</time>
      </trkpt>
      <trkpt lat="43.75649" lon="3.56298">
        <ele>301.815</ele>
        <time>2014-03-30T09:17:04Z</time>
      </trkpt>
      <trkpt lat="43.75651" lon="3.56293">
        <ele>303.095</ele>
        <time>2014-03-30T09:17:11Z</time>
      </trkpt>
      <trkpt lat="43.75652" lon="3.56287">
        <ele>301.754</ele>
        <time>2014-03-30T09:17:17Z</time>
      </trkpt>
      <trkpt lat="43.75653" lon="3.56281">
        <ele>300.074</ele>
        <time>2014-03-30T09:17:25Z</time>
      </trkpt>
      <trkpt lat="43.75653" lon="3.56272">
        <ele>303.364</ele>
        <time>2014-03-30T09:19:17Z</time>
      </trkpt>
      <trkpt lat="43.75654" lon="3.56272">
        <ele>303.254</ele>
        <time>2014-03-30T09:19:24Z</time>
      </trkpt>
      <trkpt lat="43.75653" lon="3.5627">
        <ele>300.704</ele>
        <time>2014-03-30T09:19:52Z</time>
      </trkpt>
      <trkpt lat="43.75654" lon="3.56267">
        <ele>296.264</ele>
        <time>2014-03-30T09:20:38Z</time>
      </trkpt>
      <trkpt lat="43.7565" lon="3.5626">
        <ele>296.695</ele>
        <time>2014-03-30T09:20:47Z</time>
      </trkpt>
      <trkpt lat="43.75645" lon="3.56258">
        <ele>298.465</ele>
        <time>2014-03-30T09:20:53Z</time>
      </trkpt>
      <trkpt lat="43.75644" lon="3.56257">
        <ele>298.405</ele>
        <time>2014-03-30T09:20:54Z</time>
      </trkpt>
      <trkpt lat="43.75635" lon="3.56252">
        <ele>300.634</ele>
        <time>2014-03-30T09:21:04Z</time>
      </trkpt>
      <trkpt lat="43.7563" lon="3.56244">
        <ele>302.084</ele>
        <time>2014-03-30T09:21:13Z</time>
      </trkpt>
      <trkpt lat="43.7563" lon="3.56243">
        <ele>302.144</ele>
        <time>2014-03-30T09:21:14Z</time>
      </trkpt>
      <trkpt lat="43.7563" lon="3.56233">
        <ele>303.185</ele>
        <time>2014-03-30T09:21:24Z</time>
      </trkpt>
      <trkpt lat="43.75633" lon="3.56231">
        <ele>304.935</ele>
        <time>2014-03-30T09:21:31Z</time>
      </trkpt>
      <trkpt lat="43.75636" lon="3.56231">
        <ele>305.565</ele>
        <time>2014-03-30T09:21:34Z</time>
      </trkpt>
      <trkpt lat="43.75643" lon="3.5623">
        <ele>307.915</ele>
        <time>2014-03-30T09:21:44Z</time>
      </trkpt>
      <trkpt lat="43.75644" lon="3.56229">
        <ele>308.395</ele>
        <time>2014-03-30T09:21:46Z</time>
      </trkpt>
      <trkpt lat="43.75646" lon="3.56227">
        <ele>308.145</ele>
        <time>2014-03-30T09:21:50Z</time>
      </trkpt>
      <trkpt lat="43.75652" lon="3.56226">
        <ele>310.225</ele>
        <time>2014-03-30T09:21:58Z</time>
      </trkpt>
      <trkpt lat="43.75658" lon="3.56227">
        <ele>312.305</ele>
        <time>2014-03-30T09:22:06Z</time>
      </trkpt>
      <trkpt lat="43.75665" lon="3.56226">
        <ele>314.4</ele>
        <time>2014-03-30T09:22:15Z</time>
      </trkpt>
      <trkpt lat="43.75671" lon="3.56223">
        <ele>315.345</ele>
        <time>2014-03-30T09:22:24Z</time>
      </trkpt>
      <trkpt lat="43.75671" lon="3.56222">
        <ele>315.055</ele>
        <time>2014-03-30T09:22:25Z</time>
      </trkpt>
      <trkpt lat="43.7567" lon="3.56212">
        <ele>314.315</ele>
        <time>2014-03-30T09:22:33Z</time>
      </trkpt>
      <trkpt lat="43.75669" lon="3.5621">
        <ele>314.855</ele>
        <time>2014-03-30T09:22:42Z</time>
      </trkpt>
      <trkpt lat="43.75669" lon="3.56208">
        <ele>314.945</ele>
        <time>2014-03-30T09:22:48Z</time>
      </trkpt>
      <trkpt lat="43.7567" lon="3.56208">
        <ele>315.395</ele>
        <time>2014-03-30T09:22:53Z</time>
      </trkpt>
      <trkpt lat="43.75671" lon="3.56207">
        <ele>315.014</ele>
        <time>2014-03-30T09:23:01Z</time>
      </trkpt>
      <trkpt lat="43.7567" lon="3.56206">
        <ele>313.145</ele>
        <time>2014-03-30T09:23:10Z</time>
      </trkpt>
      <trkpt lat="43.75669" lon="3.56208">
        <ele>313.356</ele>
        <time>2014-03-30T09:23:15Z</time>
      </trkpt>
      <trkpt lat="43.75669" lon="3.56211">
        <ele>313.575</ele>
        <time>2014-03-30T09:23:18Z</time>
      </trkpt>
      <trkpt lat="43.75671" lon="3.56216">
        <ele>315.025</ele>
        <time>2014-03-30T09:23:23Z</time>
      </trkpt>
      <trkpt lat="43.75677" lon="3.56216">
        <ele>316.706</ele>
        <time>2014-03-30T09:23:31Z</time>
      </trkpt>
      <trkpt lat="43.75682" lon="3.56216">
        <ele>317.845</ele>
        <time>2014-03-30T09:23:38Z</time>
      </trkpt>
      <trkpt lat="43.7569" lon="3.56215">
        <ele>319.555</ele>
        <time>2014-03-30T09:23:47Z</time>
      </trkpt>
      <trkpt lat="43.75698" lon="3.56217">
        <ele>321.005</ele>
        <time>2014-03-30T09:23:55Z</time>
      </trkpt>
      <trkpt lat="43.75705" lon="3.5622">
        <ele>322.725</ele>
        <time>2014-03-30T09:24:03Z</time>
      </trkpt>
      <trkpt lat="43.75712" lon="3.56225">
        <ele>324.526</ele>
        <time>2014-03-30T09:24:11Z</time>
      </trkpt>
      <trkpt lat="43.75713" lon="3.56226">
        <ele>324.976</ele>
        <time>2014-03-30T09:24:12Z</time>
      </trkpt>
      <trkpt lat="43.75716" lon="3.56232">
        <ele>326.666</ele>
        <time>2014-03-30T09:24:19Z</time>
      </trkpt>
      <trkpt lat="43.75717" lon="3.56241">
        <ele>328.716</ele>
        <time>2014-03-30T09:24:30Z</time>
      </trkpt>
      <trkpt lat="43.75716" lon="3.56245">
        <ele>329.516</ele>
        <time>2014-03-30T09:24:34Z</time>
      </trkpt>
      <trkpt lat="43.75715" lon="3.56253">
        <ele>331.757</ele>
        <time>2014-03-30T09:24:42Z</time>
      </trkpt>
      <trkpt lat="43.75716" lon="3.5626">
        <ele>332.877</ele>
        <time>2014-03-30T09:24:49Z</time>
      </trkpt>
      <trkpt lat="43.75717" lon="3.56264">
        <ele>333.877</ele>
        <time>2014-03-30T09:24:53Z</time>
      </trkpt>
      <trkpt lat="43.75719" lon="3.56268">
        <ele>334.337</ele>
        <time>2014-03-30T09:24:56Z</time>
      </trkpt>
      <trkpt lat="43.75722" lon="3.56278">
        <ele>335.256</ele>
        <time>2014-03-30T09:25:05Z</time>
      </trkpt>
      <trkpt lat="43.7573" lon="3.56283">
        <ele>328.578</ele>
        <time>2014-03-30T09:25:13Z</time>
      </trkpt>
      <trkpt lat="43.75734" lon="3.5628">
        <ele>326.525</ele>
        <time>2014-03-30T09:25:20Z</time>
      </trkpt>
      <trkpt lat="43.75736" lon="3.56278">
        <ele>327.075</ele>
        <time>2014-03-30T09:25:26Z</time>
      </trkpt>
      <trkpt lat="43.75737" lon="3.56276">
        <ele>327.155</ele>
        <time>2014-03-30T09:25:29Z</time>
      </trkpt>
      <trkpt lat="43.7574" lon="3.56272">
        <ele>326.254</ele>
        <time>2014-03-30T09:25:35Z</time>
      </trkpt>
      <trkpt lat="43.75743" lon="3.56269">
        <ele>326.355</ele>
        <time>2014-03-30T09:25:43Z</time>
      </trkpt>
      <trkpt lat="43.75746" lon="3.56266">
        <ele>326.365</ele>
        <time>2014-03-30T09:25:49Z</time>
      </trkpt>
      <trkpt lat="43.75746" lon="3.56266">
        <ele>326.445</ele>
        <time>2014-03-30T09:25:50Z</time>
      </trkpt>
      <trkpt lat="43.75753" lon="3.56267">
        <ele>326.855</ele>
        <time>2014-03-30T09:25:59Z</time>
      </trkpt>
      <trkpt lat="43.75757" lon="3.56269">
        <ele>327.875</ele>
        <time>2014-03-30T09:26:06Z</time>
      </trkpt>
      <trkpt lat="43.75761" lon="3.5627">
        <ele>327.915</ele>
        <time>2014-03-30T09:26:13Z</time>
      </trkpt>
      <trkpt lat="43.7577" lon="3.56272">
        <ele>327.525</ele>
        <time>2014-03-30T09:26:23Z</time>
      </trkpt>
      <trkpt lat="43.75775" lon="3.56271">
        <ele>326.915</ele>
        <time>2014-03-30T09:26:31Z</time>
      </trkpt>
      <trkpt lat="43.75776" lon="3.56271">
        <ele>326.734</ele>
        <time>2014-03-30T09:26:32Z</time>
      </trkpt>
      <trkpt lat="43.75784" lon="3.56268">
        <ele>327.195</ele>
        <time>2014-03-30T09:26:42Z</time>
      </trkpt>
      <trkpt lat="43.75791" lon="3.56263">
        <ele>328.535</ele>
        <time>2014-03-30T09:26:52Z</time>
      </trkpt>
      <trkpt lat="43.75796" lon="3.56259">
        <ele>329.325</ele>
        <time>2014-03-30T09:27:00Z</time>
      </trkpt>
      <trkpt lat="43.75799" lon="3.56254">
        <ele>330.975</ele>
        <time>2014-03-30T09:27:10Z</time>
      </trkpt>
      <trkpt lat="43.75803" lon="3.56251">
        <ele>331.856</ele>
        <time>2014-03-30T09:27:17Z</time>
      </trkpt>
      <trkpt lat="43.75806" lon="3.56247">
        <ele>332.276</ele>
        <time>2014-03-30T09:27:24Z</time>
      </trkpt>
      <trkpt lat="43.7581" lon="3.56241">
        <ele>333.096</ele>
        <time>2014-03-30T09:27:32Z</time>
      </trkpt>
      <trkpt lat="43.75814" lon="3.56234">
        <ele>333.025</ele>
        <time>2014-03-30T09:27:40Z</time>
      </trkpt>
      <trkpt lat="43.75817" lon="3.56226">
        <ele>332.745</ele>
        <time>2014-03-30T09:27:48Z</time>
      </trkpt>
      <trkpt lat="43.75821" lon="3.5622">
        <ele>333.985</ele>
        <time>2014-03-30T09:27:56Z</time>
      </trkpt>
      <trkpt lat="43.75823" lon="3.56216">
        <ele>334.595</ele>
        <time>2014-03-30T09:28:03Z</time>
      </trkpt>
      <trkpt lat="43.75828" lon="3.56209">
        <ele>335.045</ele>
        <time>2014-03-30T09:28:11Z</time>
      </trkpt>
      <trkpt lat="43.75832" lon="3.56204">
        <ele>335.855</ele>
        <time>2014-03-30T09:28:19Z</time>
      </trkpt>
      <trkpt lat="43.75836" lon="3.56198">
        <ele>336.455</ele>
        <time>2014-03-30T09:28:28Z</time>
      </trkpt>
      <trkpt lat="43.75839" lon="3.56194">
        <ele>337.476</ele>
        <time>2014-03-30T09:28:34Z</time>
      </trkpt>
      <trkpt lat="43.75839" lon="3.56193">
        <ele>337.696</ele>
        <time>2014-03-30T09:28:36Z</time>
      </trkpt>
      <trkpt lat="43.75842" lon="3.56185">
        <ele>337.295</ele>
        <time>2014-03-30T09:28:44Z</time>
      </trkpt>
      <trkpt lat="43.75844" lon="3.56178">
        <ele>337.775</ele>
        <time>2014-03-30T09:28:52Z</time>
      </trkpt>
      <trkpt lat="43.75848" lon="3.56174">
        <ele>339.726</ele>
        <time>2014-03-30T09:29:01Z</time>
      </trkpt>
      <trkpt lat="43.75853" lon="3.56175">
        <ele>341.246</ele>
        <time>2014-03-30T09:29:09Z</time>
      </trkpt>
      <trkpt lat="43.75858" lon="3.56178">
        <ele>342.316</ele>
        <time>2014-03-30T09:29:17Z</time>
      </trkpt>
      <trkpt lat="43.75863" lon="3.56184">
        <ele>344.736</ele>
        <time>2014-03-30T09:29:26Z</time>
      </trkpt>
      <trkpt lat="43.75867" lon="3.56189">
        <ele>345.415</ele>
        <time>2014-03-30T09:29:34Z</time>
      </trkpt>
      <trkpt lat="43.75873" lon="3.56193">
        <ele>347.246</ele>
        <time>2014-03-30T09:29:43Z</time>
      </trkpt>
      <trkpt lat="43.75879" lon="3.56196">
        <ele>347.645</ele>
        <time>2014-03-30T09:29:52Z</time>
      </trkpt>
      <trkpt lat="43.75885" lon="3.56198">
        <ele>348.045</ele>
        <time>2014-03-30T09:29:59Z</time>
      </trkpt>
      <trkpt lat="43.75891" lon="3.56198">
        <ele>346.905</ele>
        <time>2014-03-30T09:30:07Z</time>
      </trkpt>
      <trkpt lat="43.75895" lon="3.56196">
        <ele>347.226</ele>
        <time>2014-03-30T09:30:14Z</time>
      </trkpt>
      <trkpt lat="43.75899" lon="3.56191">
        <ele>348.525</ele>
        <time>2014-03-30T09:30:22Z</time>
      </trkpt>
      <trkpt lat="43.75901" lon="3.56187">
        <ele>349.765</ele>
        <time>2014-03-30T09:30:30Z</time>
      </trkpt>
      <trkpt lat="43.75902" lon="3.56182">
        <ele>350.045</ele>
        <time>2014-03-30T09:30:37Z</time>
      </trkpt>
      <trkpt lat="43.75905" lon="3.56176">
        <ele>350.135</ele>
        <time>2014-03-30T09:30:45Z</time>
      </trkpt>
      <trkpt lat="43.75906" lon="3.5617">
        <ele>350.225</ele>
        <time>2014-03-30T09:30:52Z</time>
      </trkpt>
      <trkpt lat="43.75909" lon="3.56164">
        <ele>351.245</ele>
        <time>2014-03-30T09:31:00Z</time>
      </trkpt>
      <trkpt lat="43.7591" lon="3.56161">
        <ele>352.185</ele>
        <time>2014-03-30T09:31:07Z</time>
      </trkpt>
      <trkpt lat="43.7591" lon="3.5616">
        <ele>352.605</ele>
        <time>2014-03-30T09:31:09Z</time>
      </trkpt>
      <trkpt lat="43.75912" lon="3.56157">
        <ele>352.915</ele>
        <time>2014-03-30T09:31:12Z</time>
      </trkpt>
      <trkpt lat="43.75913" lon="3.56152">
        <ele>353.145</ele>
        <time>2014-03-30T09:31:19Z</time>
      </trkpt>
      <trkpt lat="43.75916" lon="3.56146">
        <ele>354.295</ele>
        <time>2014-03-30T09:31:28Z</time>
      </trkpt>
      <trkpt lat="43.75919" lon="3.56137">
        <ele>354.075</ele>
        <time>2014-03-30T09:31:38Z</time>
      </trkpt>
      <trkpt lat="43.75922" lon="3.5613">
        <ele>354.895</ele>
        <time>2014-03-30T09:31:47Z</time>
      </trkpt>
      <trkpt lat="43.75926" lon="3.56122">
        <ele>355.595</ele>
        <time>2014-03-30T09:31:57Z</time>
      </trkpt>
      <trkpt lat="43.7593" lon="3.56115">
        <ele>358.665</ele>
        <time>2014-03-30T09:32:07Z</time>
      </trkpt>
      <trkpt lat="43.75934" lon="3.56109">
        <ele>360.315</ele>
        <time>2014-03-30T09:32:16Z</time>
      </trkpt>
      <trkpt lat="43.75937" lon="3.56101">
        <ele>361.076</ele>
        <time>2014-03-30T09:32:24Z</time>
      </trkpt>
      <trkpt lat="43.75941" lon="3.56093">
        <ele>362.105</ele>
        <time>2014-03-30T09:32:34Z</time>
      </trkpt>
      <trkpt lat="43.75943" lon="3.56087">
        <ele>362.875</ele>
        <time>2014-03-30T09:32:42Z</time>
      </trkpt>
      <trkpt lat="43.75948" lon="3.56078">
        <ele>362.875</ele>
        <time>2014-03-30T09:32:52Z</time>
      </trkpt>
      <trkpt lat="43.75949" lon="3.56072">
        <ele>361.705</ele>
        <time>2014-03-30T09:32:58Z</time>
      </trkpt>
      <trkpt lat="43.75952" lon="3.56067">
        <ele>362.295</ele>
        <time>2014-03-30T09:33:05Z</time>
      </trkpt>
      <trkpt lat="43.75954" lon="3.5606">
        <ele>362.335</ele>
        <time>2014-03-30T09:33:13Z</time>
      </trkpt>
      <trkpt lat="43.75957" lon="3.56054">
        <ele>362.775</ele>
        <time>2014-03-30T09:33:20Z</time>
      </trkpt>
      <trkpt lat="43.7596" lon="3.5605">
        <ele>363.295</ele>
        <time>2014-03-30T09:33:27Z</time>
      </trkpt>
      <trkpt lat="43.75962" lon="3.56045">
        <ele>363.895</ele>
        <time>2014-03-30T09:33:37Z</time>
      </trkpt>
      <trkpt lat="43.75967" lon="3.56039">
        <ele>365.695</ele>
        <time>2014-03-30T09:33:45Z</time>
      </trkpt>
      <trkpt lat="43.75972" lon="3.5603">
        <ele>367.205</ele>
        <time>2014-03-30T09:33:54Z</time>
      </trkpt>
      <trkpt lat="43.75975" lon="3.56024">
        <ele>366.925</ele>
        <time>2014-03-30T09:33:59Z</time>
      </trkpt>
      <trkpt lat="43.75978" lon="3.56021">
        <ele>368.055</ele>
        <time>2014-03-30T09:34:03Z</time>
      </trkpt>
      <trkpt lat="43.75981" lon="3.56015">
        <ele>370.546</ele>
        <time>2014-03-30T09:34:12Z</time>
      </trkpt>
      <trkpt lat="43.75981" lon="3.56014">
        <ele>371.165</ele>
        <time>2014-03-30T09:34:22Z</time>
      </trkpt>
      <trkpt lat="43.75985" lon="3.56006">
        <ele>367.155</ele>
        <time>2014-03-30T09:34:33Z</time>
      </trkpt>
      <trkpt lat="43.75986" lon="3.56003">
        <ele>367.775</ele>
        <time>2014-03-30T09:34:40Z</time>
      </trkpt>
      <trkpt lat="43.75987" lon="3.56001">
        <ele>368.745</ele>
        <time>2014-03-30T09:34:48Z</time>
      </trkpt>
      <trkpt lat="43.75988" lon="3.55993">
        <ele>366.815</ele>
        <time>2014-03-30T09:34:55Z</time>
      </trkpt>
      <trkpt lat="43.75989" lon="3.55986">
        <ele>366.205</ele>
        <time>2014-03-30T09:35:02Z</time>
      </trkpt>
      <trkpt lat="43.7599" lon="3.5598">
        <ele>366.165</ele>
        <time>2014-03-30T09:35:10Z</time>
      </trkpt>
      <trkpt lat="43.75991" lon="3.55973">
        <ele>366.875</ele>
        <time>2014-03-30T09:35:21Z</time>
      </trkpt>
      <trkpt lat="43.75993" lon="3.55964">
        <ele>367.965</ele>
        <time>2014-03-30T09:35:29Z</time>
      </trkpt>
      <trkpt lat="43.75995" lon="3.55954">
        <ele>369.235</ele>
        <time>2014-03-30T09:35:39Z</time>
      </trkpt>
      <trkpt lat="43.75998" lon="3.55946">
        <ele>371.116</ele>
        <time>2014-03-30T09:35:48Z</time>
      </trkpt>
      <trkpt lat="43.76" lon="3.55938">
        <ele>372.275</ele>
        <time>2014-03-30T09:35:56Z</time>
      </trkpt>
      <trkpt lat="43.76002" lon="3.5593">
        <ele>373.535</ele>
        <time>2014-03-30T09:36:05Z</time>
      </trkpt>
      <trkpt lat="43.76003" lon="3.55922">
        <ele>374.005</ele>
        <time>2014-03-30T09:36:13Z</time>
      </trkpt>
      <trkpt lat="43.76005" lon="3.55914">
        <ele>375.526</ele>
        <time>2014-03-30T09:36:22Z</time>
      </trkpt>
      <trkpt lat="43.76007" lon="3.55907">
        <ele>377.466</ele>
        <time>2014-03-30T09:36:31Z</time>
      </trkpt>
      <trkpt lat="43.76009" lon="3.55903">
        <ele>380.186</ele>
        <time>2014-03-30T09:36:38Z</time>
      </trkpt>
      <trkpt lat="43.76011" lon="3.55897">
        <ele>380.855</ele>
        <time>2014-03-30T09:36:46Z</time>
      </trkpt>
      <trkpt lat="43.76013" lon="3.5589">
        <ele>381.935</ele>
        <time>2014-03-30T09:36:54Z</time>
      </trkpt>
      <trkpt lat="43.76015" lon="3.5588">
        <ele>382.865</ele>
        <time>2014-03-30T09:37:04Z</time>
      </trkpt>
      <trkpt lat="43.76016" lon="3.55872">
        <ele>384.256</ele>
        <time>2014-03-30T09:37:13Z</time>
      </trkpt>
      <trkpt lat="43.76017" lon="3.5587">
        <ele>384.055</ele>
        <time>2014-03-30T09:37:15Z</time>
      </trkpt>
      <trkpt lat="43.7602" lon="3.5586">
        <ele>382.985</ele>
        <time>2014-03-30T09:37:24Z</time>
      </trkpt>
      <trkpt lat="43.76022" lon="3.55852">
        <ele>383.035</ele>
        <time>2014-03-30T09:37:32Z</time>
      </trkpt>
      <trkpt lat="43.76025" lon="3.55843">
        <ele>385.676</ele>
        <time>2014-03-30T09:37:42Z</time>
      </trkpt>
      <trkpt lat="43.76026" lon="3.55837">
        <ele>386.615</ele>
        <time>2014-03-30T09:37:49Z</time>
      </trkpt>
      <trkpt lat="43.76027" lon="3.55827">
        <ele>387.455</ele>
        <time>2014-03-30T09:37:59Z</time>
      </trkpt>
      <trkpt lat="43.76028" lon="3.55818">
        <ele>388.335</ele>
        <time>2014-03-30T09:38:08Z</time>
      </trkpt>
      <trkpt lat="43.7603" lon="3.55812">
        <ele>389.375</ele>
        <time>2014-03-30T09:38:15Z</time>
      </trkpt>
      <trkpt lat="43.76031" lon="3.55805">
        <ele>390.565</ele>
        <time>2014-03-30T09:38:23Z</time>
      </trkpt>
      <trkpt lat="43.76034" lon="3.55795">
        <ele>390.795</ele>
        <time>2014-03-30T09:38:32Z</time>
      </trkpt>
      <trkpt lat="43.76036" lon="3.55786">
        <ele>391.985</ele>
        <time>2014-03-30T09:38:41Z</time>
      </trkpt>
      <trkpt lat="43.76038" lon="3.55771">
        <ele>393.245</ele>
        <time>2014-03-30T09:38:54Z</time>
      </trkpt>
      <trkpt lat="43.76039" lon="3.55761">
        <ele>394.105</ele>
        <time>2014-03-30T09:39:03Z</time>
      </trkpt>
      <trkpt lat="43.76041" lon="3.5575">
        <ele>396.845</ele>
        <time>2014-03-30T09:39:13Z</time>
      </trkpt>
      <trkpt lat="43.7604" lon="3.55744">
        <ele>397.805</ele>
        <time>2014-03-30T09:39:20Z</time>
      </trkpt>
      <trkpt lat="43.76039" lon="3.5574">
        <ele>398.505</ele>
        <time>2014-03-30T09:39:25Z</time>
      </trkpt>
      <trkpt lat="43.76038" lon="3.5573">
        <ele>399.645</ele>
        <time>2014-03-30T09:39:35Z</time>
      </trkpt>
      <trkpt lat="43.76037" lon="3.55727">
        <ele>399.885</ele>
        <time>2014-03-30T09:39:38Z</time>
      </trkpt>
      <trkpt lat="43.76036" lon="3.55717">
        <ele>401.195</ele>
        <time>2014-03-30T09:39:48Z</time>
      </trkpt>
      <trkpt lat="43.76034" lon="3.55708">
        <ele>402.685</ele>
        <time>2014-03-30T09:39:57Z</time>
      </trkpt>
      <trkpt lat="43.76032" lon="3.55706">
        <ele>402.324</ele>
        <time>2014-03-30T09:40:03Z</time>
      </trkpt>
      <trkpt lat="43.76031" lon="3.55715">
        <ele>408.984</ele>
        <time>2014-03-30T09:40:55Z</time>
      </trkpt>
      <trkpt lat="43.7603" lon="3.55708">
        <ele>405.024</ele>
        <time>2014-03-30T09:41:07Z</time>
      </trkpt>
      <trkpt lat="43.76029" lon="3.55703">
        <ele>402.544</ele>
        <time>2014-03-30T09:41:23Z</time>
      </trkpt>
      <trkpt lat="43.76031" lon="3.55701">
        <ele>404.574</ele>
        <time>2014-03-30T09:41:29Z</time>
      </trkpt>
      <trkpt lat="43.76033" lon="3.557">
        <ele>407.284</ele>
        <time>2014-03-30T09:41:50Z</time>
      </trkpt>
      <trkpt lat="43.7603" lon="3.55696">
        <ele>408.925</ele>
        <time>2014-03-30T09:45:48Z</time>
      </trkpt>
      <trkpt lat="43.7603" lon="3.55687">
        <ele>409.925</ele>
        <time>2014-03-30T09:45:58Z</time>
      </trkpt>
      <trkpt lat="43.7603" lon="3.55679">
        <ele>411.055</ele>
        <time>2014-03-30T09:46:07Z</time>
      </trkpt>
      <trkpt lat="43.76031" lon="3.55668">
        <ele>410.485</ele>
        <time>2014-03-30T09:46:17Z</time>
      </trkpt>
      <trkpt lat="43.76034" lon="3.55659">
        <ele>413.295</ele>
        <time>2014-03-30T09:46:26Z</time>
      </trkpt>
      <trkpt lat="43.76036" lon="3.5565">
        <ele>415.095</ele>
        <time>2014-03-30T09:46:35Z</time>
      </trkpt>
      <trkpt lat="43.76037" lon="3.55642">
        <ele>414.955</ele>
        <time>2014-03-30T09:46:43Z</time>
      </trkpt>
      <trkpt lat="43.76041" lon="3.55634">
        <ele>415.795</ele>
        <time>2014-03-30T09:46:52Z</time>
      </trkpt>
      <trkpt lat="43.76043" lon="3.55631">
        <ele>416.425</ele>
        <time>2014-03-30T09:46:57Z</time>
      </trkpt>
      <trkpt lat="43.76049" lon="3.55625">
        <ele>418.065</ele>
        <time>2014-03-30T09:47:07Z</time>
      </trkpt>
      <trkpt lat="43.76053" lon="3.55619">
        <ele>417.925</ele>
        <time>2014-03-30T09:47:14Z</time>
      </trkpt>
      <trkpt lat="43.76056" lon="3.5561">
        <ele>418.625</ele>
        <time>2014-03-30T09:47:23Z</time>
      </trkpt>
      <trkpt lat="43.76059" lon="3.55603">
        <ele>419.395</ele>
        <time>2014-03-30T09:47:32Z</time>
      </trkpt>
      <trkpt lat="43.76065" lon="3.55595">
        <ele>420.395</ele>
        <time>2014-03-30T09:47:42Z</time>
      </trkpt>
      <trkpt lat="43.76072" lon="3.5559">
        <ele>422.055</ele>
        <time>2014-03-30T09:47:52Z</time>
      </trkpt>
      <trkpt lat="43.7608" lon="3.55586">
        <ele>422.995</ele>
        <time>2014-03-30T09:48:02Z</time>
      </trkpt>
      <trkpt lat="43.76086" lon="3.55582">
        <ele>423.665</ele>
        <time>2014-03-30T09:48:11Z</time>
      </trkpt>
      <trkpt lat="43.76094" lon="3.55576">
        <ele>424.114</ele>
        <time>2014-03-30T09:48:21Z</time>
      </trkpt>
      <trkpt lat="43.76101" lon="3.55569">
        <ele>424.925</ele>
        <time>2014-03-30T09:48:31Z</time>
      </trkpt>
      <trkpt lat="43.76108" lon="3.55562">
        <ele>425.345</ele>
        <time>2014-03-30T09:48:40Z</time>
      </trkpt>
      <trkpt lat="43.76112" lon="3.55557">
        <ele>426.245</ele>
        <time>2014-03-30T09:48:47Z</time>
      </trkpt>
      <trkpt lat="43.76118" lon="3.55553">
        <ele>428.365</ele>
        <time>2014-03-30T09:48:56Z</time>
      </trkpt>
      <trkpt lat="43.76124" lon="3.55549">
        <ele>429.835</ele>
        <time>2014-03-30T09:49:05Z</time>
      </trkpt>
      <trkpt lat="43.76131" lon="3.55548">
        <ele>430.815</ele>
        <time>2014-03-30T09:49:14Z</time>
      </trkpt>
      <trkpt lat="43.76136" lon="3.55547">
        <ele>431.395</ele>
        <time>2014-03-30T09:49:22Z</time>
      </trkpt>
      <trkpt lat="43.76139" lon="3.55548">
        <ele>431.845</ele>
        <time>2014-03-30T09:49:28Z</time>
      </trkpt>
      <trkpt lat="43.76141" lon="3.55549">
        <ele>432.275</ele>
        <time>2014-03-30T09:49:33Z</time>
      </trkpt>
      <trkpt lat="43.76147" lon="3.55548">
        <ele>433.535</ele>
        <time>2014-03-30T09:49:41Z</time>
      </trkpt>
      <trkpt lat="43.76147" lon="3.55547">
        <ele>433.795</ele>
        <time>2014-03-30T09:49:42Z</time>
      </trkpt>
      <trkpt lat="43.7615" lon="3.55535">
        <ele>432.765</ele>
        <time>2014-03-30T09:49:50Z</time>
      </trkpt>
      <trkpt lat="43.76153" lon="3.55526">
        <ele>433.145</ele>
        <time>2014-03-30T09:49:59Z</time>
      </trkpt>
      <trkpt lat="43.76156" lon="3.55519">
        <ele>435.185</ele>
        <time>2014-03-30T09:50:08Z</time>
      </trkpt>
      <trkpt lat="43.76158" lon="3.55515">
        <ele>436.796</ele>
        <time>2014-03-30T09:50:14Z</time>
      </trkpt>
      <trkpt lat="43.76162" lon="3.5551">
        <ele>439.535</ele>
        <time>2014-03-30T09:50:23Z</time>
      </trkpt>
      <trkpt lat="43.76166" lon="3.55507">
        <ele>441.575</ele>
        <time>2014-03-30T09:50:31Z</time>
      </trkpt>
      <trkpt lat="43.76167" lon="3.55506">
        <ele>441.775</ele>
        <time>2014-03-30T09:50:33Z</time>
      </trkpt>
      <trkpt lat="43.76172" lon="3.55502">
        <ele>442.885</ele>
        <time>2014-03-30T09:50:42Z</time>
      </trkpt>
      <trkpt lat="43.76175" lon="3.55501">
        <ele>443.325</ele>
        <time>2014-03-30T09:50:46Z</time>
      </trkpt>
      <trkpt lat="43.76177" lon="3.55501">
        <ele>443.455</ele>
        <time>2014-03-30T09:50:48Z</time>
      </trkpt>
      <trkpt lat="43.76182" lon="3.55495">
        <ele>444.105</ele>
        <time>2014-03-30T09:50:56Z</time>
      </trkpt>
      <trkpt lat="43.76185" lon="3.55489">
        <ele>444.955</ele>
        <time>2014-03-30T09:51:03Z</time>
      </trkpt>
      <trkpt lat="43.76187" lon="3.55485">
        <ele>446.295</ele>
        <time>2014-03-30T09:51:10Z</time>
      </trkpt>
      <trkpt lat="43.7619" lon="3.55479">
        <ele>448.075</ele>
        <time>2014-03-30T09:51:19Z</time>
      </trkpt>
      <trkpt lat="43.76194" lon="3.55474">
        <ele>449.735</ele>
        <time>2014-03-30T09:51:26Z</time>
      </trkpt>
      <trkpt lat="43.76198" lon="3.55468">
        <ele>451.275</ele>
        <time>2014-03-30T09:51:36Z</time>
      </trkpt>
      <trkpt lat="43.76204" lon="3.55465">
        <ele>452.805</ele>
        <time>2014-03-30T09:51:45Z</time>
      </trkpt>
      <trkpt lat="43.76209" lon="3.55462">
        <ele>453.715</ele>
        <time>2014-03-30T09:51:53Z</time>
      </trkpt>
      <trkpt lat="43.76214" lon="3.55458">
        <ele>454.945</ele>
        <time>2014-03-30T09:52:01Z</time>
      </trkpt>
      <trkpt lat="43.76218" lon="3.55454">
        <ele>456.235</ele>
        <time>2014-03-30T09:52:09Z</time>
      </trkpt>
      <trkpt lat="43.76222" lon="3.5545">
        <ele>457.306</ele>
        <time>2014-03-30T09:52:17Z</time>
      </trkpt>
      <trkpt lat="43.76226" lon="3.55445">
        <ele>457.745</ele>
        <time>2014-03-30T09:52:24Z</time>
      </trkpt>
      <trkpt lat="43.76231" lon="3.55442">
        <ele>459.256</ele>
        <time>2014-03-30T09:52:32Z</time>
      </trkpt>
      <trkpt lat="43.76238" lon="3.5544">
        <ele>460.135</ele>
        <time>2014-03-30T09:52:40Z</time>
      </trkpt>
      <trkpt lat="43.76242" lon="3.55439">
        <ele>460.655</ele>
        <time>2014-03-30T09:52:46Z</time>
      </trkpt>
      <trkpt lat="43.76252" lon="3.55433">
        <ele>458.525</ele>
        <time>2014-03-30T09:52:56Z</time>
      </trkpt>
      <trkpt lat="43.76257" lon="3.55433">
        <ele>459.195</ele>
        <time>2014-03-30T09:53:02Z</time>
      </trkpt>
      <trkpt lat="43.76262" lon="3.55431">
        <ele>460.645</ele>
        <time>2014-03-30T09:53:10Z</time>
      </trkpt>
      <trkpt lat="43.76262" lon="3.5543">
        <ele>460.765</ele>
        <time>2014-03-30T09:53:11Z</time>
      </trkpt>
      <trkpt lat="43.76266" lon="3.55423">
        <ele>462.545</ele>
        <time>2014-03-30T09:53:20Z</time>
      </trkpt>
      <trkpt lat="43.7627" lon="3.55417">
        <ele>464.925</ele>
        <time>2014-03-30T09:53:29Z</time>
      </trkpt>
      <trkpt lat="43.76274" lon="3.55411">
        <ele>467.295</ele>
        <time>2014-03-30T09:53:39Z</time>
      </trkpt>
      <trkpt lat="43.76278" lon="3.55408">
        <ele>468.355</ele>
        <time>2014-03-30T09:53:46Z</time>
      </trkpt>
      <trkpt lat="43.76281" lon="3.55404">
        <ele>469.495</ele>
        <time>2014-03-30T09:53:54Z</time>
      </trkpt>
      <trkpt lat="43.76283" lon="3.55404">
        <ele>471.185</ele>
        <time>2014-03-30T09:53:59Z</time>
      </trkpt>
      <trkpt lat="43.76286" lon="3.55403">
        <ele>473.536</ele>
        <time>2014-03-30T09:54:05Z</time>
      </trkpt>
      <trkpt lat="43.76292" lon="3.554">
        <ele>474.485</ele>
        <time>2014-03-30T09:54:13Z</time>
      </trkpt>
      <trkpt lat="43.763" lon="3.55399">
        <ele>475.455</ele>
        <time>2014-03-30T09:54:22Z</time>
      </trkpt>
      <trkpt lat="43.76307" lon="3.55399">
        <ele>476.876</ele>
        <time>2014-03-30T09:54:30Z</time>
      </trkpt>
      <trkpt lat="43.7631" lon="3.55399">
        <ele>477.185</ele>
        <time>2014-03-30T09:54:34Z</time>
      </trkpt>
      <trkpt lat="43.76318" lon="3.55401">
        <ele>478.396</ele>
        <time>2014-03-30T09:54:44Z</time>
      </trkpt>
      <trkpt lat="43.76322" lon="3.55404">
        <ele>478.975</ele>
        <time>2014-03-30T09:54:50Z</time>
      </trkpt>
      <trkpt lat="43.76325" lon="3.55408">
        <ele>480.216</ele>
        <time>2014-03-30T09:54:55Z</time>
      </trkpt>
      <trkpt lat="43.76326" lon="3.55413">
        <ele>482.026</ele>
        <time>2014-03-30T09:55:00Z</time>
      </trkpt>
      <trkpt lat="43.76329" lon="3.55421">
        <ele>482.955</ele>
        <time>2014-03-30T09:55:09Z</time>
      </trkpt>
      <trkpt lat="43.76332" lon="3.55422">
        <ele>481.895</ele>
        <time>2014-03-30T09:55:15Z</time>
      </trkpt>
      <trkpt lat="43.76334" lon="3.55423">
        <ele>481.425</ele>
        <time>2014-03-30T09:55:19Z</time>
      </trkpt>
      <trkpt lat="43.76343" lon="3.5542">
        <ele>481.365</ele>
        <time>2014-03-30T09:55:29Z</time>
      </trkpt>
      <trkpt lat="43.76349" lon="3.5542">
        <ele>481.895</ele>
        <time>2014-03-30T09:55:37Z</time>
      </trkpt>
      <trkpt lat="43.76354" lon="3.55422">
        <ele>483.865</ele>
        <time>2014-03-30T09:55:45Z</time>
      </trkpt>
      <trkpt lat="43.76361" lon="3.55425">
        <ele>484.165</ele>
        <time>2014-03-30T09:55:54Z</time>
      </trkpt>
      <trkpt lat="43.76366" lon="3.55425">
        <ele>484.945</ele>
        <time>2014-03-30T09:56:02Z</time>
      </trkpt>
      <trkpt lat="43.76372" lon="3.55426">
        <ele>485.175</ele>
        <time>2014-03-30T09:56:11Z</time>
      </trkpt>
      <trkpt lat="43.76377" lon="3.55427">
        <ele>485.555</ele>
        <time>2014-03-30T09:56:19Z</time>
      </trkpt>
      <trkpt lat="43.76382" lon="3.55428">
        <ele>486.805</ele>
        <time>2014-03-30T09:56:27Z</time>
      </trkpt>
      <trkpt lat="43.76387" lon="3.55431">
        <ele>488.115</ele>
        <time>2014-03-30T09:56:36Z</time>
      </trkpt>
      <trkpt lat="43.7639" lon="3.55433">
        <ele>488.556</ele>
        <time>2014-03-30T09:56:42Z</time>
      </trkpt>
      <trkpt lat="43.76393" lon="3.55433">
        <ele>489.156</ele>
        <time>2014-03-30T09:56:48Z</time>
      </trkpt>
      <trkpt lat="43.76398" lon="3.55436">
        <ele>491.066</ele>
        <time>2014-03-30T09:56:56Z</time>
      </trkpt>
      <trkpt lat="43.76397" lon="3.55434">
        <ele>490.335</ele>
        <time>2014-03-30T09:57:02Z</time>
      </trkpt>
      <trkpt lat="43.76393" lon="3.55433">
        <ele>493.535</ele>
        <time>2014-03-30T09:57:08Z</time>
      </trkpt>
      <trkpt lat="43.76389" lon="3.5543">
        <ele>494.315</ele>
        <time>2014-03-30T09:57:16Z</time>
      </trkpt>
      <trkpt lat="43.76386" lon="3.55427">
        <ele>494.925</ele>
        <time>2014-03-30T09:57:22Z</time>
      </trkpt>
      <trkpt lat="43.76384" lon="3.55425">
        <ele>496.286</ele>
        <time>2014-03-30T09:57:28Z</time>
      </trkpt>
      <trkpt lat="43.76381" lon="3.55422">
        <ele>497.546</ele>
        <time>2014-03-30T09:57:36Z</time>
      </trkpt>
      <trkpt lat="43.76377" lon="3.5542">
        <ele>499.917</ele>
        <time>2014-03-30T09:57:45Z</time>
      </trkpt>
      <trkpt lat="43.76372" lon="3.55416">
        <ele>500.346</ele>
        <time>2014-03-30T09:57:54Z</time>
      </trkpt>
      <trkpt lat="43.76368" lon="3.55414">
        <ele>499.916</ele>
        <time>2014-03-30T09:57:59Z</time>
      </trkpt>
      <trkpt lat="43.76363" lon="3.55409">
        <ele>501.896</ele>
        <time>2014-03-30T09:58:08Z</time>
      </trkpt>
      <trkpt lat="43.76358" lon="3.55405">
        <ele>504.046</ele>
        <time>2014-03-30T09:58:17Z</time>
      </trkpt>
      <trkpt lat="43.76354" lon="3.55402">
        <ele>503.776</ele>
        <time>2014-03-30T09:58:24Z</time>
      </trkpt>
      <trkpt lat="43.76353" lon="3.55393">
        <ele>500.905</ele>
        <time>2014-03-30T09:58:30Z</time>
      </trkpt>
      <trkpt lat="43.76347" lon="3.55384">
        <ele>499.475</ele>
        <time>2014-03-30T09:58:41Z</time>
      </trkpt>
      <trkpt lat="43.76347" lon="3.55381">
        <ele>499.505</ele>
        <time>2014-03-30T09:58:47Z</time>
      </trkpt>
      <trkpt lat="43.76349" lon="3.55379">
        <ele>499.345</ele>
        <time>2014-03-30T09:58:54Z</time>
      </trkpt>
      <trkpt lat="43.7635" lon="3.55379">
        <ele>499.275</ele>
        <time>2014-03-30T09:58:56Z</time>
      </trkpt>
      <trkpt lat="43.76355" lon="3.5538">
        <ele>499.545</ele>
        <time>2014-03-30T09:59:04Z</time>
      </trkpt>
      <trkpt lat="43.76361" lon="3.55381">
        <ele>500.735</ele>
        <time>2014-03-30T09:59:13Z</time>
      </trkpt>
      <trkpt lat="43.76367" lon="3.55383">
        <ele>501.895</ele>
        <time>2014-03-30T09:59:23Z</time>
      </trkpt>
      <trkpt lat="43.76372" lon="3.55384">
        <ele>503.055</ele>
        <time>2014-03-30T09:59:32Z</time>
      </trkpt>
      <trkpt lat="43.76376" lon="3.55386">
        <ele>504.475</ele>
        <time>2014-03-30T09:59:40Z</time>
      </trkpt>
      <trkpt lat="43.7638" lon="3.55387">
        <ele>504.305</ele>
        <time>2014-03-30T09:59:48Z</time>
      </trkpt>
      <trkpt lat="43.76384" lon="3.55389">
        <ele>504.975</ele>
        <time>2014-03-30T09:59:55Z</time>
      </trkpt>
      <trkpt lat="43.76389" lon="3.5539">
        <ele>505.025</ele>
        <time>2014-03-30T10:00:02Z</time>
      </trkpt>
      <trkpt lat="43.76394" lon="3.55393">
        <ele>505.836</ele>
        <time>2014-03-30T10:00:09Z</time>
      </trkpt>
      <trkpt lat="43.76398" lon="3.55395">
        <ele>507.186</ele>
        <time>2014-03-30T10:00:15Z</time>
      </trkpt>
      <trkpt lat="43.76404" lon="3.55399">
        <ele>509.026</ele>
        <time>2014-03-30T10:00:25Z</time>
      </trkpt>
      <trkpt lat="43.76408" lon="3.55402">
        <ele>509.976</ele>
        <time>2014-03-30T10:00:32Z</time>
      </trkpt>
      <trkpt lat="43.76415" lon="3.55406">
        <ele>509.546</ele>
        <time>2014-03-30T10:00:41Z</time>
      </trkpt>
      <trkpt lat="43.76421" lon="3.55412">
        <ele>510.306</ele>
        <time>2014-03-30T10:00:52Z</time>
      </trkpt>
      <trkpt lat="43.76424" lon="3.5542">
        <ele>510.746</ele>
        <time>2014-03-30T10:01:00Z</time>
      </trkpt>
      <trkpt lat="43.76424" lon="3.55423">
        <ele>511.026</ele>
        <time>2014-03-30T10:01:02Z</time>
      </trkpt>
      <trkpt lat="43.76425" lon="3.55431">
        <ele>512.256</ele>
        <time>2014-03-30T10:01:10Z</time>
      </trkpt>
      <trkpt lat="43.76426" lon="3.55438">
        <ele>510.078</ele>
        <time>2014-03-30T10:01:15Z</time>
      </trkpt>
      <trkpt lat="43.76424" lon="3.55448">
        <ele>511.256</ele>
        <time>2014-03-30T10:01:24Z</time>
      </trkpt>
      <trkpt lat="43.76423" lon="3.55454">
        <ele>513.556</ele>
        <time>2014-03-30T10:01:33Z</time>
      </trkpt>
      <trkpt lat="43.76422" lon="3.55455">
        <ele>514.795</ele>
        <time>2014-03-30T10:01:40Z</time>
      </trkpt>
      <trkpt lat="43.76423" lon="3.55459">
        <ele>512.765</ele>
        <time>2014-03-30T10:02:30Z</time>
      </trkpt>
      <trkpt lat="43.76423" lon="3.55459">
        <ele>512.485</ele>
        <time>2014-03-30T10:02:33Z</time>
      </trkpt>
      <trkpt lat="43.76425" lon="3.55459">
        <ele>509.354</ele>
        <time>2014-03-30T10:02:40Z</time>
      </trkpt>
      <trkpt lat="43.76424" lon="3.55466">
        <ele>489.506</ele>
        <time>2014-03-30T10:03:30Z</time>
      </trkpt>
      <trkpt lat="43.76423" lon="3.55464">
        <ele>496.096</ele>
        <time>2014-03-30T10:03:37Z</time>
      </trkpt>
      <trkpt lat="43.7642" lon="3.55466">
        <ele>501.876</ele>
        <time>2014-03-30T10:03:44Z</time>
      </trkpt>
      <trkpt lat="43.76422" lon="3.55464">
        <ele>511.095</ele>
        <time>2014-03-30T10:05:03Z</time>
      </trkpt>
      <trkpt lat="43.76428" lon="3.55463">
        <ele>504.485</ele>
        <time>2014-03-30T10:07:36Z</time>
      </trkpt>
      <trkpt lat="43.76431" lon="3.55463">
        <ele>505.605</ele>
        <time>2014-03-30T10:07:42Z</time>
      </trkpt>
      <trkpt lat="43.76435" lon="3.55464">
        <ele>506.745</ele>
        <time>2014-03-30T10:07:50Z</time>
      </trkpt>
      <trkpt lat="43.7644" lon="3.55465">
        <ele>508.016</ele>
        <time>2014-03-30T10:07:57Z</time>
      </trkpt>
      <trkpt lat="43.76448" lon="3.55462">
        <ele>509.406</ele>
        <time>2014-03-30T10:08:08Z</time>
      </trkpt>
      <trkpt lat="43.7645" lon="3.55461">
        <ele>510.455</ele>
        <time>2014-03-30T10:08:16Z</time>
      </trkpt>
      <trkpt lat="43.76455" lon="3.55459">
        <ele>511.856</ele>
        <time>2014-03-30T10:08:28Z</time>
      </trkpt>
      <trkpt lat="43.76461" lon="3.55457">
        <ele>514.776</ele>
        <time>2014-03-30T10:08:39Z</time>
      </trkpt>
      <trkpt lat="43.76463" lon="3.55457">
        <ele>516.446</ele>
        <time>2014-03-30T10:08:45Z</time>
      </trkpt>
      <trkpt lat="43.76467" lon="3.55454">
        <ele>517.477</ele>
        <time>2014-03-30T10:08:51Z</time>
      </trkpt>
      <trkpt lat="43.76471" lon="3.55453">
        <ele>521.386</ele>
        <time>2014-03-30T10:08:58Z</time>
      </trkpt>
      <trkpt lat="43.76475" lon="3.5545">
        <ele>521.646</ele>
        <time>2014-03-30T10:09:05Z</time>
      </trkpt>
      <trkpt lat="43.76481" lon="3.55446">
        <ele>521.175</ele>
        <time>2014-03-30T10:09:13Z</time>
      </trkpt>
      <trkpt lat="43.76485" lon="3.55446">
        <ele>523.686</ele>
        <time>2014-03-30T10:09:21Z</time>
      </trkpt>
      <trkpt lat="43.7649" lon="3.55444">
        <ele>523.985</ele>
        <time>2014-03-30T10:09:28Z</time>
      </trkpt>
      <trkpt lat="43.76494" lon="3.55443">
        <ele>523.806</ele>
        <time>2014-03-30T10:09:32Z</time>
      </trkpt>
      <trkpt lat="43.76499" lon="3.5544">
        <ele>522.885</ele>
        <time>2014-03-30T10:09:38Z</time>
      </trkpt>
      <trkpt lat="43.76506" lon="3.55436">
        <ele>522.295</ele>
        <time>2014-03-30T10:09:44Z</time>
      </trkpt>
      <trkpt lat="43.76514" lon="3.55435">
        <ele>522.896</ele>
        <time>2014-03-30T10:09:53Z</time>
      </trkpt>
      <trkpt lat="43.7652" lon="3.55434">
        <ele>524.096</ele>
        <time>2014-03-30T10:10:01Z</time>
      </trkpt>
      <trkpt lat="43.76526" lon="3.55433">
        <ele>524.476</ele>
        <time>2014-03-30T10:10:08Z</time>
      </trkpt>
      <trkpt lat="43.76532" lon="3.55435">
        <ele>525.636</ele>
        <time>2014-03-30T10:10:16Z</time>
      </trkpt>
      <trkpt lat="43.76535" lon="3.55439">
        <ele>526.326</ele>
        <time>2014-03-30T10:10:24Z</time>
      </trkpt>
      <trkpt lat="43.76538" lon="3.55442">
        <ele>526.635</ele>
        <time>2014-03-30T10:10:43Z</time>
      </trkpt>
      <trkpt lat="43.76538" lon="3.55442">
        <ele>526.635</ele>
        <time>2014-03-30T10:10:49Z</time>
      </trkpt>
      <trkpt lat="43.76541" lon="3.55445">
        <ele>526.776</ele>
        <time>2014-03-30T10:10:57Z</time>
      </trkpt>
      <trkpt lat="43.76549" lon="3.55451">
        <ele>528.036</ele>
        <time>2014-03-30T10:11:07Z</time>
      </trkpt>
      <trkpt lat="43.76554" lon="3.55455">
        <ele>528.936</ele>
        <time>2014-03-30T10:11:14Z</time>
      </trkpt>
      <trkpt lat="43.7656" lon="3.55459">
        <ele>529.716</ele>
        <time>2014-03-30T10:11:22Z</time>
      </trkpt>
      <trkpt lat="43.76566" lon="3.55463">
        <ele>530.606</ele>
        <time>2014-03-30T10:11:30Z</time>
      </trkpt>
      <trkpt lat="43.76572" lon="3.55468">
        <ele>531.596</ele>
        <time>2014-03-30T10:11:38Z</time>
      </trkpt>
      <trkpt lat="43.76576" lon="3.55469">
        <ele>532.126</ele>
        <time>2014-03-30T10:11:44Z</time>
      </trkpt>
      <trkpt lat="43.76582" lon="3.55468">
        <ele>533.236</ele>
        <time>2014-03-30T10:11:51Z</time>
      </trkpt>
      <trkpt lat="43.76587" lon="3.55467">
        <ele>535.616</ele>
        <time>2014-03-30T10:11:59Z</time>
      </trkpt>
      <trkpt lat="43.76593" lon="3.55466">
        <ele>537.221</ele>
        <time>2014-03-30T10:12:07Z</time>
      </trkpt>
      <trkpt lat="43.76601" lon="3.55468">
        <ele>536.876</ele>
        <time>2014-03-30T10:12:16Z</time>
      </trkpt>
      <trkpt lat="43.76606" lon="3.55475">
        <ele>537.986</ele>
        <time>2014-03-30T10:12:25Z</time>
      </trkpt>
      <trkpt lat="43.76605" lon="3.55478">
        <ele>540.926</ele>
        <time>2014-03-30T10:12:34Z</time>
      </trkpt>
      <trkpt lat="43.76605" lon="3.5548">
        <ele>542.126</ele>
        <time>2014-03-30T10:12:46Z</time>
      </trkpt>
      <trkpt lat="43.76608" lon="3.5548">
        <ele>542.406</ele>
        <time>2014-03-30T10:12:51Z</time>
      </trkpt>
      <trkpt lat="43.7661" lon="3.55489">
        <ele>542.496</ele>
        <time>2014-03-30T10:12:56Z</time>
      </trkpt>
      <trkpt lat="43.76607" lon="3.55506">
        <ele>544.746</ele>
        <time>2014-03-30T10:13:05Z</time>
      </trkpt>
      <trkpt lat="43.76604" lon="3.55522">
        <ele>546.356</ele>
        <time>2014-03-30T10:13:14Z</time>
      </trkpt>
      <trkpt lat="43.76605" lon="3.55536">
        <ele>547.917</ele>
        <time>2014-03-30T10:13:21Z</time>
      </trkpt>
      <trkpt lat="43.7661" lon="3.55547">
        <ele>548.796</ele>
        <time>2014-03-30T10:13:28Z</time>
      </trkpt>
      <trkpt lat="43.76614" lon="3.55554">
        <ele>549.046</ele>
        <time>2014-03-30T10:13:36Z</time>
      </trkpt>
      <trkpt lat="43.76616" lon="3.55559">
        <ele>550.376</ele>
        <time>2014-03-30T10:13:43Z</time>
      </trkpt>
      <trkpt lat="43.76616" lon="3.55566">
        <ele>553.337</ele>
        <time>2014-03-30T10:13:50Z</time>
      </trkpt>
      <trkpt lat="43.76617" lon="3.55574">
        <ele>555.046</ele>
        <time>2014-03-30T10:13:59Z</time>
      </trkpt>
      <trkpt lat="43.76619" lon="3.55584">
        <ele>555.467</ele>
        <time>2014-03-30T10:14:08Z</time>
      </trkpt>
      <trkpt lat="43.76619" lon="3.55593">
        <ele>557.106</ele>
        <time>2014-03-30T10:14:17Z</time>
      </trkpt>
      <trkpt lat="43.7662" lon="3.55599">
        <ele>557.356</ele>
        <time>2014-03-30T10:14:25Z</time>
      </trkpt>
      <trkpt lat="43.7662" lon="3.55608">
        <ele>558.897</ele>
        <time>2014-03-30T10:14:33Z</time>
      </trkpt>
      <trkpt lat="43.76621" lon="3.55617">
        <ele>560.227</ele>
        <time>2014-03-30T10:14:42Z</time>
      </trkpt>
      <trkpt lat="43.76623" lon="3.55625">
        <ele>560.217</ele>
        <time>2014-03-30T10:14:50Z</time>
      </trkpt>
      <trkpt lat="43.76625" lon="3.55632">
        <ele>561.837</ele>
        <time>2014-03-30T10:14:58Z</time>
      </trkpt>
      <trkpt lat="43.76627" lon="3.55638">
        <ele>562.017</ele>
        <time>2014-03-30T10:15:05Z</time>
      </trkpt>
      <trkpt lat="43.76629" lon="3.55643">
        <ele>562.766</ele>
        <time>2014-03-30T10:15:11Z</time>
      </trkpt>
      <trkpt lat="43.76632" lon="3.55647">
        <ele>562.436</ele>
        <time>2014-03-30T10:15:17Z</time>
      </trkpt>
      <trkpt lat="43.76636" lon="3.55654">
        <ele>562.936</ele>
        <time>2014-03-30T10:15:27Z</time>
      </trkpt>
      <trkpt lat="43.76639" lon="3.5566">
        <ele>563.467</ele>
        <time>2014-03-30T10:15:35Z</time>
      </trkpt>
      <trkpt lat="43.76641" lon="3.55662">
        <ele>564.227</ele>
        <time>2014-03-30T10:15:39Z</time>
      </trkpt>
      <trkpt lat="43.76645" lon="3.5567">
        <ele>565.237</ele>
        <time>2014-03-30T10:15:49Z</time>
      </trkpt>
      <trkpt lat="43.76646" lon="3.55676">
        <ele>567.107</ele>
        <time>2014-03-30T10:15:57Z</time>
      </trkpt>
      <trkpt lat="43.76646" lon="3.55682">
        <ele>568.877</ele>
        <time>2014-03-30T10:16:07Z</time>
      </trkpt>
      <trkpt lat="43.7665" lon="3.55687">
        <ele>569.507</ele>
        <time>2014-03-30T10:16:15Z</time>
      </trkpt>
      <trkpt lat="43.76653" lon="3.55691">
        <ele>569.946</ele>
        <time>2014-03-30T10:16:23Z</time>
      </trkpt>
      <trkpt lat="43.76657" lon="3.55696">
        <ele>570.627</ele>
        <time>2014-03-30T10:16:38Z</time>
      </trkpt>
      <trkpt lat="43.76659" lon="3.55699">
        <ele>571.767</ele>
        <time>2014-03-30T10:16:44Z</time>
      </trkpt>
      <trkpt lat="43.76661" lon="3.55702">
        <ele>572.487</ele>
        <time>2014-03-30T10:16:51Z</time>
      </trkpt>
      <trkpt lat="43.76662" lon="3.55704">
        <ele>572.656</ele>
        <time>2014-03-30T10:16:57Z</time>
      </trkpt>
      <trkpt lat="43.76664" lon="3.55705">
        <ele>572.666</ele>
        <time>2014-03-30T10:17:02Z</time>
      </trkpt>
      <trkpt lat="43.76666" lon="3.55706">
        <ele>572.516</ele>
        <time>2014-03-30T10:17:08Z</time>
      </trkpt>
      <trkpt lat="43.76666" lon="3.55707">
        <ele>573.267</ele>
        <time>2014-03-30T10:17:16Z</time>
      </trkpt>
      <trkpt lat="43.76666" lon="3.55706">
        <ele>574.377</ele>
        <time>2014-03-30T10:17:20Z</time>
      </trkpt>
      <trkpt lat="43.76666" lon="3.55695">
        <ele>576.847</ele>
        <time>2014-03-30T10:17:28Z</time>
      </trkpt>
      <trkpt lat="43.76667" lon="3.55691">
        <ele>577.907</ele>
        <time>2014-03-30T10:17:34Z</time>
      </trkpt>
      <trkpt lat="43.76667" lon="3.55689">
        <ele>578.827</ele>
        <time>2014-03-30T10:17:39Z</time>
      </trkpt>
      <trkpt lat="43.76667" lon="3.55688">
        <ele>580.667</ele>
        <time>2014-03-30T10:17:49Z</time>
      </trkpt>
      <trkpt lat="43.76666" lon="3.55687">
        <ele>580.426</ele>
        <time>2014-03-30T10:17:54Z</time>
      </trkpt>
      <trkpt lat="43.76666" lon="3.55684">
        <ele>580.637</ele>
        <time>2014-03-30T10:18:03Z</time>
      </trkpt>
      <trkpt lat="43.76666" lon="3.55679">
        <ele>581.187</ele>
        <time>2014-03-30T10:18:11Z</time>
      </trkpt>
      <trkpt lat="43.76666" lon="3.55671">
        <ele>582.267</ele>
        <time>2014-03-30T10:18:18Z</time>
      </trkpt>
      <trkpt lat="43.76666" lon="3.55661">
        <ele>583.697</ele>
        <time>2014-03-30T10:18:27Z</time>
      </trkpt>
      <trkpt lat="43.76666" lon="3.55644">
        <ele>585.597</ele>
        <time>2014-03-30T10:18:38Z</time>
      </trkpt>
      <trkpt lat="43.76664" lon="3.55634">
        <ele>586.917</ele>
        <time>2014-03-30T10:18:45Z</time>
      </trkpt>
      <trkpt lat="43.76666" lon="3.55621">
        <ele>584.007</ele>
        <time>2014-03-30T10:18:55Z</time>
      </trkpt>
      <trkpt lat="43.76668" lon="3.55612">
        <ele>583.271</ele>
        <time>2014-03-30T10:19:03Z</time>
      </trkpt>
      <trkpt lat="43.76672" lon="3.55603">
        <ele>583.417</ele>
        <time>2014-03-30T10:19:11Z</time>
      </trkpt>
      <trkpt lat="43.76675" lon="3.55593">
        <ele>582.116</ele>
        <time>2014-03-30T10:19:19Z</time>
      </trkpt>
      <trkpt lat="43.7668" lon="3.55583">
        <ele>581.537</ele>
        <time>2014-03-30T10:19:28Z</time>
      </trkpt>
      <trkpt lat="43.7668" lon="3.55581">
        <ele>581.466</ele>
        <time>2014-03-30T10:19:34Z</time>
      </trkpt>
      <trkpt lat="43.76684" lon="3.55573">
        <ele>581.146</ele>
        <time>2014-03-30T10:19:40Z</time>
      </trkpt>
      <trkpt lat="43.76687" lon="3.55564">
        <ele>582.016</ele>
        <time>2014-03-30T10:19:47Z</time>
      </trkpt>
      <trkpt lat="43.76695" lon="3.55556">
        <ele>582.646</ele>
        <time>2014-03-30T10:19:55Z</time>
      </trkpt>
      <trkpt lat="43.76701" lon="3.55548">
        <ele>583.507</ele>
        <time>2014-03-30T10:20:02Z</time>
      </trkpt>
      <trkpt lat="43.76706" lon="3.55541">
        <ele>583.966</ele>
        <time>2014-03-30T10:20:10Z</time>
      </trkpt>
      <trkpt lat="43.76708" lon="3.55539">
        <ele>585.537</ele>
        <time>2014-03-30T10:20:16Z</time>
      </trkpt>
      <trkpt lat="43.7671" lon="3.55537">
        <ele>587.307</ele>
        <time>2014-03-30T10:20:24Z</time>
      </trkpt>
      <trkpt lat="43.7671" lon="3.55534">
        <ele>587.477</ele>
        <time>2014-03-30T10:20:33Z</time>
      </trkpt>
      <trkpt lat="43.76709" lon="3.55538">
        <ele>587.866</ele>
        <time>2014-03-30T10:20:41Z</time>
      </trkpt>
      <trkpt lat="43.76709" lon="3.55538">
        <ele>588.936</ele>
        <time>2014-03-30T10:20:49Z</time>
      </trkpt>
      <trkpt lat="43.76712" lon="3.55538">
        <ele>589.987</ele>
        <time>2014-03-30T10:22:58Z</time>
      </trkpt>
      <trkpt lat="43.76711" lon="3.5554">
        <ele>589.977</ele>
        <time>2014-03-30T10:23:00Z</time>
      </trkpt>
      <trkpt lat="43.76704" lon="3.55551">
        <ele>589.287</ele>
        <time>2014-03-30T10:23:10Z</time>
      </trkpt>
      <trkpt lat="43.76698" lon="3.55559">
        <ele>589.677</ele>
        <time>2014-03-30T10:23:18Z</time>
      </trkpt>
      <trkpt lat="43.76694" lon="3.55568">
        <ele>589.867</ele>
        <time>2014-03-30T10:23:26Z</time>
      </trkpt>
      <trkpt lat="43.7669" lon="3.55579">
        <ele>590.627</ele>
        <time>2014-03-30T10:23:35Z</time>
      </trkpt>
      <trkpt lat="43.76687" lon="3.5559">
        <ele>591.477</ele>
        <time>2014-03-30T10:23:44Z</time>
      </trkpt>
      <trkpt lat="43.76684" lon="3.55599">
        <ele>591.477</ele>
        <time>2014-03-30T10:23:52Z</time>
      </trkpt>
      <trkpt lat="43.76684" lon="3.556">
        <ele>590.106</ele>
        <time>2014-03-30T10:23:56Z</time>
      </trkpt>
      <trkpt lat="43.76682" lon="3.55611">
        <ele>591.487</ele>
        <time>2014-03-30T10:24:05Z</time>
      </trkpt>
      <trkpt lat="43.76681" lon="3.55615">
        <ele>591.977</ele>
        <time>2014-03-30T10:24:08Z</time>
      </trkpt>
      <trkpt lat="43.76682" lon="3.55627">
        <ele>593.587</ele>
        <time>2014-03-30T10:24:18Z</time>
      </trkpt>
      <trkpt lat="43.76684" lon="3.55639">
        <ele>594.797</ele>
        <time>2014-03-30T10:24:28Z</time>
      </trkpt>
      <trkpt lat="43.76687" lon="3.5565">
        <ele>595.697</ele>
        <time>2014-03-30T10:24:37Z</time>
      </trkpt>
      <trkpt lat="43.76689" lon="3.55658">
        <ele>596.067</ele>
        <time>2014-03-30T10:24:44Z</time>
      </trkpt>
      <trkpt lat="43.76693" lon="3.55666">
        <ele>596.116</ele>
        <time>2014-03-30T10:24:52Z</time>
      </trkpt>
      <trkpt lat="43.76697" lon="3.55673">
        <ele>595.996</ele>
        <time>2014-03-30T10:24:59Z</time>
      </trkpt>
      <trkpt lat="43.76705" lon="3.55677">
        <ele>595.506</ele>
        <time>2014-03-30T10:25:08Z</time>
      </trkpt>
      <trkpt lat="43.76711" lon="3.5568">
        <ele>595.426</ele>
        <time>2014-03-30T10:25:16Z</time>
      </trkpt>
      <trkpt lat="43.76715" lon="3.5568">
        <ele>595.286</ele>
        <time>2014-03-30T10:25:20Z</time>
      </trkpt>
      <trkpt lat="43.76722" lon="3.5568">
        <ele>595.527</ele>
        <time>2014-03-30T10:25:29Z</time>
      </trkpt>
      <trkpt lat="43.76726" lon="3.5568">
        <ele>594.468</ele>
        <time>2014-03-30T10:25:44Z</time>
      </trkpt>
      <trkpt lat="43.76731" lon="3.55681">
        <ele>595.307</ele>
        <time>2014-03-30T10:25:51Z</time>
      </trkpt>
      <trkpt lat="43.76732" lon="3.55683">
        <ele>595.257</ele>
        <time>2014-03-30T10:25:56Z</time>
      </trkpt>
      <trkpt lat="43.76734" lon="3.55687">
        <ele>595.787</ele>
        <time>2014-03-30T10:26:02Z</time>
      </trkpt>
      <trkpt lat="43.76738" lon="3.5569">
        <ele>596.126</ele>
        <time>2014-03-30T10:26:08Z</time>
      </trkpt>
      <trkpt lat="43.76738" lon="3.55691">
        <ele>596.627</ele>
        <time>2014-03-30T10:26:14Z</time>
      </trkpt>
      <trkpt lat="43.7674" lon="3.55689">
        <ele>597.857</ele>
        <time>2014-03-30T10:26:19Z</time>
      </trkpt>
      <trkpt lat="43.76748" lon="3.55689">
        <ele>598.748</ele>
        <time>2014-03-30T10:26:26Z</time>
      </trkpt>
      <trkpt lat="43.76749" lon="3.55689">
        <ele>598.356</ele>
        <time>2014-03-30T10:26:33Z</time>
      </trkpt>
      <trkpt lat="43.76754" lon="3.5569">
        <ele>598.507</ele>
        <time>2014-03-30T10:26:37Z</time>
      </trkpt>
      <trkpt lat="43.76761" lon="3.55694">
        <ele>599.087</ele>
        <time>2014-03-30T10:26:43Z</time>
      </trkpt>
      <trkpt lat="43.7677" lon="3.55699">
        <ele>599.857</ele>
        <time>2014-03-30T10:26:51Z</time>
      </trkpt>
      <trkpt lat="43.76773" lon="3.55699">
        <ele>600.467</ele>
        <time>2014-03-30T10:26:56Z</time>
      </trkpt>
      <trkpt lat="43.76774" lon="3.557">
        <ele>600.737</ele>
        <time>2014-03-30T10:27:02Z</time>
      </trkpt>
      <trkpt lat="43.76779" lon="3.55703">
        <ele>601.017</ele>
        <time>2014-03-30T10:27:07Z</time>
      </trkpt>
      <trkpt lat="43.76786" lon="3.55715">
        <ele>602.097</ele>
        <time>2014-03-30T10:27:16Z</time>
      </trkpt>
      <trkpt lat="43.76787" lon="3.55717">
        <ele>602.217</ele>
        <time>2014-03-30T10:27:22Z</time>
      </trkpt>
      <trkpt lat="43.76786" lon="3.55723">
        <ele>603.117</ele>
        <time>2014-03-30T10:27:30Z</time>
      </trkpt>
      <trkpt lat="43.76784" lon="3.55736">
        <ele>604.778</ele>
        <time>2014-03-30T10:27:38Z</time>
      </trkpt>
      <trkpt lat="43.76783" lon="3.55743">
        <ele>605.537</ele>
        <time>2014-03-30T10:27:49Z</time>
      </trkpt>
      <trkpt lat="43.76781" lon="3.5575">
        <ele>608.028</ele>
        <time>2014-03-30T10:27:55Z</time>
      </trkpt>
      <trkpt lat="43.76778" lon="3.55767">
        <ele>610.368</ele>
        <time>2014-03-30T10:28:05Z</time>
      </trkpt>
      <trkpt lat="43.76776" lon="3.5578">
        <ele>613.179</ele>
        <time>2014-03-30T10:28:14Z</time>
      </trkpt>
      <trkpt lat="43.76776" lon="3.5579">
        <ele>613.888</ele>
        <time>2014-03-30T10:28:20Z</time>
      </trkpt>
      <trkpt lat="43.7677" lon="3.55801">
        <ele>614.898</ele>
        <time>2014-03-30T10:28:30Z</time>
      </trkpt>
      <trkpt lat="43.76765" lon="3.55809">
        <ele>615.828</ele>
        <time>2014-03-30T10:28:39Z</time>
      </trkpt>
      <trkpt lat="43.7676" lon="3.55816">
        <ele>616.098</ele>
        <time>2014-03-30T10:28:47Z</time>
      </trkpt>
      <trkpt lat="43.76756" lon="3.55825">
        <ele>616.668</ele>
        <time>2014-03-30T10:28:56Z</time>
      </trkpt>
      <trkpt lat="43.76753" lon="3.55835">
        <ele>618.218</ele>
        <time>2014-03-30T10:29:05Z</time>
      </trkpt>
      <trkpt lat="43.76751" lon="3.55838">
        <ele>619.548</ele>
        <time>2014-03-30T10:29:10Z</time>
      </trkpt>
      <trkpt lat="43.7675" lon="3.55839">
        <ele>619.658</ele>
        <time>2014-03-30T10:29:11Z</time>
      </trkpt>
      <trkpt lat="43.76744" lon="3.55848">
        <ele>622.089</ele>
        <time>2014-03-30T10:29:21Z</time>
      </trkpt>
      <trkpt lat="43.76739" lon="3.55852">
        <ele>624.199</ele>
        <time>2014-03-30T10:29:28Z</time>
      </trkpt>
      <trkpt lat="43.76733" lon="3.55858">
        <ele>625.118</ele>
        <time>2014-03-30T10:29:37Z</time>
      </trkpt>
      <trkpt lat="43.76728" lon="3.55864">
        <ele>624.577</ele>
        <time>2014-03-30T10:29:45Z</time>
      </trkpt>
      <trkpt lat="43.76723" lon="3.5587">
        <ele>625.108</ele>
        <time>2014-03-30T10:29:54Z</time>
      </trkpt>
      <trkpt lat="43.76719" lon="3.55875">
        <ele>627.289</ele>
        <time>2014-03-30T10:30:01Z</time>
      </trkpt>
      <trkpt lat="43.76712" lon="3.5588">
        <ele>626.09</ele>
        <time>2014-03-30T10:30:10Z</time>
      </trkpt>
      <trkpt lat="43.76709" lon="3.55888">
        <ele>621.227</ele>
        <time>2014-03-30T10:30:19Z</time>
      </trkpt>
      <trkpt lat="43.76706" lon="3.55889">
        <ele>620.457</ele>
        <time>2014-03-30T10:30:25Z</time>
      </trkpt>
      <trkpt lat="43.76706" lon="3.5589">
        <ele>621.187</ele>
        <time>2014-03-30T10:30:31Z</time>
      </trkpt>
      <trkpt lat="43.76708" lon="3.55893">
        <ele>621.918</ele>
        <time>2014-03-30T10:30:36Z</time>
      </trkpt>
      <trkpt lat="43.76709" lon="3.55894">
        <ele>621.047</ele>
        <time>2014-03-30T10:32:21Z</time>
      </trkpt>
      <trkpt lat="43.76708" lon="3.55894">
        <ele>621.128</ele>
        <time>2014-03-30T10:33:10Z</time>
      </trkpt>
      <trkpt lat="43.7671" lon="3.55897">
        <ele>621.677</ele>
        <time>2014-03-30T10:33:17Z</time>
      </trkpt>
      <trkpt lat="43.76712" lon="3.55896">
        <ele>622.277</ele>
        <time>2014-03-30T10:33:26Z</time>
      </trkpt>
      <trkpt lat="43.76711" lon="3.55897">
        <ele>621.927</ele>
        <time>2014-03-30T10:33:33Z</time>
      </trkpt>
      <trkpt lat="43.76709" lon="3.55896">
        <ele>621.937</ele>
        <time>2014-03-30T10:33:42Z</time>
      </trkpt>
      <trkpt lat="43.7671" lon="3.55896">
        <ele>620.557</ele>
        <time>2014-03-30T10:33:52Z</time>
      </trkpt>
      <trkpt lat="43.76707" lon="3.55892">
        <ele>619.447</ele>
        <time>2014-03-30T10:34:26Z</time>
      </trkpt>
      <trkpt lat="43.76707" lon="3.55886">
        <ele>618.766</ele>
        <time>2014-03-30T10:34:34Z</time>
      </trkpt>
      <trkpt lat="43.76706" lon="3.55885">
        <ele>618.067</ele>
        <time>2014-03-30T10:34:40Z</time>
      </trkpt>
      <trkpt lat="43.76708" lon="3.55884">
        <ele>617.017</ele>
        <time>2014-03-30T10:34:46Z</time>
      </trkpt>
      <trkpt lat="43.76704" lon="3.55881">
        <ele>618.887</ele>
        <time>2014-03-30T10:36:32Z</time>
      </trkpt>
      <trkpt lat="43.76708" lon="3.55888">
        <ele>605.278</ele>
        <time>2014-03-30T11:11:54Z</time>
      </trkpt>
      <trkpt lat="43.76708" lon="3.55889">
        <ele>607.607</ele>
        <time>2014-03-30T11:12:07Z</time>
      </trkpt>
      <trkpt lat="43.76709" lon="3.55891">
        <ele>608.827</ele>
        <time>2014-03-30T11:12:22Z</time>
      </trkpt>
      <trkpt lat="43.76709" lon="3.55891">
        <ele>614.367</ele>
        <time>2014-03-30T11:19:43Z</time>
      </trkpt>
      <trkpt lat="43.76707" lon="3.55889">
        <ele>614.167</ele>
        <time>2014-03-30T11:20:13Z</time>
      </trkpt>
      <trkpt lat="43.76704" lon="3.55894">
        <ele>614.848</ele>
        <time>2014-03-30T11:21:59Z</time>
      </trkpt>
      <trkpt lat="43.76702" lon="3.55899">
        <ele>613.687</ele>
        <time>2014-03-30T11:22:25Z</time>
      </trkpt>
      <trkpt lat="43.76701" lon="3.55904">
        <ele>615.108</ele>
        <time>2014-03-30T11:22:33Z</time>
      </trkpt>
      <trkpt lat="43.76701" lon="3.5591">
        <ele>616.658</ele>
        <time>2014-03-30T11:22:40Z</time>
      </trkpt>
      <trkpt lat="43.76701" lon="3.55911">
        <ele>616.498</ele>
        <time>2014-03-30T11:22:41Z</time>
      </trkpt>
      <trkpt lat="43.76699" lon="3.55915">
        <ele>616.628</ele>
        <time>2014-03-30T11:22:47Z</time>
      </trkpt>
      <trkpt lat="43.76699" lon="3.55915">
        <ele>616.768</ele>
        <time>2014-03-30T11:22:48Z</time>
      </trkpt>
      <trkpt lat="43.76695" lon="3.5592">
        <ele>616.958</ele>
        <time>2014-03-30T11:22:56Z</time>
      </trkpt>
      <trkpt lat="43.76693" lon="3.55921">
        <ele>617.328</ele>
        <time>2014-03-30T11:22:59Z</time>
      </trkpt>
      <trkpt lat="43.7669" lon="3.55924">
        <ele>618.248</ele>
        <time>2014-03-30T11:23:06Z</time>
      </trkpt>
      <trkpt lat="43.76683" lon="3.55926">
        <ele>619.498</ele>
        <time>2014-03-30T11:23:14Z</time>
      </trkpt>
      <trkpt lat="43.76678" lon="3.55927">
        <ele>621.939</ele>
        <time>2014-03-30T11:23:21Z</time>
      </trkpt>
      <trkpt lat="43.76675" lon="3.55928">
        <ele>624.388</ele>
        <time>2014-03-30T11:23:27Z</time>
      </trkpt>
      <trkpt lat="43.76672" lon="3.55928">
        <ele>625.189</ele>
        <time>2014-03-30T11:23:30Z</time>
      </trkpt>
      <trkpt lat="43.76668" lon="3.55931">
        <ele>626.628</ele>
        <time>2014-03-30T11:23:36Z</time>
      </trkpt>
      <trkpt lat="43.7666" lon="3.55935">
        <ele>629.158</ele>
        <time>2014-03-30T11:23:45Z</time>
      </trkpt>
      <trkpt lat="43.76658" lon="3.55937">
        <ele>628.937</ele>
        <time>2014-03-30T11:23:51Z</time>
      </trkpt>
      <trkpt lat="43.76653" lon="3.5594">
        <ele>629.808</ele>
        <time>2014-03-30T11:24:00Z</time>
      </trkpt>
      <trkpt lat="43.7665" lon="3.55942">
        <ele>630.578</ele>
        <time>2014-03-30T11:24:04Z</time>
      </trkpt>
      <trkpt lat="43.76656" lon="3.55949">
        <ele>626.367</ele>
        <time>2014-03-30T11:24:11Z</time>
      </trkpt>
      <trkpt lat="43.76659" lon="3.5595">
        <ele>625.497</ele>
        <time>2014-03-30T11:24:18Z</time>
      </trkpt>
      <trkpt lat="43.76662" lon="3.55949">
        <ele>624.578</ele>
        <time>2014-03-30T11:24:23Z</time>
      </trkpt>
      <trkpt lat="43.76665" lon="3.55948">
        <ele>624.498</ele>
        <time>2014-03-30T11:24:29Z</time>
      </trkpt>
      <trkpt lat="43.76667" lon="3.55948">
        <ele>624.328</ele>
        <time>2014-03-30T11:24:32Z</time>
      </trkpt>
      <trkpt lat="43.76671" lon="3.55948">
        <ele>623.587</ele>
        <time>2014-03-30T11:24:36Z</time>
      </trkpt>
      <trkpt lat="43.76675" lon="3.55948">
        <ele>623.607</ele>
        <time>2014-03-30T11:24:40Z</time>
      </trkpt>
      <trkpt lat="43.76682" lon="3.55946">
        <ele>623.318</ele>
        <time>2014-03-30T11:24:48Z</time>
      </trkpt>
      <trkpt lat="43.76686" lon="3.55947">
        <ele>623.047</ele>
        <time>2014-03-30T11:24:52Z</time>
      </trkpt>
      <trkpt lat="43.76689" lon="3.55947">
        <ele>622.907</ele>
        <time>2014-03-30T11:24:55Z</time>
      </trkpt>
      <trkpt lat="43.76697" lon="3.55949">
        <ele>621.797</ele>
        <time>2014-03-30T11:25:03Z</time>
      </trkpt>
      <trkpt lat="43.76703" lon="3.5595">
        <ele>621.677</ele>
        <time>2014-03-30T11:25:10Z</time>
      </trkpt>
      <trkpt lat="43.76708" lon="3.55952">
        <ele>622.427</ele>
        <time>2014-03-30T11:25:14Z</time>
      </trkpt>
      <trkpt lat="43.76717" lon="3.55948">
        <ele>622.438</ele>
        <time>2014-03-30T11:25:24Z</time>
      </trkpt>
      <trkpt lat="43.76722" lon="3.5594">
        <ele>622.878</ele>
        <time>2014-03-30T11:25:32Z</time>
      </trkpt>
      <trkpt lat="43.76724" lon="3.55935">
        <ele>623.518</ele>
        <time>2014-03-30T11:25:36Z</time>
      </trkpt>
      <trkpt lat="43.76729" lon="3.55922">
        <ele>623.348</ele>
        <time>2014-03-30T11:25:48Z</time>
      </trkpt>
      <trkpt lat="43.76731" lon="3.55921">
        <ele>623.848</ele>
        <time>2014-03-30T11:25:57Z</time>
      </trkpt>
      <trkpt lat="43.76731" lon="3.55922">
        <ele>625.617</ele>
        <time>2014-03-30T11:26:15Z</time>
      </trkpt>
      <trkpt lat="43.76731" lon="3.55922">
        <ele>625.497</ele>
        <time>2014-03-30T11:26:19Z</time>
      </trkpt>
      <trkpt lat="43.76728" lon="3.55925">
        <ele>625.196</ele>
        <time>2014-03-30T11:26:24Z</time>
      </trkpt>
      <trkpt lat="43.76728" lon="3.55925">
        <ele>625.008</ele>
        <time>2014-03-30T11:26:36Z</time>
      </trkpt>
      <trkpt lat="43.76738" lon="3.55913">
        <ele>626.158</ele>
        <time>2014-03-30T11:26:47Z</time>
      </trkpt>
      <trkpt lat="43.76748" lon="3.55907">
        <ele>627.509</ele>
        <time>2014-03-30T11:26:56Z</time>
      </trkpt>
      <trkpt lat="43.76753" lon="3.55903">
        <ele>628.93</ele>
        <time>2014-03-30T11:27:02Z</time>
      </trkpt>
      <trkpt lat="43.76754" lon="3.55902">
        <ele>629.558</ele>
        <time>2014-03-30T11:27:08Z</time>
      </trkpt>
      <trkpt lat="43.76754" lon="3.55904">
        <ele>637.988</ele>
        <time>2014-03-30T11:27:33Z</time>
      </trkpt>
      <trkpt lat="43.76764" lon="3.55897">
        <ele>634.657</ele>
        <time>2014-03-30T11:27:40Z</time>
      </trkpt>
      <trkpt lat="43.76773" lon="3.55887">
        <ele>633.978</ele>
        <time>2014-03-30T11:27:47Z</time>
      </trkpt>
      <trkpt lat="43.76784" lon="3.55878">
        <ele>632.227</ele>
        <time>2014-03-30T11:27:54Z</time>
      </trkpt>
      <trkpt lat="43.76797" lon="3.55869">
        <ele>631.358</ele>
        <time>2014-03-30T11:28:03Z</time>
      </trkpt>
      <trkpt lat="43.76806" lon="3.55862">
        <ele>631.478</ele>
        <time>2014-03-30T11:28:10Z</time>
      </trkpt>
      <trkpt lat="43.76814" lon="3.55853">
        <ele>631.588</ele>
        <time>2014-03-30T11:28:17Z</time>
      </trkpt>
      <trkpt lat="43.76823" lon="3.55838">
        <ele>632.208</ele>
        <time>2014-03-30T11:28:27Z</time>
      </trkpt>
      <trkpt lat="43.7683" lon="3.55821">
        <ele>632.908</ele>
        <time>2014-03-30T11:28:37Z</time>
      </trkpt>
      <trkpt lat="43.76835" lon="3.55806">
        <ele>635.089</ele>
        <time>2014-03-30T11:28:46Z</time>
      </trkpt>
      <trkpt lat="43.76838" lon="3.558">
        <ele>636.229</ele>
        <time>2014-03-30T11:28:50Z</time>
      </trkpt>
      <trkpt lat="43.76847" lon="3.55801">
        <ele>637.268</ele>
        <time>2014-03-30T11:28:57Z</time>
      </trkpt>
      <trkpt lat="43.76849" lon="3.55803">
        <ele>637.748</ele>
        <time>2014-03-30T11:28:59Z</time>
      </trkpt>
      <trkpt lat="43.7686" lon="3.55807">
        <ele>639.889</ele>
        <time>2014-03-30T11:29:08Z</time>
      </trkpt>
      <trkpt lat="43.76867" lon="3.55816">
        <ele>641.008</ele>
        <time>2014-03-30T11:29:15Z</time>
      </trkpt>
      <trkpt lat="43.76869" lon="3.55824">
        <ele>643.779</ele>
        <time>2014-03-30T11:29:22Z</time>
      </trkpt>
      <trkpt lat="43.76869" lon="3.55827">
        <ele>646.149</ele>
        <time>2014-03-30T11:29:29Z</time>
      </trkpt>
      <trkpt lat="43.76872" lon="3.55831">
        <ele>644.257</ele>
        <time>2014-03-30T11:29:37Z</time>
      </trkpt>
      <trkpt lat="43.76873" lon="3.55832">
        <ele>642.797</ele>
        <time>2014-03-30T11:29:42Z</time>
      </trkpt>
      <trkpt lat="43.76873" lon="3.55837">
        <ele>644.739</ele>
        <time>2014-03-30T11:29:49Z</time>
      </trkpt>
      <trkpt lat="43.76875" lon="3.55837">
        <ele>645.508</ele>
        <time>2014-03-30T11:29:56Z</time>
      </trkpt>
      <trkpt lat="43.76876" lon="3.55834">
        <ele>646.549</ele>
        <time>2014-03-30T11:30:08Z</time>
      </trkpt>
      <trkpt lat="43.76876" lon="3.55833">
        <ele>647.188</ele>
        <time>2014-03-30T11:30:17Z</time>
      </trkpt>
      <trkpt lat="43.76875" lon="3.55832">
        <ele>646.978</ele>
        <time>2014-03-30T11:30:24Z</time>
      </trkpt>
      <trkpt lat="43.76877" lon="3.55834">
        <ele>644.818</ele>
        <time>2014-03-30T11:30:43Z</time>
      </trkpt>
      <trkpt lat="43.76877" lon="3.5583">
        <ele>644.288</ele>
        <time>2014-03-30T11:30:57Z</time>
      </trkpt>
      <trkpt lat="43.7688" lon="3.55821">
        <ele>644.258</ele>
        <time>2014-03-30T11:31:05Z</time>
      </trkpt>
      <trkpt lat="43.76882" lon="3.55814">
        <ele>644.138</ele>
        <time>2014-03-30T11:31:13Z</time>
      </trkpt>
      <trkpt lat="43.76887" lon="3.55808">
        <ele>644.418</ele>
        <time>2014-03-30T11:31:21Z</time>
      </trkpt>
      <trkpt lat="43.76887" lon="3.55807">
        <ele>644.508</ele>
        <time>2014-03-30T11:31:22Z</time>
      </trkpt>
      <trkpt lat="43.76892" lon="3.55797">
        <ele>643.618</ele>
        <time>2014-03-30T11:31:32Z</time>
      </trkpt>
      <trkpt lat="43.76893" lon="3.55795">
        <ele>641.448</ele>
        <time>2014-03-30T11:31:40Z</time>
      </trkpt>
      <trkpt lat="43.76892" lon="3.55792">
        <ele>640.978</ele>
        <time>2014-03-30T11:31:46Z</time>
      </trkpt>
      <trkpt lat="43.76893" lon="3.55786">
        <ele>640.508</ele>
        <time>2014-03-30T11:31:51Z</time>
      </trkpt>
      <trkpt lat="43.76895" lon="3.5578">
        <ele>640.958</ele>
        <time>2014-03-30T11:31:57Z</time>
      </trkpt>
      <trkpt lat="43.76895" lon="3.55778">
        <ele>641.218</ele>
        <time>2014-03-30T11:31:59Z</time>
      </trkpt>
      <trkpt lat="43.76895" lon="3.55771">
        <ele>641.318</ele>
        <time>2014-03-30T11:32:04Z</time>
      </trkpt>
      <trkpt lat="43.76896" lon="3.55767">
        <ele>641.388</ele>
        <time>2014-03-30T11:32:07Z</time>
      </trkpt>
      <trkpt lat="43.76901" lon="3.55759">
        <ele>641.128</ele>
        <time>2014-03-30T11:32:15Z</time>
      </trkpt>
      <trkpt lat="43.76902" lon="3.55758">
        <ele>641.158</ele>
        <time>2014-03-30T11:32:18Z</time>
      </trkpt>
      <trkpt lat="43.76903" lon="3.55748">
        <ele>639.477</ele>
        <time>2014-03-30T11:32:27Z</time>
      </trkpt>
      <trkpt lat="43.76903" lon="3.55748">
        <ele>639.177</ele>
        <time>2014-03-30T11:32:28Z</time>
      </trkpt>
      <trkpt lat="43.76902" lon="3.55744">
        <ele>638.827</ele>
        <time>2014-03-30T11:32:32Z</time>
      </trkpt>
      <trkpt lat="43.76902" lon="3.55733">
        <ele>637.658</ele>
        <time>2014-03-30T11:32:40Z</time>
      </trkpt>
      <trkpt lat="43.76901" lon="3.55722">
        <ele>637.387</ele>
        <time>2014-03-30T11:32:47Z</time>
      </trkpt>
      <trkpt lat="43.769" lon="3.55717">
        <ele>637.188</ele>
        <time>2014-03-30T11:32:53Z</time>
      </trkpt>
      <trkpt lat="43.76899" lon="3.55711">
        <ele>636.917</ele>
        <time>2014-03-30T11:32:57Z</time>
      </trkpt>
      <trkpt lat="43.76896" lon="3.55698">
        <ele>636.418</ele>
        <time>2014-03-30T11:33:05Z</time>
      </trkpt>
      <trkpt lat="43.76893" lon="3.55693">
        <ele>636.057</ele>
        <time>2014-03-30T11:33:11Z</time>
      </trkpt>
      <trkpt lat="43.76891" lon="3.55689">
        <ele>635.717</ele>
        <time>2014-03-30T11:33:15Z</time>
      </trkpt>
      <trkpt lat="43.76888" lon="3.55688">
        <ele>634.797</ele>
        <time>2014-03-30T11:33:22Z</time>
      </trkpt>
      <trkpt lat="43.76887" lon="3.55687">
        <ele>630.857</ele>
        <time>2014-03-30T11:33:41Z</time>
      </trkpt>
      <trkpt lat="43.76886" lon="3.55686">
        <ele>630.177</ele>
        <time>2014-03-30T11:33:47Z</time>
      </trkpt>
      <trkpt lat="43.76888" lon="3.55685">
        <ele>629.857</ele>
        <time>2014-03-30T11:33:55Z</time>
      </trkpt>
      <trkpt lat="43.76887" lon="3.55681">
        <ele>629.917</ele>
        <time>2014-03-30T11:34:06Z</time>
      </trkpt>
      <trkpt lat="43.76886" lon="3.55679">
        <ele>629.977</ele>
        <time>2014-03-30T11:34:12Z</time>
      </trkpt>
      <trkpt lat="43.76885" lon="3.55677">
        <ele>630.057</ele>
        <time>2014-03-30T11:34:18Z</time>
      </trkpt>
      <trkpt lat="43.76885" lon="3.55675">
        <ele>630.187</ele>
        <time>2014-03-30T11:34:23Z</time>
      </trkpt>
      <trkpt lat="43.76883" lon="3.55674">
        <ele>631.467</ele>
        <time>2014-03-30T11:35:18Z</time>
      </trkpt>
      <trkpt lat="43.76885" lon="3.55672">
        <ele>630.267</ele>
        <time>2014-03-30T11:36:23Z</time>
      </trkpt>
      <trkpt lat="43.76882" lon="3.55676">
        <ele>635.937</ele>
        <time>2014-03-30T11:39:16Z</time>
      </trkpt>
      <trkpt lat="43.76882" lon="3.55675">
        <ele>634.997</ele>
        <time>2014-03-30T11:40:03Z</time>
      </trkpt>
      <trkpt lat="43.76882" lon="3.55676">
        <ele>634.997</ele>
        <time>2014-03-30T11:40:45Z</time>
      </trkpt>
      <trkpt lat="43.76883" lon="3.55676">
        <ele>633.977</ele>
        <time>2014-03-30T11:41:00Z</time>
      </trkpt>
      <trkpt lat="43.76883" lon="3.55676">
        <ele>635.137</ele>
        <time>2014-03-30T11:41:36Z</time>
      </trkpt>
      <trkpt lat="43.76882" lon="3.55677">
        <ele>634.317</ele>
        <time>2014-03-30T11:45:02Z</time>
      </trkpt>
      <trkpt lat="43.76885" lon="3.55683">
        <ele>632.417</ele>
        <time>2014-03-30T11:45:10Z</time>
      </trkpt>
      <trkpt lat="43.76885" lon="3.55684">
        <ele>632.377</ele>
        <time>2014-03-30T11:45:13Z</time>
      </trkpt>
      <trkpt lat="43.7689" lon="3.55693">
        <ele>631.867</ele>
        <time>2014-03-30T11:45:22Z</time>
      </trkpt>
      <trkpt lat="43.76895" lon="3.55701">
        <ele>631.387</ele>
        <time>2014-03-30T11:45:30Z</time>
      </trkpt>
      <trkpt lat="43.76898" lon="3.5571">
        <ele>631.027</ele>
        <time>2014-03-30T11:45:39Z</time>
      </trkpt>
      <trkpt lat="43.76899" lon="3.55714">
        <ele>630.817</ele>
        <time>2014-03-30T11:45:45Z</time>
      </trkpt>
      <trkpt lat="43.76899" lon="3.55717">
        <ele>630.627</ele>
        <time>2014-03-30T11:45:48Z</time>
      </trkpt>
      <trkpt lat="43.76899" lon="3.55723">
        <ele>630.247</ele>
        <time>2014-03-30T11:45:56Z</time>
      </trkpt>
      <trkpt lat="43.76901" lon="3.55728">
        <ele>630.547</ele>
        <time>2014-03-30T11:46:03Z</time>
      </trkpt>
      <trkpt lat="43.76901" lon="3.55733">
        <ele>630.818</ele>
        <time>2014-03-30T11:46:08Z</time>
      </trkpt>
      <trkpt lat="43.76902" lon="3.55744">
        <ele>631.718</ele>
        <time>2014-03-30T11:46:17Z</time>
      </trkpt>
      <trkpt lat="43.76902" lon="3.55749">
        <ele>632.618</ele>
        <time>2014-03-30T11:46:22Z</time>
      </trkpt>
      <trkpt lat="43.76898" lon="3.55757">
        <ele>635.411</ele>
        <time>2014-03-30T11:46:30Z</time>
      </trkpt>
      <trkpt lat="43.76894" lon="3.55766">
        <ele>636.068</ele>
        <time>2014-03-30T11:46:37Z</time>
      </trkpt>
      <trkpt lat="43.76894" lon="3.5577">
        <ele>636.328</ele>
        <time>2014-03-30T11:46:41Z</time>
      </trkpt>
      <trkpt lat="43.76892" lon="3.55781">
        <ele>638.218</ele>
        <time>2014-03-30T11:46:49Z</time>
      </trkpt>
      <trkpt lat="43.76888" lon="3.55795">
        <ele>640.528</ele>
        <time>2014-03-30T11:46:59Z</time>
      </trkpt>
      <trkpt lat="43.76883" lon="3.55807">
        <ele>642.538</ele>
        <time>2014-03-30T11:47:07Z</time>
      </trkpt>
      <trkpt lat="43.76882" lon="3.55808">
        <ele>642.798</ele>
        <time>2014-03-30T11:47:08Z</time>
      </trkpt>
      <trkpt lat="43.76878" lon="3.55822">
        <ele>645.258</ele>
        <time>2014-03-30T11:47:18Z</time>
      </trkpt>
      <trkpt lat="43.76875" lon="3.55827">
        <ele>645.487</ele>
        <time>2014-03-30T11:47:24Z</time>
      </trkpt>
      <trkpt lat="43.76874" lon="3.55833">
        <ele>645.797</ele>
        <time>2014-03-30T11:47:31Z</time>
      </trkpt>
      <trkpt lat="43.76872" lon="3.55837">
        <ele>646.268</ele>
        <time>2014-03-30T11:47:37Z</time>
      </trkpt>
      <trkpt lat="43.76871" lon="3.55841">
        <ele>647.418</ele>
        <time>2014-03-30T11:47:47Z</time>
      </trkpt>
      <trkpt lat="43.76871" lon="3.55854">
        <ele>647.218</ele>
        <time>2014-03-30T11:47:55Z</time>
      </trkpt>
      <trkpt lat="43.76869" lon="3.55864">
        <ele>647.298</ele>
        <time>2014-03-30T11:48:02Z</time>
      </trkpt>
      <trkpt lat="43.76865" lon="3.55878">
        <ele>646.108</ele>
        <time>2014-03-30T11:48:12Z</time>
      </trkpt>
      <trkpt lat="43.7686" lon="3.55888">
        <ele>643.957</ele>
        <time>2014-03-30T11:48:21Z</time>
      </trkpt>
      <trkpt lat="43.76853" lon="3.55897">
        <ele>641.107</ele>
        <time>2014-03-30T11:48:30Z</time>
      </trkpt>
      <trkpt lat="43.76849" lon="3.55904">
        <ele>640.307</ele>
        <time>2014-03-30T11:48:37Z</time>
      </trkpt>
      <trkpt lat="43.76845" lon="3.55912">
        <ele>639.837</ele>
        <time>2014-03-30T11:48:44Z</time>
      </trkpt>
      <trkpt lat="43.76843" lon="3.55916">
        <ele>639.107</ele>
        <time>2014-03-30T11:48:48Z</time>
      </trkpt>
      <trkpt lat="43.7684" lon="3.55921">
        <ele>637.777</ele>
        <time>2014-03-30T11:48:52Z</time>
      </trkpt>
      <trkpt lat="43.76833" lon="3.55934">
        <ele>637.207</ele>
        <time>2014-03-30T11:49:02Z</time>
      </trkpt>
      <trkpt lat="43.7683" lon="3.55939">
        <ele>637.197</ele>
        <time>2014-03-30T11:49:06Z</time>
      </trkpt>
      <trkpt lat="43.76829" lon="3.55944">
        <ele>638.288</ele>
        <time>2014-03-30T11:49:10Z</time>
      </trkpt>
      <trkpt lat="43.76829" lon="3.55958">
        <ele>637.917</ele>
        <time>2014-03-30T11:49:18Z</time>
      </trkpt>
      <trkpt lat="43.7683" lon="3.55975">
        <ele>637.738</ele>
        <time>2014-03-30T11:49:27Z</time>
      </trkpt>
      <trkpt lat="43.7683" lon="3.55981">
        <ele>637.667</ele>
        <time>2014-03-30T11:49:31Z</time>
      </trkpt>
      <trkpt lat="43.76832" lon="3.55986">
        <ele>637.487</ele>
        <time>2014-03-30T11:49:37Z</time>
      </trkpt>
      <trkpt lat="43.76833" lon="3.55991">
        <ele>637.057</ele>
        <time>2014-03-30T11:49:41Z</time>
      </trkpt>
      <trkpt lat="43.76836" lon="3.55998">
        <ele>636.457</ele>
        <time>2014-03-30T11:49:47Z</time>
      </trkpt>
      <trkpt lat="43.76839" lon="3.56008">
        <ele>635.797</ele>
        <time>2014-03-30T11:49:54Z</time>
      </trkpt>
      <trkpt lat="43.76842" lon="3.56014">
        <ele>636.117</ele>
        <time>2014-03-30T11:50:00Z</time>
      </trkpt>
      <trkpt lat="43.76843" lon="3.56015">
        <ele>636.137</ele>
        <time>2014-03-30T11:50:01Z</time>
      </trkpt>
      <trkpt lat="43.76853" lon="3.56023">
        <ele>638.738</ele>
        <time>2014-03-30T11:50:12Z</time>
      </trkpt>
      <trkpt lat="43.76863" lon="3.56032">
        <ele>639.408</ele>
        <time>2014-03-30T11:50:22Z</time>
      </trkpt>
      <trkpt lat="43.76871" lon="3.56044">
        <ele>639.767</ele>
        <time>2014-03-30T11:50:32Z</time>
      </trkpt>
      <trkpt lat="43.76875" lon="3.56055">
        <ele>639.068</ele>
        <time>2014-03-30T11:50:41Z</time>
      </trkpt>
      <trkpt lat="43.76878" lon="3.56067">
        <ele>638.858</ele>
        <time>2014-03-30T11:50:50Z</time>
      </trkpt>
      <trkpt lat="43.76878" lon="3.56072">
        <ele>640.328</ele>
        <time>2014-03-30T11:50:56Z</time>
      </trkpt>
      <trkpt lat="43.76879" lon="3.56079">
        <ele>641.478</ele>
        <time>2014-03-30T11:51:02Z</time>
      </trkpt>
      <trkpt lat="43.76879" lon="3.56081">
        <ele>641.918</ele>
        <time>2014-03-30T11:51:03Z</time>
      </trkpt>
      <trkpt lat="43.76879" lon="3.56087">
        <ele>642.288</ele>
        <time>2014-03-30T11:51:07Z</time>
      </trkpt>
      <trkpt lat="43.76882" lon="3.56095">
        <ele>643.798</ele>
        <time>2014-03-30T11:51:14Z</time>
      </trkpt>
      <trkpt lat="43.76881" lon="3.56099">
        <ele>642.037</ele>
        <time>2014-03-30T11:51:20Z</time>
      </trkpt>
      <trkpt lat="43.76887" lon="3.56107">
        <ele>640.007</ele>
        <time>2014-03-30T11:51:27Z</time>
      </trkpt>
      <trkpt lat="43.76893" lon="3.56114">
        <ele>642.118</ele>
        <time>2014-03-30T11:51:34Z</time>
      </trkpt>
      <trkpt lat="43.76898" lon="3.56119">
        <ele>646.069</ele>
        <time>2014-03-30T11:51:41Z</time>
      </trkpt>
      <trkpt lat="43.76907" lon="3.56121">
        <ele>646.608</ele>
        <time>2014-03-30T11:51:48Z</time>
      </trkpt>
      <trkpt lat="43.76917" lon="3.56125">
        <ele>646.518</ele>
        <time>2014-03-30T11:51:55Z</time>
      </trkpt>
      <trkpt lat="43.76921" lon="3.56132">
        <ele>646.738</ele>
        <time>2014-03-30T11:52:00Z</time>
      </trkpt>
      <trkpt lat="43.76927" lon="3.56146">
        <ele>643.117</ele>
        <time>2014-03-30T11:52:09Z</time>
      </trkpt>
      <trkpt lat="43.76925" lon="3.56159">
        <ele>643.028</ele>
        <time>2014-03-30T11:52:16Z</time>
      </trkpt>
      <trkpt lat="43.76924" lon="3.56169">
        <ele>642.918</ele>
        <time>2014-03-30T11:52:22Z</time>
      </trkpt>
      <trkpt lat="43.76926" lon="3.56177">
        <ele>641.388</ele>
        <time>2014-03-30T11:52:27Z</time>
      </trkpt>
      <trkpt lat="43.7693" lon="3.5619">
        <ele>640.618</ele>
        <time>2014-03-30T11:52:35Z</time>
      </trkpt>
      <trkpt lat="43.7693" lon="3.56202">
        <ele>643.549</ele>
        <time>2014-03-30T11:52:43Z</time>
      </trkpt>
      <trkpt lat="43.76929" lon="3.56207">
        <ele>643.139</ele>
        <time>2014-03-30T11:52:46Z</time>
      </trkpt>
      <trkpt lat="43.76929" lon="3.56219">
        <ele>643.728</ele>
        <time>2014-03-30T11:52:53Z</time>
      </trkpt>
      <trkpt lat="43.76928" lon="3.56231">
        <ele>642.968</ele>
        <time>2014-03-30T11:53:01Z</time>
      </trkpt>
      <trkpt lat="43.76926" lon="3.56247">
        <ele>639.858</ele>
        <time>2014-03-30T11:53:11Z</time>
      </trkpt>
      <trkpt lat="43.76926" lon="3.56258">
        <ele>637.308</ele>
        <time>2014-03-30T11:53:18Z</time>
      </trkpt>
      <trkpt lat="43.76929" lon="3.5627">
        <ele>633.968</ele>
        <time>2014-03-30T11:53:27Z</time>
      </trkpt>
      <trkpt lat="43.7693" lon="3.56276">
        <ele>633.468</ele>
        <time>2014-03-30T11:53:31Z</time>
      </trkpt>
      <trkpt lat="43.76934" lon="3.56287">
        <ele>631.928</ele>
        <time>2014-03-30T11:53:39Z</time>
      </trkpt>
      <trkpt lat="43.76935" lon="3.56288">
        <ele>631.838</ele>
        <time>2014-03-30T11:53:40Z</time>
      </trkpt>
      <trkpt lat="43.76939" lon="3.56298">
        <ele>631.238</ele>
        <time>2014-03-30T11:53:48Z</time>
      </trkpt>
      <trkpt lat="43.76945" lon="3.56308">
        <ele>631.798</ele>
        <time>2014-03-30T11:53:57Z</time>
      </trkpt>
      <trkpt lat="43.76952" lon="3.5632">
        <ele>632.368</ele>
        <time>2014-03-30T11:54:07Z</time>
      </trkpt>
      <trkpt lat="43.76956" lon="3.56325">
        <ele>632.809</ele>
        <time>2014-03-30T11:54:12Z</time>
      </trkpt>
      <trkpt lat="43.7696" lon="3.56332">
        <ele>633.318</ele>
        <time>2014-03-30T11:54:19Z</time>
      </trkpt>
      <trkpt lat="43.76966" lon="3.56341">
        <ele>633.849</ele>
        <time>2014-03-30T11:54:28Z</time>
      </trkpt>
      <trkpt lat="43.76966" lon="3.56343">
        <ele>635.809</ele>
        <time>2014-03-30T11:54:34Z</time>
      </trkpt>
      <trkpt lat="43.76972" lon="3.5635">
        <ele>637.879</ele>
        <time>2014-03-30T11:55:46Z</time>
      </trkpt>
      <trkpt lat="43.76978" lon="3.56358">
        <ele>637.758</ele>
        <time>2014-03-30T11:55:54Z</time>
      </trkpt>
      <trkpt lat="43.76984" lon="3.56366">
        <ele>636.828</ele>
        <time>2014-03-30T11:56:01Z</time>
      </trkpt>
      <trkpt lat="43.76985" lon="3.56373">
        <ele>636.238</ele>
        <time>2014-03-30T11:56:07Z</time>
      </trkpt>
      <trkpt lat="43.76984" lon="3.56382">
        <ele>636.679</ele>
        <time>2014-03-30T11:56:14Z</time>
      </trkpt>
      <trkpt lat="43.76986" lon="3.56392">
        <ele>635.668</ele>
        <time>2014-03-30T11:56:21Z</time>
      </trkpt>
      <trkpt lat="43.7699" lon="3.56405">
        <ele>632.248</ele>
        <time>2014-03-30T11:56:31Z</time>
      </trkpt>
      <trkpt lat="43.76994" lon="3.56413">
        <ele>629.338</ele>
        <time>2014-03-30T11:56:37Z</time>
      </trkpt>
      <trkpt lat="43.77" lon="3.56424">
        <ele>627.648</ele>
        <time>2014-03-30T11:56:45Z</time>
      </trkpt>
      <trkpt lat="43.77004" lon="3.56437">
        <ele>625.718</ele>
        <time>2014-03-30T11:56:54Z</time>
      </trkpt>
      <trkpt lat="43.77009" lon="3.5645">
        <ele>624.958</ele>
        <time>2014-03-30T11:57:03Z</time>
      </trkpt>
      <trkpt lat="43.77011" lon="3.56455">
        <ele>623.828</ele>
        <time>2014-03-30T11:57:07Z</time>
      </trkpt>
      <trkpt lat="43.77013" lon="3.56462">
        <ele>623.578</ele>
        <time>2014-03-30T11:57:12Z</time>
      </trkpt>
      <trkpt lat="43.77015" lon="3.56471">
        <ele>624.499</ele>
        <time>2014-03-30T11:57:20Z</time>
      </trkpt>
      <trkpt lat="43.77019" lon="3.56479">
        <ele>623.608</ele>
        <time>2014-03-30T11:57:26Z</time>
      </trkpt>
      <trkpt lat="43.77023" lon="3.56493">
        <ele>625.749</ele>
        <time>2014-03-30T11:57:35Z</time>
      </trkpt>
      <trkpt lat="43.77025" lon="3.56502">
        <ele>622.688</ele>
        <time>2014-03-30T11:57:42Z</time>
      </trkpt>
      <trkpt lat="43.77029" lon="3.56511">
        <ele>619.198</ele>
        <time>2014-03-30T11:57:50Z</time>
      </trkpt>
      <trkpt lat="43.77033" lon="3.56521">
        <ele>617.559</ele>
        <time>2014-03-30T11:57:57Z</time>
      </trkpt>
      <trkpt lat="43.77038" lon="3.56534">
        <ele>616.149</ele>
        <time>2014-03-30T11:58:07Z</time>
      </trkpt>
      <trkpt lat="43.77044" lon="3.56546">
        <ele>615.889</ele>
        <time>2014-03-30T11:58:17Z</time>
      </trkpt>
      <trkpt lat="43.77049" lon="3.56557">
        <ele>614.328</ele>
        <time>2014-03-30T11:58:27Z</time>
      </trkpt>
      <trkpt lat="43.77051" lon="3.56566">
        <ele>613.749</ele>
        <time>2014-03-30T11:58:35Z</time>
      </trkpt>
      <trkpt lat="43.77055" lon="3.56577">
        <ele>612.869</ele>
        <time>2014-03-30T11:58:45Z</time>
      </trkpt>
      <trkpt lat="43.77055" lon="3.56579">
        <ele>613.51</ele>
        <time>2014-03-30T11:58:50Z</time>
      </trkpt>
      <trkpt lat="43.77057" lon="3.56586">
        <ele>616.389</ele>
        <time>2014-03-30T11:59:04Z</time>
      </trkpt>
      <trkpt lat="43.7706" lon="3.56598">
        <ele>615.119</ele>
        <time>2014-03-30T11:59:11Z</time>
      </trkpt>
      <trkpt lat="43.77063" lon="3.56605">
        <ele>614.229</ele>
        <time>2014-03-30T11:59:16Z</time>
      </trkpt>
      <trkpt lat="43.77065" lon="3.56614">
        <ele>611.828</ele>
        <time>2014-03-30T11:59:22Z</time>
      </trkpt>
      <trkpt lat="43.77067" lon="3.56619">
        <ele>610.968</ele>
        <time>2014-03-30T11:59:25Z</time>
      </trkpt>
      <trkpt lat="43.77073" lon="3.56631">
        <ele>609.278</ele>
        <time>2014-03-30T11:59:33Z</time>
      </trkpt>
      <trkpt lat="43.77077" lon="3.56645">
        <ele>605.618</ele>
        <time>2014-03-30T11:59:42Z</time>
      </trkpt>
      <trkpt lat="43.77079" lon="3.56654">
        <ele>604.469</ele>
        <time>2014-03-30T11:59:48Z</time>
      </trkpt>
      <trkpt lat="43.77084" lon="3.56666">
        <ele>605.149</ele>
        <time>2014-03-30T11:59:57Z</time>
      </trkpt>
      <trkpt lat="43.77087" lon="3.56675">
        <ele>603.789</ele>
        <time>2014-03-30T12:00:04Z</time>
      </trkpt>
      <trkpt lat="43.77089" lon="3.56687">
        <ele>600.208</ele>
        <time>2014-03-30T12:00:14Z</time>
      </trkpt>
      <trkpt lat="43.77095" lon="3.56697">
        <ele>598.529</ele>
        <time>2014-03-30T12:00:23Z</time>
      </trkpt>
      <trkpt lat="43.77099" lon="3.56704">
        <ele>597.899</ele>
        <time>2014-03-30T12:00:30Z</time>
      </trkpt>
      <trkpt lat="43.77102" lon="3.56714">
        <ele>594.188</ele>
        <time>2014-03-30T12:00:36Z</time>
      </trkpt>
      <trkpt lat="43.77103" lon="3.56717">
        <ele>594.969</ele>
        <time>2014-03-30T12:00:38Z</time>
      </trkpt>
      <trkpt lat="43.77108" lon="3.56723">
        <ele>596.489</ele>
        <time>2014-03-30T12:00:44Z</time>
      </trkpt>
      <trkpt lat="43.7711" lon="3.56728">
        <ele>595.649</ele>
        <time>2014-03-30T12:00:48Z</time>
      </trkpt>
      <trkpt lat="43.77114" lon="3.56737">
        <ele>594.919</ele>
        <time>2014-03-30T12:00:56Z</time>
      </trkpt>
      <trkpt lat="43.77117" lon="3.56743">
        <ele>592.318</ele>
        <time>2014-03-30T12:01:02Z</time>
      </trkpt>
      <trkpt lat="43.77119" lon="3.56748">
        <ele>591.279</ele>
        <time>2014-03-30T12:01:06Z</time>
      </trkpt>
      <trkpt lat="43.77121" lon="3.56753">
        <ele>588.849</ele>
        <time>2014-03-30T12:01:10Z</time>
      </trkpt>
      <trkpt lat="43.77123" lon="3.56761">
        <ele>587.649</ele>
        <time>2014-03-30T12:01:17Z</time>
      </trkpt>
      <trkpt lat="43.77127" lon="3.56768">
        <ele>591.63</ele>
        <time>2014-03-30T12:01:25Z</time>
      </trkpt>
      <trkpt lat="43.77134" lon="3.56773">
        <ele>591.62</ele>
        <time>2014-03-30T12:01:33Z</time>
      </trkpt>
      <trkpt lat="43.77139" lon="3.56777">
        <ele>595.061</ele>
        <time>2014-03-30T12:01:39Z</time>
      </trkpt>
      <trkpt lat="43.77146" lon="3.56779">
        <ele>598.942</ele>
        <time>2014-03-30T12:01:47Z</time>
      </trkpt>
      <trkpt lat="43.7715" lon="3.56777">
        <ele>601.052</ele>
        <time>2014-03-30T12:01:50Z</time>
      </trkpt>
      <trkpt lat="43.77156" lon="3.56772">
        <ele>603.481</ele>
        <time>2014-03-30T12:01:59Z</time>
      </trkpt>
      <trkpt lat="43.77162" lon="3.56768">
        <ele>602.881</ele>
        <time>2014-03-30T12:02:06Z</time>
      </trkpt>
      <trkpt lat="43.77171" lon="3.56764">
        <ele>599.24</ele>
        <time>2014-03-30T12:02:16Z</time>
      </trkpt>
      <trkpt lat="43.77179" lon="3.56764">
        <ele>596.03</ele>
        <time>2014-03-30T12:02:24Z</time>
      </trkpt>
      <trkpt lat="43.77187" lon="3.56764">
        <ele>595.57</ele>
        <time>2014-03-30T12:02:32Z</time>
      </trkpt>
      <trkpt lat="43.77194" lon="3.56768">
        <ele>593.92</ele>
        <time>2014-03-30T12:02:40Z</time>
      </trkpt>
      <trkpt lat="43.772" lon="3.56769">
        <ele>593.03</ele>
        <time>2014-03-30T12:02:47Z</time>
      </trkpt>
      <trkpt lat="43.77208" lon="3.56772">
        <ele>591.41</ele>
        <time>2014-03-30T12:02:57Z</time>
      </trkpt>
      <trkpt lat="43.77212" lon="3.56774">
        <ele>590.52</ele>
        <time>2014-03-30T12:03:01Z</time>
      </trkpt>
      <trkpt lat="43.77217" lon="3.56779">
        <ele>589.43</ele>
        <time>2014-03-30T12:03:08Z</time>
      </trkpt>
      <trkpt lat="43.7722" lon="3.56782">
        <ele>588.88</ele>
        <time>2014-03-30T12:03:13Z</time>
      </trkpt>
      <trkpt lat="43.77225" lon="3.56787">
        <ele>587.77</ele>
        <time>2014-03-30T12:03:20Z</time>
      </trkpt>
      <trkpt lat="43.77232" lon="3.56793">
        <ele>586.3</ele>
        <time>2014-03-30T12:03:29Z</time>
      </trkpt>
      <trkpt lat="43.77237" lon="3.568">
        <ele>584.83</ele>
        <time>2014-03-30T12:03:37Z</time>
      </trkpt>
      <trkpt lat="43.77237" lon="3.56801">
        <ele>584.92</ele>
        <time>2014-03-30T12:03:43Z</time>
      </trkpt>
      <trkpt lat="43.7724" lon="3.56805">
        <ele>584.35</ele>
        <time>2014-03-30T12:03:48Z</time>
      </trkpt>
      <trkpt lat="43.77246" lon="3.56813">
        <ele>582.52</ele>
        <time>2014-03-30T12:03:57Z</time>
      </trkpt>
      <trkpt lat="43.77247" lon="3.56815">
        <ele>581.921</ele>
        <time>2014-03-30T12:04:04Z</time>
      </trkpt>
      <trkpt lat="43.7725" lon="3.56819">
        <ele>581.15</ele>
        <time>2014-03-30T12:04:13Z</time>
      </trkpt>
      <trkpt lat="43.77257" lon="3.56829">
        <ele>579.25</ele>
        <time>2014-03-30T12:04:22Z</time>
      </trkpt>
      <trkpt lat="43.77257" lon="3.5683">
        <ele>579.17</ele>
        <time>2014-03-30T12:04:23Z</time>
      </trkpt>
      <trkpt lat="43.77262" lon="3.56838">
        <ele>578.57</ele>
        <time>2014-03-30T12:04:29Z</time>
      </trkpt>
      <trkpt lat="43.77268" lon="3.56845">
        <ele>576.34</ele>
        <time>2014-03-30T12:04:36Z</time>
      </trkpt>
      <trkpt lat="43.77273" lon="3.56856">
        <ele>572.299</ele>
        <time>2014-03-30T12:04:45Z</time>
      </trkpt>
      <trkpt lat="43.77278" lon="3.56867">
        <ele>568.96</ele>
        <time>2014-03-30T12:04:54Z</time>
      </trkpt>
      <trkpt lat="43.77283" lon="3.56877">
        <ele>568.4</ele>
        <time>2014-03-30T12:05:02Z</time>
      </trkpt>
      <trkpt lat="43.77287" lon="3.56885">
        <ele>567.711</ele>
        <time>2014-03-30T12:05:09Z</time>
      </trkpt>
      <trkpt lat="43.77292" lon="3.56894">
        <ele>566.47</ele>
        <time>2014-03-30T12:05:17Z</time>
      </trkpt>
      <trkpt lat="43.77296" lon="3.56904">
        <ele>565.01</ele>
        <time>2014-03-30T12:05:26Z</time>
      </trkpt>
      <trkpt lat="43.773" lon="3.56915">
        <ele>564.32</ele>
        <time>2014-03-30T12:05:34Z</time>
      </trkpt>
      <trkpt lat="43.77303" lon="3.5692">
        <ele>562.589</ele>
        <time>2014-03-30T12:05:38Z</time>
      </trkpt>
      <trkpt lat="43.77304" lon="3.56924">
        <ele>561.12</ele>
        <time>2014-03-30T12:05:41Z</time>
      </trkpt>
      <trkpt lat="43.77306" lon="3.5693">
        <ele>558.839</ele>
        <time>2014-03-30T12:05:45Z</time>
      </trkpt>
      <trkpt lat="43.77311" lon="3.56943">
        <ele>555.77</ele>
        <time>2014-03-30T12:05:54Z</time>
      </trkpt>
      <trkpt lat="43.77313" lon="3.56952">
        <ele>554.701</ele>
        <time>2014-03-30T12:06:01Z</time>
      </trkpt>
      <trkpt lat="43.77317" lon="3.56962">
        <ele>554.6</ele>
        <time>2014-03-30T12:06:08Z</time>
      </trkpt>
      <trkpt lat="43.77319" lon="3.56968">
        <ele>553.08</ele>
        <time>2014-03-30T12:06:13Z</time>
      </trkpt>
      <trkpt lat="43.77322" lon="3.56978">
        <ele>551.56</ele>
        <time>2014-03-30T12:06:19Z</time>
      </trkpt>
      <trkpt lat="43.77325" lon="3.56991">
        <ele>551.031</ele>
        <time>2014-03-30T12:06:28Z</time>
      </trkpt>
      <trkpt lat="43.77327" lon="3.56999">
        <ele>548.24</ele>
        <time>2014-03-30T12:06:33Z</time>
      </trkpt>
      <trkpt lat="43.7733" lon="3.57004">
        <ele>547.74</ele>
        <time>2014-03-30T12:06:37Z</time>
      </trkpt>
      <trkpt lat="43.77331" lon="3.57013">
        <ele>546.951</ele>
        <time>2014-03-30T12:06:43Z</time>
      </trkpt>
      <trkpt lat="43.77334" lon="3.57023">
        <ele>545.49</ele>
        <time>2014-03-30T12:06:51Z</time>
      </trkpt>
      <trkpt lat="43.77337" lon="3.57032">
        <ele>543.191</ele>
        <time>2014-03-30T12:06:57Z</time>
      </trkpt>
      <trkpt lat="43.77344" lon="3.57041">
        <ele>543.151</ele>
        <time>2014-03-30T12:07:05Z</time>
      </trkpt>
      <trkpt lat="43.7735" lon="3.57047">
        <ele>542.801</ele>
        <time>2014-03-30T12:07:12Z</time>
      </trkpt>
      <trkpt lat="43.77357" lon="3.57054">
        <ele>543.452</ele>
        <time>2014-03-30T12:07:20Z</time>
      </trkpt>
      <trkpt lat="43.77363" lon="3.5706">
        <ele>543.492</ele>
        <time>2014-03-30T12:07:28Z</time>
      </trkpt>
      <trkpt lat="43.77369" lon="3.57067">
        <ele>544.881</ele>
        <time>2014-03-30T12:07:35Z</time>
      </trkpt>
      <trkpt lat="43.77375" lon="3.57073">
        <ele>545.051</ele>
        <time>2014-03-30T12:07:43Z</time>
      </trkpt>
      <trkpt lat="43.77382" lon="3.57078">
        <ele>543.112</ele>
        <time>2014-03-30T12:07:50Z</time>
      </trkpt>
      <trkpt lat="43.77391" lon="3.57084">
        <ele>541.972</ele>
        <time>2014-03-30T12:07:59Z</time>
      </trkpt>
      <trkpt lat="43.77399" lon="3.57087">
        <ele>541.932</ele>
        <time>2014-03-30T12:08:06Z</time>
      </trkpt>
      <trkpt lat="43.77405" lon="3.57092">
        <ele>543.152</ele>
        <time>2014-03-30T12:08:13Z</time>
      </trkpt>
      <trkpt lat="43.77411" lon="3.57093">
        <ele>541.402</ele>
        <time>2014-03-30T12:08:18Z</time>
      </trkpt>
      <trkpt lat="43.7742" lon="3.57098">
        <ele>541.062</ele>
        <time>2014-03-30T12:08:26Z</time>
      </trkpt>
      <trkpt lat="43.77429" lon="3.57104">
        <ele>539.18</ele>
        <time>2014-03-30T12:08:33Z</time>
      </trkpt>
      <trkpt lat="43.77434" lon="3.57108">
        <ele>537.721</ele>
        <time>2014-03-30T12:08:39Z</time>
      </trkpt>
      <trkpt lat="43.7744" lon="3.57116">
        <ele>537.802</ele>
        <time>2014-03-30T12:08:47Z</time>
      </trkpt>
      <trkpt lat="43.77444" lon="3.57121">
        <ele>538.983</ele>
        <time>2014-03-30T12:08:52Z</time>
      </trkpt>
      <trkpt lat="43.77453" lon="3.57131">
        <ele>538.223</ele>
        <time>2014-03-30T12:09:01Z</time>
      </trkpt>
      <trkpt lat="43.77459" lon="3.57139">
        <ele>539.163</ele>
        <time>2014-03-30T12:09:09Z</time>
      </trkpt>
      <trkpt lat="43.77465" lon="3.57146">
        <ele>537.702</ele>
        <time>2014-03-30T12:09:15Z</time>
      </trkpt>
      <trkpt lat="43.77469" lon="3.57154">
        <ele>535.262</ele>
        <time>2014-03-30T12:09:22Z</time>
      </trkpt>
      <trkpt lat="43.77471" lon="3.57165">
        <ele>533.501</ele>
        <time>2014-03-30T12:09:31Z</time>
      </trkpt>
      <trkpt lat="43.77472" lon="3.57174">
        <ele>532.402</ele>
        <time>2014-03-30T12:09:38Z</time>
      </trkpt>
      <trkpt lat="43.77474" lon="3.57182">
        <ele>530.902</ele>
        <time>2014-03-30T12:09:46Z</time>
      </trkpt>
      <trkpt lat="43.77476" lon="3.57188">
        <ele>529.972</ele>
        <time>2014-03-30T12:09:53Z</time>
      </trkpt>
      <trkpt lat="43.77476" lon="3.5719">
        <ele>532.612</ele>
        <time>2014-03-30T12:10:01Z</time>
      </trkpt>
      <trkpt lat="43.77475" lon="3.57194">
        <ele>532.872</ele>
        <time>2014-03-30T12:10:16Z</time>
      </trkpt>
      <trkpt lat="43.77475" lon="3.57202">
        <ele>532.382</ele>
        <time>2014-03-30T12:10:25Z</time>
      </trkpt>
      <trkpt lat="43.77478" lon="3.57211">
        <ele>529.282</ele>
        <time>2014-03-30T12:10:34Z</time>
      </trkpt>
      <trkpt lat="43.77478" lon="3.57216">
        <ele>529.382</ele>
        <time>2014-03-30T12:10:41Z</time>
      </trkpt>
      <trkpt lat="43.77478" lon="3.57222">
        <ele>529.162</ele>
        <time>2014-03-30T12:10:48Z</time>
      </trkpt>
      <trkpt lat="43.77479" lon="3.57226">
        <ele>532.463</ele>
        <time>2014-03-30T12:10:56Z</time>
      </trkpt>
      <trkpt lat="43.77479" lon="3.5723">
        <ele>539.653</ele>
        <time>2014-03-30T12:11:05Z</time>
      </trkpt>
      <trkpt lat="43.77479" lon="3.57233">
        <ele>539.362</ele>
        <time>2014-03-30T12:11:11Z</time>
      </trkpt>
      <trkpt lat="43.77478" lon="3.57236">
        <ele>538.863</ele>
        <time>2014-03-30T12:11:16Z</time>
      </trkpt>
      <trkpt lat="43.77478" lon="3.5724">
        <ele>537.532</ele>
        <time>2014-03-30T12:11:22Z</time>
      </trkpt>
      <trkpt lat="43.77478" lon="3.57245">
        <ele>538.623</ele>
        <time>2014-03-30T12:11:30Z</time>
      </trkpt>
      <trkpt lat="43.77477" lon="3.57246">
        <ele>539.822</ele>
        <time>2014-03-30T12:11:40Z</time>
      </trkpt>
      <trkpt lat="43.77476" lon="3.57248">
        <ele>541.142</ele>
        <time>2014-03-30T12:11:47Z</time>
      </trkpt>
      <trkpt lat="43.77473" lon="3.57253">
        <ele>544.783</ele>
        <time>2014-03-30T12:12:40Z</time>
      </trkpt>
      <trkpt lat="43.77477" lon="3.57249">
        <ele>542.832</ele>
        <time>2014-03-30T12:13:39Z</time>
      </trkpt>
      <trkpt lat="43.77477" lon="3.57251">
        <ele>548.083</ele>
        <time>2014-03-30T12:14:29Z</time>
      </trkpt>
      <trkpt lat="43.77475" lon="3.57255">
        <ele>547.952</ele>
        <time>2014-03-30T12:14:44Z</time>
      </trkpt>
      <trkpt lat="43.77474" lon="3.57257">
        <ele>547.763</ele>
        <time>2014-03-30T12:14:49Z</time>
      </trkpt>
      <trkpt lat="43.77473" lon="3.57263">
        <ele>548.263</ele>
        <time>2014-03-30T12:16:05Z</time>
      </trkpt>
      <trkpt lat="43.77467" lon="3.57268">
        <ele>549.562</ele>
        <time>2014-03-30T12:16:14Z</time>
      </trkpt>
      <trkpt lat="43.77465" lon="3.5727">
        <ele>549.753</ele>
        <time>2014-03-30T12:16:18Z</time>
      </trkpt>
      <trkpt lat="43.77455" lon="3.57272">
        <ele>548.001</ele>
        <time>2014-03-30T12:16:28Z</time>
      </trkpt>
      <trkpt lat="43.77449" lon="3.57274">
        <ele>545.621</ele>
        <time>2014-03-30T12:16:35Z</time>
      </trkpt>
      <trkpt lat="43.77443" lon="3.57277">
        <ele>544.301</ele>
        <time>2014-03-30T12:16:43Z</time>
      </trkpt>
      <trkpt lat="43.77435" lon="3.57278">
        <ele>543.912</ele>
        <time>2014-03-30T12:16:52Z</time>
      </trkpt>
      <trkpt lat="43.77433" lon="3.57279">
        <ele>544.872</ele>
        <time>2014-03-30T12:16:56Z</time>
      </trkpt>
      <trkpt lat="43.77431" lon="3.5728">
        <ele>543.882</ele>
        <time>2014-03-30T12:17:04Z</time>
      </trkpt>
      <trkpt lat="43.77426" lon="3.57281">
        <ele>543.892</ele>
        <time>2014-03-30T12:17:12Z</time>
      </trkpt>
      <trkpt lat="43.77417" lon="3.57282">
        <ele>544.092</ele>
        <time>2014-03-30T12:17:22Z</time>
      </trkpt>
      <trkpt lat="43.77408" lon="3.57281">
        <ele>544.812</ele>
        <time>2014-03-30T12:17:31Z</time>
      </trkpt>
      <trkpt lat="43.77407" lon="3.57281">
        <ele>545.042</ele>
        <time>2014-03-30T12:17:32Z</time>
      </trkpt>
      <trkpt lat="43.77403" lon="3.57279">
        <ele>544.822</ele>
        <time>2014-03-30T12:17:37Z</time>
      </trkpt>
      <trkpt lat="43.77392" lon="3.57275">
        <ele>540.662</ele>
        <time>2014-03-30T12:17:49Z</time>
      </trkpt>
      <trkpt lat="43.77384" lon="3.57273">
        <ele>539.672</ele>
        <time>2014-03-30T12:17:58Z</time>
      </trkpt>
      <trkpt lat="43.77382" lon="3.57272">
        <ele>539.482</ele>
        <time>2014-03-30T12:18:00Z</time>
      </trkpt>
      <trkpt lat="43.77374" lon="3.57271">
        <ele>539.342</ele>
        <time>2014-03-30T12:18:09Z</time>
      </trkpt>
      <trkpt lat="43.77366" lon="3.57271">
        <ele>535.641</ele>
        <time>2014-03-30T12:18:17Z</time>
      </trkpt>
      <trkpt lat="43.77357" lon="3.5727">
        <ele>534.951</ele>
        <time>2014-03-30T12:18:25Z</time>
      </trkpt>
      <trkpt lat="43.77356" lon="3.5727">
        <ele>538.442</ele>
        <time>2014-03-30T12:18:32Z</time>
      </trkpt>
      <trkpt lat="43.77355" lon="3.57271">
        <ele>540.502</ele>
        <time>2014-03-30T12:18:43Z</time>
      </trkpt>
      <trkpt lat="43.77352" lon="3.57272">
        <ele>541.492</ele>
        <time>2014-03-30T12:18:50Z</time>
      </trkpt>
      <trkpt lat="43.77348" lon="3.57271">
        <ele>541.022</ele>
        <time>2014-03-30T12:18:56Z</time>
      </trkpt>
      <trkpt lat="43.77346" lon="3.57271">
        <ele>540.562</ele>
        <time>2014-03-30T12:19:00Z</time>
      </trkpt>
      <trkpt lat="43.77337" lon="3.5727">
        <ele>537.69</ele>
        <time>2014-03-30T12:19:08Z</time>
      </trkpt>
      <trkpt lat="43.77331" lon="3.57274">
        <ele>536.941</ele>
        <time>2014-03-30T12:19:16Z</time>
      </trkpt>
      <trkpt lat="43.77329" lon="3.57275">
        <ele>540.502</ele>
        <time>2014-03-30T12:19:33Z</time>
      </trkpt>
      <trkpt lat="43.77325" lon="3.57275">
        <ele>540.712</ele>
        <time>2014-03-30T12:19:39Z</time>
      </trkpt>
      <trkpt lat="43.77321" lon="3.57275">
        <ele>540.111</ele>
        <time>2014-03-30T12:19:45Z</time>
      </trkpt>
      <trkpt lat="43.77319" lon="3.57277">
        <ele>539.521</ele>
        <time>2014-03-30T12:19:51Z</time>
      </trkpt>
      <trkpt lat="43.77314" lon="3.57277">
        <ele>538.571</ele>
        <time>2014-03-30T12:19:58Z</time>
      </trkpt>
      <trkpt lat="43.77309" lon="3.57278">
        <ele>537.471</ele>
        <time>2014-03-30T12:20:03Z</time>
      </trkpt>
      <trkpt lat="43.77302" lon="3.57275">
        <ele>537.272</ele>
        <time>2014-03-30T12:20:10Z</time>
      </trkpt>
      <trkpt lat="43.773" lon="3.57275">
        <ele>537.912</ele>
        <time>2014-03-30T12:20:13Z</time>
      </trkpt>
      <trkpt lat="43.77294" lon="3.57276">
        <ele>539.292</ele>
        <time>2014-03-30T12:20:21Z</time>
      </trkpt>
      <trkpt lat="43.77293" lon="3.57277">
        <ele>539.982</ele>
        <time>2014-03-30T12:20:25Z</time>
      </trkpt>
      <trkpt lat="43.77291" lon="3.57275">
        <ele>538.742</ele>
        <time>2014-03-30T12:20:30Z</time>
      </trkpt>
      <trkpt lat="43.77284" lon="3.57273">
        <ele>537.711</ele>
        <time>2014-03-30T12:20:37Z</time>
      </trkpt>
      <trkpt lat="43.77276" lon="3.57269">
        <ele>538.762</ele>
        <time>2014-03-30T12:20:44Z</time>
      </trkpt>
      <trkpt lat="43.77275" lon="3.57267">
        <ele>539.172</ele>
        <time>2014-03-30T12:20:46Z</time>
      </trkpt>
      <trkpt lat="43.77274" lon="3.57255">
        <ele>536.741</ele>
        <time>2014-03-30T12:20:55Z</time>
      </trkpt>
      <trkpt lat="43.77274" lon="3.57251">
        <ele>535.292</ele>
        <time>2014-03-30T12:21:03Z</time>
      </trkpt>
      <trkpt lat="43.77273" lon="3.5725">
        <ele>535.832</ele>
        <time>2014-03-30T12:21:12Z</time>
      </trkpt>
      <trkpt lat="43.77275" lon="3.57247">
        <ele>537.462</ele>
        <time>2014-03-30T12:21:31Z</time>
      </trkpt>
      <trkpt lat="43.77277" lon="3.57242">
        <ele>539.262</ele>
        <time>2014-03-30T12:21:40Z</time>
      </trkpt>
      <trkpt lat="43.77275" lon="3.57239">
        <ele>540.562</ele>
        <time>2014-03-30T12:21:45Z</time>
      </trkpt>
      <trkpt lat="43.77273" lon="3.57236">
        <ele>540.982</ele>
        <time>2014-03-30T12:21:51Z</time>
      </trkpt>
      <trkpt lat="43.77273" lon="3.57235">
        <ele>541.162</ele>
        <time>2014-03-30T12:21:52Z</time>
      </trkpt>
      <trkpt lat="43.7727" lon="3.57226">
        <ele>541.011</ele>
        <time>2014-03-30T12:22:00Z</time>
      </trkpt>
      <trkpt lat="43.7727" lon="3.57224">
        <ele>541.011</ele>
        <time>2014-03-30T12:22:01Z</time>
      </trkpt>
      <trkpt lat="43.77266" lon="3.57219">
        <ele>541.121</ele>
        <time>2014-03-30T12:22:09Z</time>
      </trkpt>
      <trkpt lat="43.77261" lon="3.57214">
        <ele>542.241</ele>
        <time>2014-03-30T12:22:20Z</time>
      </trkpt>
      <trkpt lat="43.77257" lon="3.57211">
        <ele>540.131</ele>
        <time>2014-03-30T12:22:28Z</time>
      </trkpt>
      <trkpt lat="43.77254" lon="3.57209">
        <ele>537.86</ele>
        <time>2014-03-30T12:22:35Z</time>
      </trkpt>
      <trkpt lat="43.77251" lon="3.57207">
        <ele>527.65</ele>
        <time>2014-03-30T12:22:44Z</time>
      </trkpt>
      <trkpt lat="43.77246" lon="3.57205">
        <ele>525.081</ele>
        <time>2014-03-30T12:22:52Z</time>
      </trkpt>
      <trkpt lat="43.77246" lon="3.57204">
        <ele>524.621</ele>
        <time>2014-03-30T12:22:53Z</time>
      </trkpt>
      <trkpt lat="43.77241" lon="3.57204">
        <ele>522.061</ele>
        <time>2014-03-30T12:23:00Z</time>
      </trkpt>
      <trkpt lat="43.77238" lon="3.57204">
        <ele>520.841</ele>
        <time>2014-03-30T12:23:05Z</time>
      </trkpt>
      <trkpt lat="43.7723" lon="3.57203">
        <ele>515.741</ele>
        <time>2014-03-30T12:23:14Z</time>
      </trkpt>
      <trkpt lat="43.7722" lon="3.57199">
        <ele>507.441</ele>
        <time>2014-03-30T12:23:24Z</time>
      </trkpt>
      <trkpt lat="43.77212" lon="3.57198">
        <ele>504.651</ele>
        <time>2014-03-30T12:23:33Z</time>
      </trkpt>
      <trkpt lat="43.77201" lon="3.57196">
        <ele>503.321</ele>
        <time>2014-03-30T12:23:43Z</time>
      </trkpt>
      <trkpt lat="43.77196" lon="3.57197">
        <ele>508.502</ele>
        <time>2014-03-30T12:23:51Z</time>
      </trkpt>
      <trkpt lat="43.77191" lon="3.57199">
        <ele>513.672</ele>
        <time>2014-03-30T12:23:57Z</time>
      </trkpt>
      <trkpt lat="43.77183" lon="3.57201">
        <ele>517.152</ele>
        <time>2014-03-30T12:24:05Z</time>
      </trkpt>
      <trkpt lat="43.77175" lon="3.572">
        <ele>521.972</ele>
        <time>2014-03-30T12:24:14Z</time>
      </trkpt>
      <trkpt lat="43.77172" lon="3.57201">
        <ele>523.242</ele>
        <time>2014-03-30T12:24:17Z</time>
      </trkpt>
      <trkpt lat="43.77164" lon="3.572">
        <ele>526.722</ele>
        <time>2014-03-30T12:24:26Z</time>
      </trkpt>
      <trkpt lat="43.77157" lon="3.57198">
        <ele>526.962</ele>
        <time>2014-03-30T12:24:34Z</time>
      </trkpt>
      <trkpt lat="43.77149" lon="3.57198">
        <ele>529.762</ele>
        <time>2014-03-30T12:24:43Z</time>
      </trkpt>
      <trkpt lat="43.77147" lon="3.57198">
        <ele>529.701</ele>
        <time>2014-03-30T12:24:45Z</time>
      </trkpt>
      <trkpt lat="43.7714" lon="3.57204">
        <ele>525.551</ele>
        <time>2014-03-30T12:24:54Z</time>
      </trkpt>
      <trkpt lat="43.77129" lon="3.57207">
        <ele>527.411</ele>
        <time>2014-03-30T12:25:04Z</time>
      </trkpt>
      <trkpt lat="43.77125" lon="3.57206">
        <ele>527.781</ele>
        <time>2014-03-30T12:25:08Z</time>
      </trkpt>
      <trkpt lat="43.77116" lon="3.57209">
        <ele>521.19</ele>
        <time>2014-03-30T12:25:17Z</time>
      </trkpt>
      <trkpt lat="43.77107" lon="3.57209">
        <ele>520.071</ele>
        <time>2014-03-30T12:25:25Z</time>
      </trkpt>
      <trkpt lat="43.77095" lon="3.57209">
        <ele>520.751</ele>
        <time>2014-03-30T12:25:35Z</time>
      </trkpt>
      <trkpt lat="43.77087" lon="3.57213">
        <ele>522.621</ele>
        <time>2014-03-30T12:25:44Z</time>
      </trkpt>
      <trkpt lat="43.7708" lon="3.57216">
        <ele>524.191</ele>
        <time>2014-03-30T12:25:55Z</time>
      </trkpt>
      <trkpt lat="43.77075" lon="3.57216">
        <ele>525.061</ele>
        <time>2014-03-30T12:26:01Z</time>
      </trkpt>
      <trkpt lat="43.77072" lon="3.57216">
        <ele>526.331</ele>
        <time>2014-03-30T12:26:07Z</time>
      </trkpt>
      <trkpt lat="43.77064" lon="3.57215">
        <ele>526.451</ele>
        <time>2014-03-30T12:26:16Z</time>
      </trkpt>
      <trkpt lat="43.77058" lon="3.57217">
        <ele>524.991</ele>
        <time>2014-03-30T12:26:24Z</time>
      </trkpt>
      <trkpt lat="43.77052" lon="3.57218">
        <ele>525.671</ele>
        <time>2014-03-30T12:26:31Z</time>
      </trkpt>
      <trkpt lat="43.77048" lon="3.5722">
        <ele>522.68</ele>
        <time>2014-03-30T12:26:39Z</time>
      </trkpt>
      <trkpt lat="43.77047" lon="3.5722">
        <ele>522.85</ele>
        <time>2014-03-30T12:26:40Z</time>
      </trkpt>
      <trkpt lat="43.77044" lon="3.57222">
        <ele>522.141</ele>
        <time>2014-03-30T12:26:45Z</time>
      </trkpt>
      <trkpt lat="43.77037" lon="3.57222">
        <ele>521.681</ele>
        <time>2014-03-30T12:26:53Z</time>
      </trkpt>
      <trkpt lat="43.77033" lon="3.5722">
        <ele>517.35</ele>
        <time>2014-03-30T12:27:00Z</time>
      </trkpt>
      <trkpt lat="43.7703" lon="3.57218">
        <ele>516.23</ele>
        <time>2014-03-30T12:27:05Z</time>
      </trkpt>
      <trkpt lat="43.77025" lon="3.57217">
        <ele>512.92</ele>
        <time>2014-03-30T12:27:10Z</time>
      </trkpt>
      <trkpt lat="43.77015" lon="3.57214">
        <ele>510.941</ele>
        <time>2014-03-30T12:27:20Z</time>
      </trkpt>
      <trkpt lat="43.77008" lon="3.57213">
        <ele>512.571</ele>
        <time>2014-03-30T12:27:27Z</time>
      </trkpt>
      <trkpt lat="43.77002" lon="3.5721">
        <ele>512.561</ele>
        <time>2014-03-30T12:27:34Z</time>
      </trkpt>
      <trkpt lat="43.76995" lon="3.57209">
        <ele>512.541</ele>
        <time>2014-03-30T12:27:42Z</time>
      </trkpt>
      <trkpt lat="43.76987" lon="3.57205">
        <ele>510.511</ele>
        <time>2014-03-30T12:27:50Z</time>
      </trkpt>
      <trkpt lat="43.7698" lon="3.572">
        <ele>512.902</ele>
        <time>2014-03-30T12:27:59Z</time>
      </trkpt>
      <trkpt lat="43.76973" lon="3.57195">
        <ele>513.241</ele>
        <time>2014-03-30T12:28:06Z</time>
      </trkpt>
      <trkpt lat="43.76971" lon="3.57194">
        <ele>512.711</ele>
        <time>2014-03-30T12:28:08Z</time>
      </trkpt>
      <trkpt lat="43.76969" lon="3.57194">
        <ele>512.461</ele>
        <time>2014-03-30T12:28:10Z</time>
      </trkpt>
      <trkpt lat="43.76964" lon="3.5719">
        <ele>513.201</ele>
        <time>2014-03-30T12:28:18Z</time>
      </trkpt>
      <trkpt lat="43.76961" lon="3.57186">
        <ele>513.911</ele>
        <time>2014-03-30T12:28:22Z</time>
      </trkpt>
      <trkpt lat="43.76954" lon="3.57181">
        <ele>516.941</ele>
        <time>2014-03-30T12:28:31Z</time>
      </trkpt>
      <trkpt lat="43.76948" lon="3.57174">
        <ele>517.461</ele>
        <time>2014-03-30T12:28:40Z</time>
      </trkpt>
      <trkpt lat="43.76947" lon="3.57173">
        <ele>517.121</ele>
        <time>2014-03-30T12:28:42Z</time>
      </trkpt>
      <trkpt lat="43.76938" lon="3.57168">
        <ele>517.101</ele>
        <time>2014-03-30T12:28:52Z</time>
      </trkpt>
      <trkpt lat="43.76936" lon="3.57166">
        <ele>516.311</ele>
        <time>2014-03-30T12:28:55Z</time>
      </trkpt>
      <trkpt lat="43.76928" lon="3.57162">
        <ele>517.481</ele>
        <time>2014-03-30T12:29:04Z</time>
      </trkpt>
      <trkpt lat="43.76926" lon="3.5716">
        <ele>518.4</ele>
        <time>2014-03-30T12:29:07Z</time>
      </trkpt>
      <trkpt lat="43.76924" lon="3.57155">
        <ele>520.211</ele>
        <time>2014-03-30T12:29:12Z</time>
      </trkpt>
      <trkpt lat="43.7692" lon="3.57151">
        <ele>521.491</ele>
        <time>2014-03-30T12:29:17Z</time>
      </trkpt>
      <trkpt lat="43.76916" lon="3.57146">
        <ele>521.071</ele>
        <time>2014-03-30T12:29:23Z</time>
      </trkpt>
      <trkpt lat="43.76913" lon="3.5714">
        <ele>519.951</ele>
        <time>2014-03-30T12:29:28Z</time>
      </trkpt>
      <trkpt lat="43.76908" lon="3.57139">
        <ele>521.151</ele>
        <time>2014-03-30T12:29:35Z</time>
      </trkpt>
      <trkpt lat="43.76908" lon="3.57137">
        <ele>519.78</ele>
        <time>2014-03-30T12:29:43Z</time>
      </trkpt>
      <trkpt lat="43.76903" lon="3.57127">
        <ele>517.61</ele>
        <time>2014-03-30T12:29:51Z</time>
      </trkpt>
      <trkpt lat="43.76899" lon="3.57123">
        <ele>518.2</ele>
        <time>2014-03-30T12:29:55Z</time>
      </trkpt>
      <trkpt lat="43.76896" lon="3.5712">
        <ele>519.44</ele>
        <time>2014-03-30T12:29:59Z</time>
      </trkpt>
      <trkpt lat="43.76889" lon="3.57108">
        <ele>515.78</ele>
        <time>2014-03-30T12:30:09Z</time>
      </trkpt>
      <trkpt lat="43.76886" lon="3.57104">
        <ele>513.28</ele>
        <time>2014-03-30T12:30:13Z</time>
      </trkpt>
      <trkpt lat="43.76879" lon="3.571">
        <ele>513.95</ele>
        <time>2014-03-30T12:30:20Z</time>
      </trkpt>
      <trkpt lat="43.76874" lon="3.57093">
        <ele>511.01</ele>
        <time>2014-03-30T12:30:26Z</time>
      </trkpt>
      <trkpt lat="43.76871" lon="3.57088">
        <ele>510.87</ele>
        <time>2014-03-30T12:30:31Z</time>
      </trkpt>
      <trkpt lat="43.7687" lon="3.57084">
        <ele>509.81</ele>
        <time>2014-03-30T12:30:34Z</time>
      </trkpt>
      <trkpt lat="43.76864" lon="3.57076">
        <ele>509.07</ele>
        <time>2014-03-30T12:30:41Z</time>
      </trkpt>
      <trkpt lat="43.7686" lon="3.57074">
        <ele>511.36</ele>
        <time>2014-03-30T12:30:45Z</time>
      </trkpt>
      <trkpt lat="43.76858" lon="3.57068">
        <ele>509.28</ele>
        <time>2014-03-30T12:30:49Z</time>
      </trkpt>
      <trkpt lat="43.76857" lon="3.57064">
        <ele>509.46</ele>
        <time>2014-03-30T12:30:52Z</time>
      </trkpt>
      <trkpt lat="43.76852" lon="3.57061">
        <ele>506.449</ele>
        <time>2014-03-30T12:30:58Z</time>
      </trkpt>
      <trkpt lat="43.76849" lon="3.5706">
        <ele>506.699</ele>
        <time>2014-03-30T12:31:01Z</time>
      </trkpt>
      <trkpt lat="43.76845" lon="3.57056">
        <ele>506.75</ele>
        <time>2014-03-30T12:31:05Z</time>
      </trkpt>
      <trkpt lat="43.76841" lon="3.57053">
        <ele>506.69</ele>
        <time>2014-03-30T12:31:10Z</time>
      </trkpt>
      <trkpt lat="43.76836" lon="3.57048">
        <ele>507.47</ele>
        <time>2014-03-30T12:31:16Z</time>
      </trkpt>
      <trkpt lat="43.76828" lon="3.57048">
        <ele>512.04</ele>
        <time>2014-03-30T12:31:25Z</time>
      </trkpt>
      <trkpt lat="43.76825" lon="3.57047">
        <ele>513.72</ele>
        <time>2014-03-30T12:31:29Z</time>
      </trkpt>
      <trkpt lat="43.76818" lon="3.57043">
        <ele>515.92</ele>
        <time>2014-03-30T12:31:38Z</time>
      </trkpt>
      <trkpt lat="43.7681" lon="3.57041">
        <ele>514.46</ele>
        <time>2014-03-30T12:31:46Z</time>
      </trkpt>
      <trkpt lat="43.76801" lon="3.5704">
        <ele>509.329</ele>
        <time>2014-03-30T12:31:55Z</time>
      </trkpt>
      <trkpt lat="43.76791" lon="3.57037">
        <ele>508.79</ele>
        <time>2014-03-30T12:32:04Z</time>
      </trkpt>
      <trkpt lat="43.76781" lon="3.5703">
        <ele>510.269</ele>
        <time>2014-03-30T12:32:15Z</time>
      </trkpt>
      <trkpt lat="43.76778" lon="3.57028">
        <ele>510.859</ele>
        <time>2014-03-30T12:32:18Z</time>
      </trkpt>
      <trkpt lat="43.76772" lon="3.57021">
        <ele>510.389</ele>
        <time>2014-03-30T12:32:27Z</time>
      </trkpt>
      <trkpt lat="43.76768" lon="3.57019">
        <ele>510.259</ele>
        <time>2014-03-30T12:32:33Z</time>
      </trkpt>
      <trkpt lat="43.76767" lon="3.57018">
        <ele>510.269</ele>
        <time>2014-03-30T12:32:34Z</time>
      </trkpt>
      <trkpt lat="43.76759" lon="3.57013">
        <ele>508.419</ele>
        <time>2014-03-30T12:32:43Z</time>
      </trkpt>
      <trkpt lat="43.76755" lon="3.57009">
        <ele>507.149</ele>
        <time>2014-03-30T12:32:50Z</time>
      </trkpt>
      <trkpt lat="43.76755" lon="3.5701">
        <ele>506.179</ele>
        <time>2014-03-30T12:32:55Z</time>
      </trkpt>
      <trkpt lat="43.76754" lon="3.57009">
        <ele>506.16</ele>
        <time>2014-03-30T12:33:01Z</time>
      </trkpt>
      <trkpt lat="43.7675" lon="3.57003">
        <ele>506.769</ele>
        <time>2014-03-30T12:33:06Z</time>
      </trkpt>
      <trkpt lat="43.76746" lon="3.56999">
        <ele>505.938</ele>
        <time>2014-03-30T12:33:10Z</time>
      </trkpt>
      <trkpt lat="43.76743" lon="3.56995">
        <ele>504.718</ele>
        <time>2014-03-30T12:33:14Z</time>
      </trkpt>
      <trkpt lat="43.76736" lon="3.56988">
        <ele>504.669</ele>
        <time>2014-03-30T12:33:23Z</time>
      </trkpt>
      <trkpt lat="43.76732" lon="3.56981">
        <ele>503.369</ele>
        <time>2014-03-30T12:33:32Z</time>
      </trkpt>
      <trkpt lat="43.76728" lon="3.56975">
        <ele>501.899</ele>
        <time>2014-03-30T12:33:40Z</time>
      </trkpt>
      <trkpt lat="43.76727" lon="3.56974">
        <ele>501.659</ele>
        <time>2014-03-30T12:33:41Z</time>
      </trkpt>
      <trkpt lat="43.76724" lon="3.56969">
        <ele>501.929</ele>
        <time>2014-03-30T12:33:48Z</time>
      </trkpt>
      <trkpt lat="43.76719" lon="3.56976">
        <ele>501.688</ele>
        <time>2014-03-30T12:33:54Z</time>
      </trkpt>
      <trkpt lat="43.76718" lon="3.56978">
        <ele>501.969</ele>
        <time>2014-03-30T12:33:56Z</time>
      </trkpt>
      <trkpt lat="43.76716" lon="3.56981">
        <ele>501.729</ele>
        <time>2014-03-30T12:33:59Z</time>
      </trkpt>
      <trkpt lat="43.76715" lon="3.56987">
        <ele>501.969</ele>
        <time>2014-03-30T12:34:04Z</time>
      </trkpt>
      <trkpt lat="43.76717" lon="3.56993">
        <ele>502.349</ele>
        <time>2014-03-30T12:34:13Z</time>
      </trkpt>
      <trkpt lat="43.76717" lon="3.56994">
        <ele>502.079</ele>
        <time>2014-03-30T12:34:14Z</time>
      </trkpt>
      <trkpt lat="43.76715" lon="3.56997">
        <ele>500.548</ele>
        <time>2014-03-30T12:34:20Z</time>
      </trkpt>
      <trkpt lat="43.76713" lon="3.56996">
        <ele>498.219</ele>
        <time>2014-03-30T12:34:27Z</time>
      </trkpt>
      <trkpt lat="43.7671" lon="3.57">
        <ele>496.729</ele>
        <time>2014-03-30T12:34:33Z</time>
      </trkpt>
      <trkpt lat="43.76711" lon="3.57001">
        <ele>494.679</ele>
        <time>2014-03-30T12:35:10Z</time>
      </trkpt>
      <trkpt lat="43.76713" lon="3.57008">
        <ele>494.128</ele>
        <time>2014-03-30T12:35:14Z</time>
      </trkpt>
      <trkpt lat="43.76715" lon="3.57024">
        <ele>492.668</ele>
        <time>2014-03-30T12:35:21Z</time>
      </trkpt>
      <trkpt lat="43.76718" lon="3.57034">
        <ele>491.748</ele>
        <time>2014-03-30T12:35:27Z</time>
      </trkpt>
      <trkpt lat="43.76724" lon="3.57043">
        <ele>491.178</ele>
        <time>2014-03-30T12:35:33Z</time>
      </trkpt>
      <trkpt lat="43.76728" lon="3.57056">
        <ele>490.799</ele>
        <time>2014-03-30T12:35:38Z</time>
      </trkpt>
      <trkpt lat="43.76727" lon="3.57059">
        <ele>490.368</ele>
        <time>2014-03-30T12:35:41Z</time>
      </trkpt>
      <trkpt lat="43.76716" lon="3.5706">
        <ele>488.938</ele>
        <time>2014-03-30T12:35:50Z</time>
      </trkpt>
      <trkpt lat="43.7671" lon="3.57058">
        <ele>488.468</ele>
        <time>2014-03-30T12:35:55Z</time>
      </trkpt>
      <trkpt lat="43.76704" lon="3.57055">
        <ele>487.439</ele>
        <time>2014-03-30T12:36:03Z</time>
      </trkpt>
      <trkpt lat="43.76703" lon="3.57055">
        <ele>487.929</ele>
        <time>2014-03-30T12:36:05Z</time>
      </trkpt>
      <trkpt lat="43.76696" lon="3.57054">
        <ele>486.139</ele>
        <time>2014-03-30T12:36:13Z</time>
      </trkpt>
      <trkpt lat="43.76695" lon="3.57053">
        <ele>485.939</ele>
        <time>2014-03-30T12:36:14Z</time>
      </trkpt>
      <trkpt lat="43.76689" lon="3.57041">
        <ele>483.749</ele>
        <time>2014-03-30T12:36:22Z</time>
      </trkpt>
      <trkpt lat="43.76685" lon="3.5703">
        <ele>482.768</ele>
        <time>2014-03-30T12:36:28Z</time>
      </trkpt>
      <trkpt lat="43.76683" lon="3.57028">
        <ele>482.269</ele>
        <time>2014-03-30T12:36:32Z</time>
      </trkpt>
      <trkpt lat="43.7668" lon="3.57029">
        <ele>481.199</ele>
        <time>2014-03-30T12:37:08Z</time>
      </trkpt>
      <trkpt lat="43.76675" lon="3.57033">
        <ele>480.949</ele>
        <time>2014-03-30T12:37:16Z</time>
      </trkpt>
      <trkpt lat="43.76673" lon="3.57034">
        <ele>482.079</ele>
        <time>2014-03-30T12:37:21Z</time>
      </trkpt>
      <trkpt lat="43.76671" lon="3.57036">
        <ele>481.299</ele>
        <time>2014-03-30T12:37:38Z</time>
      </trkpt>
      <trkpt lat="43.7667" lon="3.57036">
        <ele>481.529</ele>
        <time>2014-03-30T12:37:45Z</time>
      </trkpt>
      <trkpt lat="43.76671" lon="3.57032">
        <ele>482.349</ele>
        <time>2014-03-30T12:37:55Z</time>
      </trkpt>
      <trkpt lat="43.76671" lon="3.5703">
        <ele>482.671</ele>
        <time>2014-03-30T12:38:21Z</time>
      </trkpt>
      <trkpt lat="43.76672" lon="3.5703">
        <ele>482.96</ele>
        <time>2014-03-30T12:38:23Z</time>
      </trkpt>
      <trkpt lat="43.76674" lon="3.57029">
        <ele>482.75</ele>
        <time>2014-03-30T12:38:25Z</time>
      </trkpt>
      <trkpt lat="43.76677" lon="3.57027">
        <ele>482.74</ele>
        <time>2014-03-30T12:38:32Z</time>
      </trkpt>
      <trkpt lat="43.76678" lon="3.57024">
        <ele>483.35</ele>
        <time>2014-03-30T12:38:36Z</time>
      </trkpt>
      <trkpt lat="43.76679" lon="3.57024">
        <ele>482.009</ele>
        <time>2014-03-30T12:38:46Z</time>
      </trkpt>
      <trkpt lat="43.76679" lon="3.57024">
        <ele>479.539</ele>
        <time>2014-03-30T12:39:52Z</time>
      </trkpt>
      <trkpt lat="43.76678" lon="3.57022">
        <ele>479.599</ele>
        <time>2014-03-30T12:40:41Z</time>
      </trkpt>
      <trkpt lat="43.76677" lon="3.57012">
        <ele>479.679</ele>
        <time>2014-03-30T12:40:50Z</time>
      </trkpt>
      <trkpt lat="43.76676" lon="3.57005">
        <ele>480.719</ele>
        <time>2014-03-30T12:40:57Z</time>
      </trkpt>
      <trkpt lat="43.76676" lon="3.57004">
        <ele>481.139</ele>
        <time>2014-03-30T12:40:59Z</time>
      </trkpt>
      <trkpt lat="43.76674" lon="3.57001">
        <ele>481.408</ele>
        <time>2014-03-30T12:41:02Z</time>
      </trkpt>
      <trkpt lat="43.76675" lon="3.56993">
        <ele>481.007</ele>
        <time>2014-03-30T12:41:08Z</time>
      </trkpt>
      <trkpt lat="43.76673" lon="3.56987">
        <ele>482.819</ele>
        <time>2014-03-30T12:41:15Z</time>
      </trkpt>
      <trkpt lat="43.76671" lon="3.56986">
        <ele>485.8</ele>
        <time>2014-03-30T12:41:19Z</time>
      </trkpt>
      <trkpt lat="43.7667" lon="3.56987">
        <ele>487.16</ele>
        <time>2014-03-30T12:41:21Z</time>
      </trkpt>
      <trkpt lat="43.76669" lon="3.56989">
        <ele>487.34</ele>
        <time>2014-03-30T12:41:23Z</time>
      </trkpt>
      <trkpt lat="43.76667" lon="3.56988">
        <ele>489.38</ele>
        <time>2014-03-30T12:41:28Z</time>
      </trkpt>
      <trkpt lat="43.76665" lon="3.56985">
        <ele>490.05</ele>
        <time>2014-03-30T12:41:31Z</time>
      </trkpt>
      <trkpt lat="43.76659" lon="3.56981">
        <ele>489.549</ele>
        <time>2014-03-30T12:41:40Z</time>
      </trkpt>
      <trkpt lat="43.76657" lon="3.56981">
        <ele>489.669</ele>
        <time>2014-03-30T12:41:45Z</time>
      </trkpt>
      <trkpt lat="43.76651" lon="3.56982">
        <ele>487.248</ele>
        <time>2014-03-30T12:41:52Z</time>
      </trkpt>
      <trkpt lat="43.76649" lon="3.56982">
        <ele>485.738</ele>
        <time>2014-03-30T12:41:55Z</time>
      </trkpt>
      <trkpt lat="43.76646" lon="3.56982">
        <ele>480.008</ele>
        <time>2014-03-30T12:42:01Z</time>
      </trkpt>
      <trkpt lat="43.76645" lon="3.56984">
        <ele>478.118</ele>
        <time>2014-03-30T12:42:03Z</time>
      </trkpt>
      <trkpt lat="43.76648" lon="3.56986">
        <ele>476.418</ele>
        <time>2014-03-30T12:42:07Z</time>
      </trkpt>
      <trkpt lat="43.76651" lon="3.56987">
        <ele>476.259</ele>
        <time>2014-03-30T12:42:11Z</time>
      </trkpt>
      <trkpt lat="43.76653" lon="3.56993">
        <ele>476.879</ele>
        <time>2014-03-30T12:42:19Z</time>
      </trkpt>
      <trkpt lat="43.76653" lon="3.56996">
        <ele>477.479</ele>
        <time>2014-03-30T12:42:22Z</time>
      </trkpt>
      <trkpt lat="43.76651" lon="3.56998">
        <ele>477.649</ele>
        <time>2014-03-30T12:42:27Z</time>
      </trkpt>
      <trkpt lat="43.76646" lon="3.56995">
        <ele>479.6</ele>
        <time>2014-03-30T12:42:33Z</time>
      </trkpt>
      <trkpt lat="43.7664" lon="3.56995">
        <ele>481.29</ele>
        <time>2014-03-30T12:42:41Z</time>
      </trkpt>
      <trkpt lat="43.76642" lon="3.56997">
        <ele>478.948</ele>
        <time>2014-03-30T12:42:46Z</time>
      </trkpt>
      <trkpt lat="43.76644" lon="3.57002">
        <ele>476.738</ele>
        <time>2014-03-30T12:42:53Z</time>
      </trkpt>
      <trkpt lat="43.76644" lon="3.57006">
        <ele>474.608</ele>
        <time>2014-03-30T12:43:00Z</time>
      </trkpt>
      <trkpt lat="43.76644" lon="3.57009">
        <ele>474.158</ele>
        <time>2014-03-30T12:43:04Z</time>
      </trkpt>
      <trkpt lat="43.76641" lon="3.57006">
        <ele>469.588</ele>
        <time>2014-03-30T12:43:10Z</time>
      </trkpt>
      <trkpt lat="43.7664" lon="3.57004">
        <ele>469.899</ele>
        <time>2014-03-30T12:43:13Z</time>
      </trkpt>
      <trkpt lat="43.76636" lon="3.57001">
        <ele>471.01</ele>
        <time>2014-03-30T12:43:19Z</time>
      </trkpt>
      <trkpt lat="43.76629" lon="3.57004">
        <ele>472.379</ele>
        <time>2014-03-30T12:43:29Z</time>
      </trkpt>
      <trkpt lat="43.76627" lon="3.57005">
        <ele>472.599</ele>
        <time>2014-03-30T12:43:33Z</time>
      </trkpt>
      <trkpt lat="43.76629" lon="3.57008">
        <ele>469.219</ele>
        <time>2014-03-30T12:43:40Z</time>
      </trkpt>
      <trkpt lat="43.76628" lon="3.57011">
        <ele>468.008</ele>
        <time>2014-03-30T12:43:46Z</time>
      </trkpt>
      <trkpt lat="43.76628" lon="3.57012">
        <ele>467.788</ele>
        <time>2014-03-30T12:43:47Z</time>
      </trkpt>
      <trkpt lat="43.76624" lon="3.57012">
        <ele>465.498</ele>
        <time>2014-03-30T12:43:54Z</time>
      </trkpt>
      <trkpt lat="43.76621" lon="3.57012">
        <ele>463.798</ele>
        <time>2014-03-30T12:44:01Z</time>
      </trkpt>
      <trkpt lat="43.76622" lon="3.57017">
        <ele>461.428</ele>
        <time>2014-03-30T12:44:08Z</time>
      </trkpt>
      <trkpt lat="43.7662" lon="3.5702">
        <ele>460.598</ele>
        <time>2014-03-30T12:44:16Z</time>
      </trkpt>
      <trkpt lat="43.76614" lon="3.57023">
        <ele>460.579</ele>
        <time>2014-03-30T12:44:25Z</time>
      </trkpt>
      <trkpt lat="43.76615" lon="3.57026">
        <ele>459.478</ele>
        <time>2014-03-30T12:44:29Z</time>
      </trkpt>
      <trkpt lat="43.76615" lon="3.5703">
        <ele>460.129</ele>
        <time>2014-03-30T12:44:36Z</time>
      </trkpt>
      <trkpt lat="43.76608" lon="3.5703">
        <ele>458.748</ele>
        <time>2014-03-30T12:44:44Z</time>
      </trkpt>
      <trkpt lat="43.76601" lon="3.5703">
        <ele>451.637</ele>
        <time>2014-03-30T12:44:53Z</time>
      </trkpt>
      <trkpt lat="43.76596" lon="3.57032">
        <ele>445.207</ele>
        <time>2014-03-30T12:45:00Z</time>
      </trkpt>
      <trkpt lat="43.76588" lon="3.57035">
        <ele>444.488</ele>
        <time>2014-03-30T12:45:07Z</time>
      </trkpt>
      <trkpt lat="43.76582" lon="3.57036">
        <ele>440.758</ele>
        <time>2014-03-30T12:45:14Z</time>
      </trkpt>
      <trkpt lat="43.76574" lon="3.57038">
        <ele>439.288</ele>
        <time>2014-03-30T12:45:22Z</time>
      </trkpt>
      <trkpt lat="43.7657" lon="3.57034">
        <ele>440.249</ele>
        <time>2014-03-30T12:45:29Z</time>
      </trkpt>
      <trkpt lat="43.76565" lon="3.5703">
        <ele>440.008</ele>
        <time>2014-03-30T12:45:34Z</time>
      </trkpt>
      <trkpt lat="43.76559" lon="3.57024">
        <ele>439.799</ele>
        <time>2014-03-30T12:45:42Z</time>
      </trkpt>
      <trkpt lat="43.76555" lon="3.5702">
        <ele>438.118</ele>
        <time>2014-03-30T12:45:48Z</time>
      </trkpt>
      <trkpt lat="43.76552" lon="3.57019">
        <ele>436.838</ele>
        <time>2014-03-30T12:45:52Z</time>
      </trkpt>
      <trkpt lat="43.76545" lon="3.57016">
        <ele>436.779</ele>
        <time>2014-03-30T12:46:00Z</time>
      </trkpt>
      <trkpt lat="43.76543" lon="3.57016">
        <ele>436.508</ele>
        <time>2014-03-30T12:46:03Z</time>
      </trkpt>
      <trkpt lat="43.76542" lon="3.57019">
        <ele>436.159</ele>
        <time>2014-03-30T12:46:06Z</time>
      </trkpt>
      <trkpt lat="43.76545" lon="3.57022">
        <ele>435.409</ele>
        <time>2014-03-30T12:46:14Z</time>
      </trkpt>
      <trkpt lat="43.76548" lon="3.57025">
        <ele>435.529</ele>
        <time>2014-03-30T12:46:20Z</time>
      </trkpt>
      <trkpt lat="43.7655" lon="3.57034">
        <ele>435.748</ele>
        <time>2014-03-30T12:46:29Z</time>
      </trkpt>
      <trkpt lat="43.76549" lon="3.57033">
        <ele>434.978</ele>
        <time>2014-03-30T12:46:31Z</time>
      </trkpt>
      <trkpt lat="43.76546" lon="3.57031">
        <ele>434.848</ele>
        <time>2014-03-30T12:46:35Z</time>
      </trkpt>
      <trkpt lat="43.76542" lon="3.5703">
        <ele>434.648</ele>
        <time>2014-03-30T12:46:39Z</time>
      </trkpt>
      <trkpt lat="43.76536" lon="3.57028">
        <ele>431.438</ele>
        <time>2014-03-30T12:46:47Z</time>
      </trkpt>
      <trkpt lat="43.76533" lon="3.57027">
        <ele>431.998</ele>
        <time>2014-03-30T12:46:51Z</time>
      </trkpt>
      <trkpt lat="43.76531" lon="3.5703">
        <ele>431.328</ele>
        <time>2014-03-30T12:46:57Z</time>
      </trkpt>
      <trkpt lat="43.76532" lon="3.57032">
        <ele>431.678</ele>
        <time>2014-03-30T12:46:59Z</time>
      </trkpt>
      <trkpt lat="43.76533" lon="3.57037">
        <ele>432.108</ele>
        <time>2014-03-30T12:47:03Z</time>
      </trkpt>
      <trkpt lat="43.76536" lon="3.57042">
        <ele>431.498</ele>
        <time>2014-03-30T12:47:10Z</time>
      </trkpt>
      <trkpt lat="43.76533" lon="3.57041">
        <ele>430.458</ele>
        <time>2014-03-30T12:47:16Z</time>
      </trkpt>
      <trkpt lat="43.76527" lon="3.57038">
        <ele>429.138</ele>
        <time>2014-03-30T12:47:24Z</time>
      </trkpt>
      <trkpt lat="43.76518" lon="3.57038">
        <ele>425.737</ele>
        <time>2014-03-30T12:47:33Z</time>
      </trkpt>
      <trkpt lat="43.76515" lon="3.57039">
        <ele>424.367</ele>
        <time>2014-03-30T12:47:36Z</time>
      </trkpt>
      <trkpt lat="43.76509" lon="3.57039">
        <ele>421.248</ele>
        <time>2014-03-30T12:47:43Z</time>
      </trkpt>
      <trkpt lat="43.76504" lon="3.57039">
        <ele>420.878</ele>
        <time>2014-03-30T12:47:52Z</time>
      </trkpt>
      <trkpt lat="43.765" lon="3.5704">
        <ele>418.418</ele>
        <time>2014-03-30T12:47:58Z</time>
      </trkpt>
      <trkpt lat="43.76494" lon="3.57043">
        <ele>415.297</ele>
        <time>2014-03-30T12:48:06Z</time>
      </trkpt>
      <trkpt lat="43.76492" lon="3.57046">
        <ele>415.068</ele>
        <time>2014-03-30T12:48:09Z</time>
      </trkpt>
      <trkpt lat="43.76488" lon="3.5705">
        <ele>415.098</ele>
        <time>2014-03-30T12:48:18Z</time>
      </trkpt>
      <trkpt lat="43.76484" lon="3.57054">
        <ele>413.868</ele>
        <time>2014-03-30T12:48:24Z</time>
      </trkpt>
      <trkpt lat="43.76477" lon="3.57058">
        <ele>412.118</ele>
        <time>2014-03-30T12:48:33Z</time>
      </trkpt>
      <trkpt lat="43.76473" lon="3.5706">
        <ele>411.698</ele>
        <time>2014-03-30T12:48:40Z</time>
      </trkpt>
      <trkpt lat="43.76465" lon="3.57063">
        <ele>408.678</ele>
        <time>2014-03-30T12:48:48Z</time>
      </trkpt>
      <trkpt lat="43.76458" lon="3.57064">
        <ele>407.328</ele>
        <time>2014-03-30T12:48:56Z</time>
      </trkpt>
      <trkpt lat="43.76451" lon="3.57065">
        <ele>403.898</ele>
        <time>2014-03-30T12:49:05Z</time>
      </trkpt>
      <trkpt lat="43.76449" lon="3.57065">
        <ele>402.008</ele>
        <time>2014-03-30T12:49:11Z</time>
      </trkpt>
      <trkpt lat="43.76441" lon="3.57065">
        <ele>400.658</ele>
        <time>2014-03-30T12:49:19Z</time>
      </trkpt>
      <trkpt lat="43.76434" lon="3.57064">
        <ele>400.008</ele>
        <time>2014-03-30T12:49:27Z</time>
      </trkpt>
      <trkpt lat="43.76432" lon="3.57064">
        <ele>399.928</ele>
        <time>2014-03-30T12:49:29Z</time>
      </trkpt>
      <trkpt lat="43.76426" lon="3.57064">
        <ele>400.308</ele>
        <time>2014-03-30T12:49:37Z</time>
      </trkpt>
      <trkpt lat="43.76419" lon="3.57062">
        <ele>399.858</ele>
        <time>2014-03-30T12:49:45Z</time>
      </trkpt>
      <trkpt lat="43.76414" lon="3.5706">
        <ele>399.578</ele>
        <time>2014-03-30T12:49:50Z</time>
      </trkpt>
      <trkpt lat="43.76404" lon="3.57058">
        <ele>397.668</ele>
        <time>2014-03-30T12:49:59Z</time>
      </trkpt>
      <trkpt lat="43.76397" lon="3.57056">
        <ele>396.108</ele>
        <time>2014-03-30T12:50:07Z</time>
      </trkpt>
      <trkpt lat="43.76392" lon="3.57057">
        <ele>395.208</ele>
        <time>2014-03-30T12:50:13Z</time>
      </trkpt>
      <trkpt lat="43.76389" lon="3.57056">
        <ele>394.768</ele>
        <time>2014-03-30T12:50:17Z</time>
      </trkpt>
      <trkpt lat="43.76386" lon="3.57057">
        <ele>394.388</ele>
        <time>2014-03-30T12:50:20Z</time>
      </trkpt>
      <trkpt lat="43.76381" lon="3.57056">
        <ele>393.218</ele>
        <time>2014-03-30T12:50:27Z</time>
      </trkpt>
      <trkpt lat="43.76374" lon="3.57057">
        <ele>391.718</ele>
        <time>2014-03-30T12:50:36Z</time>
      </trkpt>
      <trkpt lat="43.76372" lon="3.57058">
        <ele>391.088</ele>
        <time>2014-03-30T12:50:41Z</time>
      </trkpt>
      <trkpt lat="43.7637" lon="3.57058">
        <ele>390.818</ele>
        <time>2014-03-30T12:50:43Z</time>
      </trkpt>
      <trkpt lat="43.76368" lon="3.57057">
        <ele>390.869</ele>
        <time>2014-03-30T12:50:45Z</time>
      </trkpt>
      <trkpt lat="43.76361" lon="3.57059">
        <ele>389.738</ele>
        <time>2014-03-30T12:50:54Z</time>
      </trkpt>
      <trkpt lat="43.76359" lon="3.57059">
        <ele>389.227</ele>
        <time>2014-03-30T12:50:56Z</time>
      </trkpt>
      <trkpt lat="43.76357" lon="3.57059">
        <ele>388.858</ele>
        <time>2014-03-30T12:51:00Z</time>
      </trkpt>
      <trkpt lat="43.76352" lon="3.5706">
        <ele>387.968</ele>
        <time>2014-03-30T12:51:05Z</time>
      </trkpt>
      <trkpt lat="43.76343" lon="3.57058">
        <ele>386.387</ele>
        <time>2014-03-30T12:51:15Z</time>
      </trkpt>
      <trkpt lat="43.76337" lon="3.57052">
        <ele>385.457</ele>
        <time>2014-03-30T12:51:23Z</time>
      </trkpt>
      <trkpt lat="43.76332" lon="3.57043">
        <ele>385.427</ele>
        <time>2014-03-30T12:51:30Z</time>
      </trkpt>
      <trkpt lat="43.76329" lon="3.57034">
        <ele>384.057</ele>
        <time>2014-03-30T12:51:38Z</time>
      </trkpt>
      <trkpt lat="43.76327" lon="3.57028">
        <ele>383.087</ele>
        <time>2014-03-30T12:51:44Z</time>
      </trkpt>
      <trkpt lat="43.76322" lon="3.5702">
        <ele>383.327</ele>
        <time>2014-03-30T12:51:53Z</time>
      </trkpt>
      <trkpt lat="43.76321" lon="3.57017">
        <ele>382.817</ele>
        <time>2014-03-30T12:51:56Z</time>
      </trkpt>
      <trkpt lat="43.76314" lon="3.57008">
        <ele>381.967</ele>
        <time>2014-03-30T12:52:07Z</time>
      </trkpt>
      <trkpt lat="43.76312" lon="3.57012">
        <ele>381.278</ele>
        <time>2014-03-30T12:52:12Z</time>
      </trkpt>
      <trkpt lat="43.76311" lon="3.5702">
        <ele>380.938</ele>
        <time>2014-03-30T12:52:19Z</time>
      </trkpt>
      <trkpt lat="43.76309" lon="3.57025">
        <ele>379.857</ele>
        <time>2014-03-30T12:52:25Z</time>
      </trkpt>
      <trkpt lat="43.76305" lon="3.57029">
        <ele>378.067</ele>
        <time>2014-03-30T12:52:32Z</time>
      </trkpt>
      <trkpt lat="43.76304" lon="3.5703">
        <ele>377.777</ele>
        <time>2014-03-30T12:52:34Z</time>
      </trkpt>
      <trkpt lat="43.76303" lon="3.57038">
        <ele>376.187</ele>
        <time>2014-03-30T12:52:42Z</time>
      </trkpt>
      <trkpt lat="43.763" lon="3.57047">
        <ele>373.728</ele>
        <time>2014-03-30T12:52:51Z</time>
      </trkpt>
      <trkpt lat="43.76298" lon="3.57051">
        <ele>373.367</ele>
        <time>2014-03-30T12:52:57Z</time>
      </trkpt>
      <trkpt lat="43.76295" lon="3.5706">
        <ele>372.967</ele>
        <time>2014-03-30T12:53:04Z</time>
      </trkpt>
      <trkpt lat="43.76292" lon="3.57068">
        <ele>372.377</ele>
        <time>2014-03-30T12:53:12Z</time>
      </trkpt>
      <trkpt lat="43.76293" lon="3.57072">
        <ele>372.228</ele>
        <time>2014-03-30T12:53:16Z</time>
      </trkpt>
      <trkpt lat="43.76291" lon="3.57079">
        <ele>370.828</ele>
        <time>2014-03-30T12:53:23Z</time>
      </trkpt>
      <trkpt lat="43.76291" lon="3.57079">
        <ele>370.677</ele>
        <time>2014-03-30T12:53:24Z</time>
      </trkpt>
      <trkpt lat="43.76289" lon="3.57091">
        <ele>369.527</ele>
        <time>2014-03-30T12:53:34Z</time>
      </trkpt>
      <trkpt lat="43.76288" lon="3.57099">
        <ele>368.548</ele>
        <time>2014-03-30T12:53:41Z</time>
      </trkpt>
      <trkpt lat="43.76288" lon="3.57107">
        <ele>367.788</ele>
        <time>2014-03-30T12:53:48Z</time>
      </trkpt>
      <trkpt lat="43.76291" lon="3.57116">
        <ele>367.408</ele>
        <time>2014-03-30T12:53:56Z</time>
      </trkpt>
      <trkpt lat="43.76293" lon="3.57123">
        <ele>366.868</ele>
        <time>2014-03-30T12:54:02Z</time>
      </trkpt>
      <trkpt lat="43.76293" lon="3.57124">
        <ele>365.858</ele>
        <time>2014-03-30T12:54:04Z</time>
      </trkpt>
      <trkpt lat="43.76296" lon="3.5713">
        <ele>365.018</ele>
        <time>2014-03-30T12:54:13Z</time>
      </trkpt>
      <trkpt lat="43.76297" lon="3.57131">
        <ele>363.468</ele>
        <time>2014-03-30T12:54:23Z</time>
      </trkpt>
      <trkpt lat="43.76296" lon="3.57133">
        <ele>360.458</ele>
        <time>2014-03-30T12:54:53Z</time>
      </trkpt>
      <trkpt lat="43.76296" lon="3.57135">
        <ele>358.008</ele>
        <time>2014-03-30T12:55:06Z</time>
      </trkpt>
      <trkpt lat="43.76294" lon="3.57138">
        <ele>357.598</ele>
        <time>2014-03-30T12:55:46Z</time>
      </trkpt>
      <trkpt lat="43.76294" lon="3.57135">
        <ele>362.258</ele>
        <time>2014-03-30T13:00:08Z</time>
      </trkpt>
      <trkpt lat="43.76294" lon="3.57135">
        <ele>361.928</ele>
        <time>2014-03-30T13:00:09Z</time>
      </trkpt>
      <trkpt lat="43.76286" lon="3.57137">
        <ele>361.238</ele>
        <time>2014-03-30T13:00:18Z</time>
      </trkpt>
      <trkpt lat="43.76276" lon="3.57136">
        <ele>361.038</ele>
        <time>2014-03-30T13:00:28Z</time>
      </trkpt>
      <trkpt lat="43.76269" lon="3.57133">
        <ele>360.988</ele>
        <time>2014-03-30T13:00:36Z</time>
      </trkpt>
      <trkpt lat="43.76265" lon="3.57129">
        <ele>360.448</ele>
        <time>2014-03-30T13:00:41Z</time>
      </trkpt>
      <trkpt lat="43.76261" lon="3.57128">
        <ele>360.078</ele>
        <time>2014-03-30T13:00:46Z</time>
      </trkpt>
      <trkpt lat="43.76258" lon="3.57123">
        <ele>359.388</ele>
        <time>2014-03-30T13:00:51Z</time>
      </trkpt>
      <trkpt lat="43.76256" lon="3.57115">
        <ele>357.847</ele>
        <time>2014-03-30T13:00:58Z</time>
      </trkpt>
      <trkpt lat="43.76254" lon="3.57112">
        <ele>356.257</ele>
        <time>2014-03-30T13:01:02Z</time>
      </trkpt>
      <trkpt lat="43.76251" lon="3.57117">
        <ele>354.078</ele>
        <time>2014-03-30T13:01:09Z</time>
      </trkpt>
      <trkpt lat="43.7625" lon="3.57129">
        <ele>354.398</ele>
        <time>2014-03-30T13:01:19Z</time>
      </trkpt>
      <trkpt lat="43.76252" lon="3.57136">
        <ele>353.198</ele>
        <time>2014-03-30T13:01:26Z</time>
      </trkpt>
      <trkpt lat="43.76252" lon="3.57137">
        <ele>353.168</ele>
        <time>2014-03-30T13:01:27Z</time>
      </trkpt>
      <trkpt lat="43.76251" lon="3.5714">
        <ele>353.158</ele>
        <time>2014-03-30T13:01:31Z</time>
      </trkpt>
      <trkpt lat="43.76244" lon="3.57143">
        <ele>353.178</ele>
        <time>2014-03-30T13:01:38Z</time>
      </trkpt>
      <trkpt lat="43.76233" lon="3.57147">
        <ele>351.808</ele>
        <time>2014-03-30T13:01:50Z</time>
      </trkpt>
      <trkpt lat="43.76224" lon="3.57148">
        <ele>351.068</ele>
        <time>2014-03-30T13:01:59Z</time>
      </trkpt>
      <trkpt lat="43.76215" lon="3.57149">
        <ele>349.628</ele>
        <time>2014-03-30T13:02:07Z</time>
      </trkpt>
      <trkpt lat="43.76206" lon="3.5715">
        <ele>349.288</ele>
        <time>2014-03-30T13:02:15Z</time>
      </trkpt>
      <trkpt lat="43.76195" lon="3.57152">
        <ele>347.778</ele>
        <time>2014-03-30T13:02:24Z</time>
      </trkpt>
      <trkpt lat="43.76192" lon="3.57153">
        <ele>347.428</ele>
        <time>2014-03-30T13:02:27Z</time>
      </trkpt>
      <trkpt lat="43.76191" lon="3.57152">
        <ele>347.118</ele>
        <time>2014-03-30T13:02:29Z</time>
      </trkpt>
      <trkpt lat="43.76182" lon="3.57151">
        <ele>347.308</ele>
        <time>2014-03-30T13:02:37Z</time>
      </trkpt>
      <trkpt lat="43.76174" lon="3.57153">
        <ele>347.288</ele>
        <time>2014-03-30T13:02:45Z</time>
      </trkpt>
      <trkpt lat="43.76168" lon="3.57157">
        <ele>347.148</ele>
        <time>2014-03-30T13:02:52Z</time>
      </trkpt>
      <trkpt lat="43.76162" lon="3.57162">
        <ele>348.238</ele>
        <time>2014-03-30T13:03:00Z</time>
      </trkpt>
      <trkpt lat="43.76155" lon="3.57163">
        <ele>347.137</ele>
        <time>2014-03-30T13:03:06Z</time>
      </trkpt>
      <trkpt lat="43.7615" lon="3.57165">
        <ele>345.997</ele>
        <time>2014-03-30T13:03:11Z</time>
      </trkpt>
      <trkpt lat="43.76142" lon="3.57168">
        <ele>345.758</ele>
        <time>2014-03-30T13:03:19Z</time>
      </trkpt>
      <trkpt lat="43.76134" lon="3.5717">
        <ele>343.958</ele>
        <time>2014-03-30T13:03:26Z</time>
      </trkpt>
      <trkpt lat="43.76126" lon="3.57171">
        <ele>341.027</ele>
        <time>2014-03-30T13:03:34Z</time>
      </trkpt>
      <trkpt lat="43.76124" lon="3.57172">
        <ele>341.198</ele>
        <time>2014-03-30T13:03:36Z</time>
      </trkpt>
      <trkpt lat="43.76118" lon="3.57172">
        <ele>341.207</ele>
        <time>2014-03-30T13:03:41Z</time>
      </trkpt>
      <trkpt lat="43.76107" lon="3.57174">
        <ele>338.957</ele>
        <time>2014-03-30T13:03:51Z</time>
      </trkpt>
      <trkpt lat="43.76097" lon="3.57176">
        <ele>337.697</ele>
        <time>2014-03-30T13:03:59Z</time>
      </trkpt>
      <trkpt lat="43.76089" lon="3.57177">
        <ele>336.647</ele>
        <time>2014-03-30T13:04:07Z</time>
      </trkpt>
      <trkpt lat="43.7608" lon="3.57177">
        <ele>336.037</ele>
        <time>2014-03-30T13:04:15Z</time>
      </trkpt>
      <trkpt lat="43.76071" lon="3.57173">
        <ele>335.358</ele>
        <time>2014-03-30T13:04:24Z</time>
      </trkpt>
      <trkpt lat="43.76068" lon="3.57172">
        <ele>335.008</ele>
        <time>2014-03-30T13:04:27Z</time>
      </trkpt>
      <trkpt lat="43.76057" lon="3.57164">
        <ele>338.438</ele>
        <time>2014-03-30T13:04:36Z</time>
      </trkpt>
      <trkpt lat="43.76047" lon="3.57158">
        <ele>338.508</ele>
        <time>2014-03-30T13:04:45Z</time>
      </trkpt>
      <trkpt lat="43.76044" lon="3.57156">
        <ele>338.328</ele>
        <time>2014-03-30T13:04:49Z</time>
      </trkpt>
      <trkpt lat="43.76034" lon="3.57147">
        <ele>337.378</ele>
        <time>2014-03-30T13:05:00Z</time>
      </trkpt>
      <trkpt lat="43.76026" lon="3.57141">
        <ele>338.438</ele>
        <time>2014-03-30T13:05:08Z</time>
      </trkpt>
      <trkpt lat="43.76023" lon="3.5714">
        <ele>338.277</ele>
        <time>2014-03-30T13:05:11Z</time>
      </trkpt>
      <trkpt lat="43.7602" lon="3.57132">
        <ele>338.678</ele>
        <time>2014-03-30T13:05:17Z</time>
      </trkpt>
      <trkpt lat="43.76016" lon="3.57128">
        <ele>338.417</ele>
        <time>2014-03-30T13:05:22Z</time>
      </trkpt>
      <trkpt lat="43.76009" lon="3.57126">
        <ele>336.257</ele>
        <time>2014-03-30T13:05:31Z</time>
      </trkpt>
      <trkpt lat="43.76001" lon="3.57125">
        <ele>335.347</ele>
        <time>2014-03-30T13:05:41Z</time>
      </trkpt>
      <trkpt lat="43.75992" lon="3.57122">
        <ele>334.057</ele>
        <time>2014-03-30T13:05:50Z</time>
      </trkpt>
      <trkpt lat="43.75983" lon="3.57122">
        <ele>332.537</ele>
        <time>2014-03-30T13:05:58Z</time>
      </trkpt>
      <trkpt lat="43.75976" lon="3.57121">
        <ele>331.587</ele>
        <time>2014-03-30T13:06:05Z</time>
      </trkpt>
      <trkpt lat="43.75969" lon="3.57116">
        <ele>330.887</ele>
        <time>2014-03-30T13:06:12Z</time>
      </trkpt>
      <trkpt lat="43.75961" lon="3.5711">
        <ele>330.307</ele>
        <time>2014-03-30T13:06:19Z</time>
      </trkpt>
      <trkpt lat="43.75953" lon="3.57111">
        <ele>329.597</ele>
        <time>2014-03-30T13:06:28Z</time>
      </trkpt>
      <trkpt lat="43.75945" lon="3.5711">
        <ele>328.697</ele>
        <time>2014-03-30T13:06:36Z</time>
      </trkpt>
      <trkpt lat="43.75938" lon="3.5711">
        <ele>327.767</ele>
        <time>2014-03-30T13:06:43Z</time>
      </trkpt>
      <trkpt lat="43.75931" lon="3.57112">
        <ele>328.247</ele>
        <time>2014-03-30T13:06:50Z</time>
      </trkpt>
      <trkpt lat="43.7593" lon="3.57112">
        <ele>328.187</ele>
        <time>2014-03-30T13:06:51Z</time>
      </trkpt>
      <trkpt lat="43.75925" lon="3.57111">
        <ele>327.197</ele>
        <time>2014-03-30T13:06:56Z</time>
      </trkpt>
      <trkpt lat="43.75915" lon="3.57113">
        <ele>325.667</ele>
        <time>2014-03-30T13:07:06Z</time>
      </trkpt>
      <trkpt lat="43.75908" lon="3.57115">
        <ele>325.557</ele>
        <time>2014-03-30T13:07:14Z</time>
      </trkpt>
      <trkpt lat="43.75902" lon="3.57116">
        <ele>324.867</ele>
        <time>2014-03-30T13:07:19Z</time>
      </trkpt>
      <trkpt lat="43.75895" lon="3.57117">
        <ele>322.716</ele>
        <time>2014-03-30T13:07:27Z</time>
      </trkpt>
      <trkpt lat="43.75889" lon="3.57118">
        <ele>319.156</ele>
        <time>2014-03-30T13:07:34Z</time>
      </trkpt>
      <trkpt lat="43.75884" lon="3.57117">
        <ele>318.287</ele>
        <time>2014-03-30T13:07:42Z</time>
      </trkpt>
      <trkpt lat="43.75881" lon="3.57118">
        <ele>317.166</ele>
        <time>2014-03-30T13:07:48Z</time>
      </trkpt>
      <trkpt lat="43.75878" lon="3.57116">
        <ele>316.716</ele>
        <time>2014-03-30T13:07:54Z</time>
      </trkpt>
      <trkpt lat="43.75874" lon="3.57111">
        <ele>318.437</ele>
        <time>2014-03-30T13:08:00Z</time>
      </trkpt>
      <trkpt lat="43.75872" lon="3.57107">
        <ele>319.417</ele>
        <time>2014-03-30T13:08:06Z</time>
      </trkpt>
      <trkpt lat="43.75868" lon="3.57109">
        <ele>317.996</ele>
        <time>2014-03-30T13:08:12Z</time>
      </trkpt>
      <trkpt lat="43.75867" lon="3.57111">
        <ele>318.037</ele>
        <time>2014-03-30T13:08:18Z</time>
      </trkpt>
      <trkpt lat="43.75865" lon="3.57111">
        <ele>321.007</ele>
        <time>2014-03-30T13:08:28Z</time>
      </trkpt>
      <trkpt lat="43.75861" lon="3.57104">
        <ele>321.007</ele>
        <time>2014-03-30T13:08:36Z</time>
      </trkpt>
      <trkpt lat="43.75858" lon="3.57102">
        <ele>320.936</ele>
        <time>2014-03-30T13:08:44Z</time>
      </trkpt>
      <trkpt lat="43.75856" lon="3.57102">
        <ele>320.276</ele>
        <time>2014-03-30T13:08:51Z</time>
      </trkpt>
      <trkpt lat="43.75855" lon="3.57101">
        <ele>319.866</ele>
        <time>2014-03-30T13:09:00Z</time>
      </trkpt>
      <trkpt lat="43.7585" lon="3.57098">
        <ele>318.846</ele>
        <time>2014-03-30T13:09:07Z</time>
      </trkpt>
      <trkpt lat="43.75845" lon="3.57093">
        <ele>317.397</ele>
        <time>2014-03-30T13:09:16Z</time>
      </trkpt>
      <trkpt lat="43.75843" lon="3.5709">
        <ele>316.827</ele>
        <time>2014-03-30T13:09:23Z</time>
      </trkpt>
      <trkpt lat="43.75843" lon="3.57091">
        <ele>316.696</ele>
        <time>2014-03-30T13:09:24Z</time>
      </trkpt>
      <trkpt lat="43.75842" lon="3.57092">
        <ele>316.667</ele>
        <time>2014-03-30T13:09:31Z</time>
      </trkpt>
      <trkpt lat="43.75843" lon="3.57092">
        <ele>316.727</ele>
        <time>2014-03-30T13:09:32Z</time>
      </trkpt>
      <trkpt lat="43.75846" lon="3.57092">
        <ele>317.237</ele>
        <time>2014-03-30T13:09:39Z</time>
      </trkpt>
      <trkpt lat="43.75847" lon="3.57089">
        <ele>317.507</ele>
        <time>2014-03-30T13:09:46Z</time>
      </trkpt>
      <trkpt lat="43.75849" lon="3.57086">
        <ele>315.717</ele>
        <time>2014-03-30T13:10:03Z</time>
      </trkpt>
      <trkpt lat="43.75847" lon="3.57087">
        <ele>317.367</ele>
        <time>2014-03-30T13:10:13Z</time>
      </trkpt>
      <trkpt lat="43.75846" lon="3.5709">
        <ele>317.306</ele>
        <time>2014-03-30T13:10:16Z</time>
      </trkpt>
      <trkpt lat="43.75843" lon="3.57087">
        <ele>316.037</ele>
        <time>2014-03-30T13:10:24Z</time>
      </trkpt>
      <trkpt lat="43.75844" lon="3.57084">
        <ele>316.057</ele>
        <time>2014-03-30T13:10:34Z</time>
      </trkpt>
      <trkpt lat="43.75844" lon="3.57081">
        <ele>316.177</ele>
        <time>2014-03-30T13:10:48Z</time>
      </trkpt>
      <trkpt lat="43.7584" lon="3.57074">
        <ele>316.617</ele>
        <time>2014-03-30T13:10:57Z</time>
      </trkpt>
      <trkpt lat="43.75842" lon="3.57071">
        <ele>317.547</ele>
        <time>2014-03-30T13:11:05Z</time>
      </trkpt>
      <trkpt lat="43.75841" lon="3.57074">
        <ele>317.907</ele>
        <time>2014-03-30T13:11:09Z</time>
      </trkpt>
      <trkpt lat="43.75845" lon="3.57079">
        <ele>316.616</ele>
        <time>2014-03-30T13:11:16Z</time>
      </trkpt>
      <trkpt lat="43.75841" lon="3.57083">
        <ele>315.666</ele>
        <time>2014-03-30T13:11:24Z</time>
      </trkpt>
      <trkpt lat="43.75835" lon="3.57079">
        <ele>315.467</ele>
        <time>2014-03-30T13:11:33Z</time>
      </trkpt>
      <trkpt lat="43.75831" lon="3.57074">
        <ele>316.417</ele>
        <time>2014-03-30T13:11:40Z</time>
      </trkpt>
      <trkpt lat="43.7583" lon="3.57074">
        <ele>316.857</ele>
        <time>2014-03-30T13:11:46Z</time>
      </trkpt>
      <trkpt lat="43.75832" lon="3.57078">
        <ele>317.067</ele>
        <time>2014-03-30T13:11:50Z</time>
      </trkpt>
      <trkpt lat="43.75837" lon="3.57085">
        <ele>317.446</ele>
        <time>2014-03-30T13:12:00Z</time>
      </trkpt>
      <trkpt lat="43.75841" lon="3.57082">
        <ele>314.756</ele>
        <time>2014-03-30T13:12:25Z</time>
      </trkpt>
      <trkpt lat="43.75843" lon="3.57082">
        <ele>315.477</ele>
        <time>2014-03-30T13:12:31Z</time>
      </trkpt>
      <trkpt lat="43.75845" lon="3.57081">
        <ele>314.696</ele>
        <time>2014-03-30T13:12:56Z</time>
      </trkpt>
      <trkpt lat="43.75845" lon="3.57082">
        <ele>314.847</ele>
        <time>2014-03-30T13:13:04Z</time>
      </trkpt>
      <trkpt lat="43.75846" lon="3.57084">
        <ele>316.017</ele>
        <time>2014-03-30T13:13:41Z</time>
      </trkpt>
      <trkpt lat="43.75849" lon="3.57085">
        <ele>317.547</ele>
        <time>2014-03-30T13:14:06Z</time>
      </trkpt>
      <trkpt lat="43.7585" lon="3.57087">
        <ele>317.357</ele>
        <time>2014-03-30T13:14:12Z</time>
      </trkpt>
      <trkpt lat="43.7585" lon="3.57085">
        <ele>318.407</ele>
        <time>2014-03-30T13:14:49Z</time>
      </trkpt>
      <trkpt lat="43.7585" lon="3.57091">
        <ele>315.526</ele>
        <time>2014-03-30T13:15:06Z</time>
      </trkpt>
      <trkpt lat="43.7585" lon="3.57095">
        <ele>314.727</ele>
        <time>2014-03-30T13:15:22Z</time>
      </trkpt>
      <trkpt lat="43.7585" lon="3.57099">
        <ele>314.437</ele>
        <time>2014-03-30T13:15:56Z</time>
      </trkpt>
      <trkpt lat="43.75848" lon="3.57101">
        <ele>314.897</ele>
        <time>2014-03-30T13:16:08Z</time>
      </trkpt>
      <trkpt lat="43.75846" lon="3.57105">
        <ele>316.067</ele>
        <time>2014-03-30T13:16:17Z</time>
      </trkpt>
      <trkpt lat="43.75846" lon="3.57109">
        <ele>315.957</ele>
        <time>2014-03-30T13:16:25Z</time>
      </trkpt>
      <trkpt lat="43.75845" lon="3.57109">
        <ele>315.747</ele>
        <time>2014-03-30T13:16:30Z</time>
      </trkpt>
      <trkpt lat="43.75847" lon="3.57114">
        <ele>314.736</ele>
        <time>2014-03-30T13:16:37Z</time>
      </trkpt>
      <trkpt lat="43.75845" lon="3.57122">
        <ele>313.656</ele>
        <time>2014-03-30T13:16:46Z</time>
      </trkpt>
      <trkpt lat="43.75847" lon="3.57124">
        <ele>312.826</ele>
        <time>2014-03-30T13:16:51Z</time>
      </trkpt>
      <trkpt lat="43.75848" lon="3.57124">
        <ele>312.667</ele>
        <time>2014-03-30T13:16:59Z</time>
      </trkpt>
      <trkpt lat="43.75847" lon="3.57124">
        <ele>312.967</ele>
        <time>2014-03-30T13:17:05Z</time>
      </trkpt>
      <trkpt lat="43.7584" lon="3.5713">
        <ele>311.876</ele>
        <time>2014-03-30T13:17:39Z</time>
      </trkpt>
      <trkpt lat="43.7584" lon="3.57134">
        <ele>312.387</ele>
        <time>2014-03-30T13:17:45Z</time>
      </trkpt>
      <trkpt lat="43.75841" lon="3.57134">
        <ele>312.357</ele>
        <time>2014-03-30T13:17:46Z</time>
      </trkpt>
      <trkpt lat="43.75847" lon="3.57144">
        <ele>311.056</ele>
        <time>2014-03-30T13:17:55Z</time>
      </trkpt>
      <trkpt lat="43.75851" lon="3.57157">
        <ele>310.386</ele>
        <time>2014-03-30T13:18:04Z</time>
      </trkpt>
      <trkpt lat="43.75849" lon="3.57172">
        <ele>311.126</ele>
        <time>2014-03-30T13:18:13Z</time>
      </trkpt>
      <trkpt lat="43.75849" lon="3.57178">
        <ele>310.827</ele>
        <time>2014-03-30T13:18:20Z</time>
      </trkpt>
      <trkpt lat="43.75847" lon="3.57179">
        <ele>310.617</ele>
        <time>2014-03-30T13:18:28Z</time>
      </trkpt>
      <trkpt lat="43.75846" lon="3.57182">
        <ele>310.637</ele>
        <time>2014-03-30T13:18:34Z</time>
      </trkpt>
      <trkpt lat="43.75844" lon="3.57183">
        <ele>311.427</ele>
        <time>2014-03-30T13:18:38Z</time>
      </trkpt>
      <trkpt lat="43.75839" lon="3.57186">
        <ele>310.117</ele>
        <time>2014-03-30T13:18:46Z</time>
      </trkpt>
      <trkpt lat="43.75835" lon="3.57187">
        <ele>305.707</ele>
        <time>2014-03-30T13:19:03Z</time>
      </trkpt>
      <trkpt lat="43.75834" lon="3.57189">
        <ele>305.076</ele>
        <time>2014-03-30T13:19:09Z</time>
      </trkpt>
      <trkpt lat="43.75827" lon="3.57194">
        <ele>303.846</ele>
        <time>2014-03-30T13:19:17Z</time>
      </trkpt>
      <trkpt lat="43.7582" lon="3.57201">
        <ele>306.607</ele>
        <time>2014-03-30T13:19:25Z</time>
      </trkpt>
      <trkpt lat="43.75814" lon="3.57211">
        <ele>305.186</ele>
        <time>2014-03-30T13:19:34Z</time>
      </trkpt>
      <trkpt lat="43.75807" lon="3.57223">
        <ele>303.417</ele>
        <time>2014-03-30T13:19:44Z</time>
      </trkpt>
      <trkpt lat="43.75805" lon="3.57221">
        <ele>306.827</ele>
        <time>2014-03-30T13:19:49Z</time>
      </trkpt>
      <trkpt lat="43.75803" lon="3.57222">
        <ele>307.557</ele>
        <time>2014-03-30T13:19:54Z</time>
      </trkpt>
      <trkpt lat="43.75801" lon="3.57221">
        <ele>309.717</ele>
        <time>2014-03-30T13:19:58Z</time>
      </trkpt>
      <trkpt lat="43.75793" lon="3.5722">
        <ele>309.856</ele>
        <time>2014-03-30T13:20:06Z</time>
      </trkpt>
      <trkpt lat="43.75787" lon="3.5722">
        <ele>307.945</ele>
        <time>2014-03-30T13:20:13Z</time>
      </trkpt>
      <trkpt lat="43.75781" lon="3.57221">
        <ele>306.596</ele>
        <time>2014-03-30T13:20:18Z</time>
      </trkpt>
      <trkpt lat="43.7578" lon="3.57222">
        <ele>307.656</ele>
        <time>2014-03-30T13:20:20Z</time>
      </trkpt>
      <trkpt lat="43.75771" lon="3.57227">
        <ele>304.035</ele>
        <time>2014-03-30T13:20:29Z</time>
      </trkpt>
      <trkpt lat="43.75761" lon="3.57233">
        <ele>301.126</ele>
        <time>2014-03-30T13:20:37Z</time>
      </trkpt>
      <trkpt lat="43.75752" lon="3.57234">
        <ele>300.786</ele>
        <time>2014-03-30T13:20:44Z</time>
      </trkpt>
      <trkpt lat="43.75746" lon="3.57242">
        <ele>302.086</ele>
        <time>2014-03-30T13:20:51Z</time>
      </trkpt>
      <trkpt lat="43.75743" lon="3.57251">
        <ele>303.397</ele>
        <time>2014-03-30T13:20:58Z</time>
      </trkpt>
      <trkpt lat="43.75738" lon="3.57257">
        <ele>304.057</ele>
        <time>2014-03-30T13:21:04Z</time>
      </trkpt>
      <trkpt lat="43.75732" lon="3.57264">
        <ele>302.666</ele>
        <time>2014-03-30T13:21:12Z</time>
      </trkpt>
      <trkpt lat="43.75726" lon="3.57269">
        <ele>303.447</ele>
        <time>2014-03-30T13:21:19Z</time>
      </trkpt>
      <trkpt lat="43.7572" lon="3.57272">
        <ele>302.526</ele>
        <time>2014-03-30T13:21:25Z</time>
      </trkpt>
      <trkpt lat="43.75712" lon="3.57276">
        <ele>301.846</ele>
        <time>2014-03-30T13:21:32Z</time>
      </trkpt>
      <trkpt lat="43.75703" lon="3.57279">
        <ele>303.126</ele>
        <time>2014-03-30T13:21:41Z</time>
      </trkpt>
      <trkpt lat="43.75693" lon="3.57281">
        <ele>300.286</ele>
        <time>2014-03-30T13:21:50Z</time>
      </trkpt>
      <trkpt lat="43.75689" lon="3.57281">
        <ele>301.686</ele>
        <time>2014-03-30T13:21:53Z</time>
      </trkpt>
      <trkpt lat="43.75683" lon="3.57285">
        <ele>299.996</ele>
        <time>2014-03-30T13:22:02Z</time>
      </trkpt>
      <trkpt lat="43.75684" lon="3.57275">
        <ele>299.217</ele>
        <time>2014-03-30T13:22:40Z</time>
      </trkpt>
      <trkpt lat="43.75679" lon="3.57276">
        <ele>300.116</ele>
        <time>2014-03-30T13:22:46Z</time>
      </trkpt>
      <trkpt lat="43.75673" lon="3.57281">
        <ele>299.006</ele>
        <time>2014-03-30T13:22:53Z</time>
      </trkpt>
      <trkpt lat="43.75665" lon="3.57289">
        <ele>299.136</ele>
        <time>2014-03-30T13:23:03Z</time>
      </trkpt>
      <trkpt lat="43.75659" lon="3.57296">
        <ele>301.347</ele>
        <time>2014-03-30T13:23:11Z</time>
      </trkpt>
      <trkpt lat="43.75657" lon="3.57298">
        <ele>302.997</ele>
        <time>2014-03-30T13:23:19Z</time>
      </trkpt>
      <trkpt lat="43.75653" lon="3.573">
        <ele>303.387</ele>
        <time>2014-03-30T13:23:28Z</time>
      </trkpt>
      <trkpt lat="43.75649" lon="3.57299">
        <ele>303.997</ele>
        <time>2014-03-30T13:23:35Z</time>
      </trkpt>
      <trkpt lat="43.75648" lon="3.57299">
        <ele>304.177</ele>
        <time>2014-03-30T13:23:41Z</time>
      </trkpt>
      <trkpt lat="43.75647" lon="3.57302">
        <ele>303.667</ele>
        <time>2014-03-30T13:23:46Z</time>
      </trkpt>
      <trkpt lat="43.75644" lon="3.57306">
        <ele>304.408</ele>
        <time>2014-03-30T13:23:49Z</time>
      </trkpt>
      <trkpt lat="43.7564" lon="3.57308">
        <ele>304.977</ele>
        <time>2014-03-30T13:23:57Z</time>
      </trkpt>
      <trkpt lat="43.75641" lon="3.5731">
        <ele>306.357</ele>
        <time>2014-03-30T13:24:03Z</time>
      </trkpt>
      <trkpt lat="43.75641" lon="3.57313">
        <ele>306.487</ele>
        <time>2014-03-30T13:24:10Z</time>
      </trkpt>
      <trkpt lat="43.75639" lon="3.57317">
        <ele>307.717</ele>
        <time>2014-03-30T13:24:24Z</time>
      </trkpt>
      <trkpt lat="43.75638" lon="3.57319">
        <ele>305.957</ele>
        <time>2014-03-30T13:24:29Z</time>
      </trkpt>
      <trkpt lat="43.75634" lon="3.57323">
        <ele>305.777</ele>
        <time>2014-03-30T13:24:37Z</time>
      </trkpt>
      <trkpt lat="43.75633" lon="3.57325">
        <ele>306.517</ele>
        <time>2014-03-30T13:24:43Z</time>
      </trkpt>
      <trkpt lat="43.75632" lon="3.57326">
        <ele>306.067</ele>
        <time>2014-03-30T13:24:49Z</time>
      </trkpt>
      <trkpt lat="43.75629" lon="3.57332">
        <ele>307.037</ele>
        <time>2014-03-30T13:25:01Z</time>
      </trkpt>
      <trkpt lat="43.75628" lon="3.57335">
        <ele>307.257</ele>
        <time>2014-03-30T13:25:03Z</time>
      </trkpt>
      <trkpt lat="43.75622" lon="3.5734">
        <ele>305.796</ele>
        <time>2014-03-30T13:25:11Z</time>
      </trkpt>
      <trkpt lat="43.75618" lon="3.57343">
        <ele>306.186</ele>
        <time>2014-03-30T13:25:16Z</time>
      </trkpt>
      <trkpt lat="43.75615" lon="3.57346">
        <ele>306.117</ele>
        <time>2014-03-30T13:25:21Z</time>
      </trkpt>
      <trkpt lat="43.75611" lon="3.5735">
        <ele>306.087</ele>
        <time>2014-03-30T13:25:26Z</time>
      </trkpt>
      <trkpt lat="43.7561" lon="3.57351">
        <ele>305.857</ele>
        <time>2014-03-30T13:25:32Z</time>
      </trkpt>
      <trkpt lat="43.75606" lon="3.57355">
        <ele>305.597</ele>
        <time>2014-03-30T13:25:39Z</time>
      </trkpt>
      <trkpt lat="43.75599" lon="3.57359">
        <ele>305.267</ele>
        <time>2014-03-30T13:25:46Z</time>
      </trkpt>
      <trkpt lat="43.75594" lon="3.57362">
        <ele>303.516</ele>
        <time>2014-03-30T13:25:53Z</time>
      </trkpt>
      <trkpt lat="43.75591" lon="3.57363">
        <ele>303.396</ele>
        <time>2014-03-30T13:25:56Z</time>
      </trkpt>
      <trkpt lat="43.75585" lon="3.57365">
        <ele>303.287</ele>
        <time>2014-03-30T13:26:03Z</time>
      </trkpt>
      <trkpt lat="43.75578" lon="3.57368">
        <ele>303.137</ele>
        <time>2014-03-30T13:26:12Z</time>
      </trkpt>
      <trkpt lat="43.75574" lon="3.57371">
        <ele>303.597</ele>
        <time>2014-03-30T13:26:19Z</time>
      </trkpt>
      <trkpt lat="43.75571" lon="3.57371">
        <ele>303.316</ele>
        <time>2014-03-30T13:26:55Z</time>
      </trkpt>
      <trkpt lat="43.75563" lon="3.57371">
        <ele>302.046</ele>
        <time>2014-03-30T13:27:02Z</time>
      </trkpt>
      <trkpt lat="43.75562" lon="3.57371">
        <ele>301.926</ele>
        <time>2014-03-30T13:27:03Z</time>
      </trkpt>
      <trkpt lat="43.75555" lon="3.57376">
        <ele>302.117</ele>
        <time>2014-03-30T13:27:10Z</time>
      </trkpt>
      <trkpt lat="43.75552" lon="3.57376">
        <ele>302.127</ele>
        <time>2014-03-30T13:27:13Z</time>
      </trkpt>
      <trkpt lat="43.75548" lon="3.57376">
        <ele>302.097</ele>
        <time>2014-03-30T13:27:16Z</time>
      </trkpt>
      <trkpt lat="43.75541" lon="3.5738">
        <ele>301.336</ele>
        <time>2014-03-30T13:27:23Z</time>
      </trkpt>
      <trkpt lat="43.75533" lon="3.57383">
        <ele>301.606</ele>
        <time>2014-03-30T13:27:31Z</time>
      </trkpt>
      <trkpt lat="43.7553" lon="3.57383">
        <ele>300.556</ele>
        <time>2014-03-30T13:27:35Z</time>
      </trkpt>
      <trkpt lat="43.75526" lon="3.57381">
        <ele>299.626</ele>
        <time>2014-03-30T13:27:39Z</time>
      </trkpt>
      <trkpt lat="43.75519" lon="3.57377">
        <ele>298.976</ele>
        <time>2014-03-30T13:27:47Z</time>
      </trkpt>
      <trkpt lat="43.75515" lon="3.57375">
        <ele>298.366</ele>
        <time>2014-03-30T13:27:51Z</time>
      </trkpt>
      <trkpt lat="43.75507" lon="3.57373">
        <ele>297.476</ele>
        <time>2014-03-30T13:27:59Z</time>
      </trkpt>
      <trkpt lat="43.75497" lon="3.57376">
        <ele>294.556</ele>
        <time>2014-03-30T13:28:08Z</time>
      </trkpt>
      <trkpt lat="43.75494" lon="3.57373">
        <ele>296.426</ele>
        <time>2014-03-30T13:28:11Z</time>
      </trkpt>
      <trkpt lat="43.75488" lon="3.57363">
        <ele>298.557</ele>
        <time>2014-03-30T13:28:19Z</time>
      </trkpt>
      <trkpt lat="43.75482" lon="3.57361">
        <ele>297.476</ele>
        <time>2014-03-30T13:28:27Z</time>
      </trkpt>
      <trkpt lat="43.75478" lon="3.57359">
        <ele>296.946</ele>
        <time>2014-03-30T13:28:35Z</time>
      </trkpt>
      <trkpt lat="43.75475" lon="3.57357">
        <ele>297.656</ele>
        <time>2014-03-30T13:28:47Z</time>
      </trkpt>
      <trkpt lat="43.75475" lon="3.57356">
        <ele>297.976</ele>
        <time>2014-03-30T13:28:56Z</time>
      </trkpt>
      <trkpt lat="43.75469" lon="3.57348">
        <ele>298.206</ele>
        <time>2014-03-30T13:29:04Z</time>
      </trkpt>
      <trkpt lat="43.75464" lon="3.57342">
        <ele>297.796</ele>
        <time>2014-03-30T13:29:11Z</time>
      </trkpt>
      <trkpt lat="43.75459" lon="3.57337">
        <ele>298.886</ele>
        <time>2014-03-30T13:29:18Z</time>
      </trkpt>
      <trkpt lat="43.75456" lon="3.57333">
        <ele>299.577</ele>
        <time>2014-03-30T13:29:25Z</time>
      </trkpt>
      <trkpt lat="43.7545" lon="3.57327">
        <ele>301.297</ele>
        <time>2014-03-30T13:29:32Z</time>
      </trkpt>
      <trkpt lat="43.75444" lon="3.5732">
        <ele>301.457</ele>
        <time>2014-03-30T13:29:39Z</time>
      </trkpt>
      <trkpt lat="43.75441" lon="3.57313">
        <ele>301.226</ele>
        <time>2014-03-30T13:29:46Z</time>
      </trkpt>
      <trkpt lat="43.75437" lon="3.57313">
        <ele>300.706</ele>
        <time>2014-03-30T13:29:52Z</time>
      </trkpt>
      <trkpt lat="43.75438" lon="3.57308">
        <ele>301.766</ele>
        <time>2014-03-30T13:30:29Z</time>
      </trkpt>
      <trkpt lat="43.75435" lon="3.57311">
        <ele>300.236</ele>
        <time>2014-03-30T13:30:36Z</time>
      </trkpt>
      <trkpt lat="43.75434" lon="3.57314">
        <ele>299.476</ele>
        <time>2014-03-30T13:30:41Z</time>
      </trkpt>
      <trkpt lat="43.75428" lon="3.5732">
        <ele>298.876</ele>
        <time>2014-03-30T13:30:48Z</time>
      </trkpt>
      <trkpt lat="43.7542" lon="3.57324">
        <ele>298.116</ele>
        <time>2014-03-30T13:30:56Z</time>
      </trkpt>
      <trkpt lat="43.75414" lon="3.57323">
        <ele>297.265</ele>
        <time>2014-03-30T13:31:03Z</time>
      </trkpt>
      <trkpt lat="43.75411" lon="3.57322">
        <ele>296.866</ele>
        <time>2014-03-30T13:31:09Z</time>
      </trkpt>
      <trkpt lat="43.7541" lon="3.5732">
        <ele>296.996</ele>
        <time>2014-03-30T13:31:14Z</time>
      </trkpt>
      <trkpt lat="43.754" lon="3.57316">
        <ele>296.125</ele>
        <time>2014-03-30T13:31:23Z</time>
      </trkpt>
      <trkpt lat="43.75395" lon="3.57311">
        <ele>296.016</ele>
        <time>2014-03-30T13:31:30Z</time>
      </trkpt>
      <trkpt lat="43.75391" lon="3.57309">
        <ele>296.006</ele>
        <time>2014-03-30T13:31:36Z</time>
      </trkpt>
      <trkpt lat="43.75388" lon="3.57305">
        <ele>294.785</ele>
        <time>2014-03-30T13:31:50Z</time>
      </trkpt>
      <trkpt lat="43.75383" lon="3.57304">
        <ele>294.856</ele>
        <time>2014-03-30T13:31:54Z</time>
      </trkpt>
      <trkpt lat="43.75372" lon="3.57302">
        <ele>294.145</ele>
        <time>2014-03-30T13:32:03Z</time>
      </trkpt>
      <trkpt lat="43.75363" lon="3.57302">
        <ele>292.435</ele>
        <time>2014-03-30T13:32:11Z</time>
      </trkpt>
      <trkpt lat="43.75358" lon="3.57302">
        <ele>291.745</ele>
        <time>2014-03-30T13:32:17Z</time>
      </trkpt>
      <trkpt lat="43.75347" lon="3.57301">
        <ele>294.336</ele>
        <time>2014-03-30T13:32:25Z</time>
      </trkpt>
      <trkpt lat="43.75342" lon="3.57303">
        <ele>292.995</ele>
        <time>2014-03-30T13:32:30Z</time>
      </trkpt>
      <trkpt lat="43.7534" lon="3.57304">
        <ele>292.335</ele>
        <time>2014-03-30T13:32:32Z</time>
      </trkpt>
      <trkpt lat="43.75334" lon="3.57306">
        <ele>292.725</ele>
        <time>2014-03-30T13:32:37Z</time>
      </trkpt>
      <trkpt lat="43.75321" lon="3.57308">
        <ele>290.815</ele>
        <time>2014-03-30T13:32:47Z</time>
      </trkpt>
      <trkpt lat="43.75319" lon="3.57308">
        <ele>289.974</ele>
        <time>2014-03-30T13:32:49Z</time>
      </trkpt>
      <trkpt lat="43.75309" lon="3.57305">
        <ele>288.845</ele>
        <time>2014-03-30T13:32:58Z</time>
      </trkpt>
      <trkpt lat="43.753" lon="3.57306">
        <ele>288.185</ele>
        <time>2014-03-30T13:33:07Z</time>
      </trkpt>
      <trkpt lat="43.75299" lon="3.57305">
        <ele>288.575</ele>
        <time>2014-03-30T13:33:09Z</time>
      </trkpt>
      <trkpt lat="43.75297" lon="3.57303">
        <ele>289.605</ele>
        <time>2014-03-30T13:33:12Z</time>
      </trkpt>
      <trkpt lat="43.75291" lon="3.57297">
        <ele>289.816</ele>
        <time>2014-03-30T13:33:18Z</time>
      </trkpt>
      <trkpt lat="43.75283" lon="3.57294">
        <ele>288.685</ele>
        <time>2014-03-30T13:33:27Z</time>
      </trkpt>
      <trkpt lat="43.75282" lon="3.57292">
        <ele>288.285</ele>
        <time>2014-03-30T13:33:30Z</time>
      </trkpt>
      <trkpt lat="43.75282" lon="3.5729">
        <ele>287.915</ele>
        <time>2014-03-30T13:33:32Z</time>
      </trkpt>
      <trkpt lat="43.75279" lon="3.57284">
        <ele>287.305</ele>
        <time>2014-03-30T13:33:37Z</time>
      </trkpt>
      <trkpt lat="43.75277" lon="3.57283">
        <ele>287.005</ele>
        <time>2014-03-30T13:33:40Z</time>
      </trkpt>
      <trkpt lat="43.75273" lon="3.57288">
        <ele>285.275</ele>
        <time>2014-03-30T13:33:46Z</time>
      </trkpt>
      <trkpt lat="43.75271" lon="3.57288">
        <ele>285.905</ele>
        <time>2014-03-30T13:33:54Z</time>
      </trkpt>
      <trkpt lat="43.7527" lon="3.57287">
        <ele>285.535</ele>
        <time>2014-03-30T13:33:57Z</time>
      </trkpt>
      <trkpt lat="43.75263" lon="3.57283">
        <ele>282.134</ele>
        <time>2014-03-30T13:34:06Z</time>
      </trkpt>
      <trkpt lat="43.75261" lon="3.57282">
        <ele>281.544</ele>
        <time>2014-03-30T13:34:09Z</time>
      </trkpt>
      <trkpt lat="43.7526" lon="3.57279">
        <ele>281.055</ele>
        <time>2014-03-30T13:34:12Z</time>
      </trkpt>
      <trkpt lat="43.75258" lon="3.57277">
        <ele>280.565</ele>
        <time>2014-03-30T13:34:14Z</time>
      </trkpt>
      <trkpt lat="43.75255" lon="3.57275">
        <ele>279.845</ele>
        <time>2014-03-30T13:34:18Z</time>
      </trkpt>
      <trkpt lat="43.7525" lon="3.57269">
        <ele>277.925</ele>
        <time>2014-03-30T13:34:26Z</time>
      </trkpt>
      <trkpt lat="43.75247" lon="3.57266">
        <ele>277.375</ele>
        <time>2014-03-30T13:34:30Z</time>
      </trkpt>
      <trkpt lat="43.7524" lon="3.57264">
        <ele>275.844</ele>
        <time>2014-03-30T13:34:37Z</time>
      </trkpt>
      <trkpt lat="43.75239" lon="3.57263">
        <ele>275.594</ele>
        <time>2014-03-30T13:34:39Z</time>
      </trkpt>
      <trkpt lat="43.75237" lon="3.57256">
        <ele>274.725</ele>
        <time>2014-03-30T13:34:46Z</time>
      </trkpt>
      <trkpt lat="43.75237" lon="3.57256">
        <ele>274.415</ele>
        <time>2014-03-30T13:34:47Z</time>
      </trkpt>
      <trkpt lat="43.75233" lon="3.57253">
        <ele>273.425</ele>
        <time>2014-03-30T13:34:51Z</time>
      </trkpt>
      <trkpt lat="43.75227" lon="3.57246">
        <ele>269.224</ele>
        <time>2014-03-30T13:34:59Z</time>
      </trkpt>
      <trkpt lat="43.75224" lon="3.57241">
        <ele>270.555</ele>
        <time>2014-03-30T13:35:02Z</time>
      </trkpt>
      <trkpt lat="43.75222" lon="3.57234">
        <ele>268.115</ele>
        <time>2014-03-30T13:35:10Z</time>
      </trkpt>
      <trkpt lat="43.7522" lon="3.57232">
        <ele>266.324</ele>
        <time>2014-03-30T13:35:15Z</time>
      </trkpt>
      <trkpt lat="43.75217" lon="3.57232">
        <ele>265.334</ele>
        <time>2014-03-30T13:35:19Z</time>
      </trkpt>
      <trkpt lat="43.75209" lon="3.5722">
        <ele>266.104</ele>
        <time>2014-03-30T13:35:29Z</time>
      </trkpt>
      <trkpt lat="43.75206" lon="3.57218">
        <ele>265.725</ele>
        <time>2014-03-30T13:35:32Z</time>
      </trkpt>
      <trkpt lat="43.75203" lon="3.57212">
        <ele>265.815</ele>
        <time>2014-03-30T13:35:39Z</time>
      </trkpt>
      <trkpt lat="43.75196" lon="3.57208">
        <ele>264.784</ele>
        <time>2014-03-30T13:35:46Z</time>
      </trkpt>
      <trkpt lat="43.75192" lon="3.57205">
        <ele>262.113</ele>
        <time>2014-03-30T13:35:53Z</time>
      </trkpt>
      <trkpt lat="43.75187" lon="3.57203">
        <ele>259.964</ele>
        <time>2014-03-30T13:36:00Z</time>
      </trkpt>
      <trkpt lat="43.75185" lon="3.57202">
        <ele>255.644</ele>
        <time>2014-03-30T13:36:08Z</time>
      </trkpt>
      <trkpt lat="43.75184" lon="3.57202">
        <ele>250.234</ele>
        <time>2014-03-30T13:36:30Z</time>
      </trkpt>
      <trkpt lat="43.75179" lon="3.572">
        <ele>248.334</ele>
        <time>2014-03-30T13:36:35Z</time>
      </trkpt>
      <trkpt lat="43.75173" lon="3.57189">
        <ele>252.874</ele>
        <time>2014-03-30T13:36:42Z</time>
      </trkpt>
      <trkpt lat="43.75166" lon="3.57187">
        <ele>250.733</ele>
        <time>2014-03-30T13:36:49Z</time>
      </trkpt>
      <trkpt lat="43.75162" lon="3.57183">
        <ele>249.514</ele>
        <time>2014-03-30T13:36:54Z</time>
      </trkpt>
      <trkpt lat="43.75158" lon="3.57179">
        <ele>249.414</ele>
        <time>2014-03-30T13:37:00Z</time>
      </trkpt>
      <trkpt lat="43.75158" lon="3.57167">
        <ele>253.904</ele>
        <time>2014-03-30T13:38:27Z</time>
      </trkpt>
      <trkpt lat="43.75153" lon="3.57169">
        <ele>249.952</ele>
        <time>2014-03-30T13:38:36Z</time>
      </trkpt>
      <trkpt lat="43.75152" lon="3.57169">
        <ele>249.293</ele>
        <time>2014-03-30T13:38:37Z</time>
      </trkpt>
      <trkpt lat="43.75148" lon="3.57168">
        <ele>245.813</ele>
        <time>2014-03-30T13:38:44Z</time>
      </trkpt>
      <trkpt lat="43.75147" lon="3.57167">
        <ele>245.333</ele>
        <time>2014-03-30T13:38:45Z</time>
      </trkpt>
      <trkpt lat="43.7514" lon="3.57159">
        <ele>243.143</ele>
        <time>2014-03-30T13:38:54Z</time>
      </trkpt>
      <trkpt lat="43.75137" lon="3.57149">
        <ele>243.324</ele>
        <time>2014-03-30T13:39:01Z</time>
      </trkpt>
      <trkpt lat="43.75134" lon="3.57141">
        <ele>242.174</ele>
        <time>2014-03-30T13:39:08Z</time>
      </trkpt>
      <trkpt lat="43.75133" lon="3.57138">
        <ele>241.664</ele>
        <time>2014-03-30T13:39:10Z</time>
      </trkpt>
      <trkpt lat="43.75127" lon="3.57132">
        <ele>240.104</ele>
        <time>2014-03-30T13:39:17Z</time>
      </trkpt>
      <trkpt lat="43.75126" lon="3.57129">
        <ele>238.733</ele>
        <time>2014-03-30T13:39:19Z</time>
      </trkpt>
      <trkpt lat="43.75118" lon="3.57121">
        <ele>237.604</ele>
        <time>2014-03-30T13:39:28Z</time>
      </trkpt>
      <trkpt lat="43.75114" lon="3.57113">
        <ele>237.204</ele>
        <time>2014-03-30T13:39:35Z</time>
      </trkpt>
      <trkpt lat="43.7511" lon="3.57108">
        <ele>239.015</ele>
        <time>2014-03-30T13:39:41Z</time>
      </trkpt>
      <trkpt lat="43.75107" lon="3.57103">
        <ele>238.774</ele>
        <time>2014-03-30T13:39:52Z</time>
      </trkpt>
      <trkpt lat="43.75104" lon="3.571">
        <ele>238.404</ele>
        <time>2014-03-30T13:39:55Z</time>
      </trkpt>
      <trkpt lat="43.75097" lon="3.57092">
        <ele>238.545</ele>
        <time>2014-03-30T13:40:04Z</time>
      </trkpt>
      <trkpt lat="43.75096" lon="3.57091">
        <ele>238.414</ele>
        <time>2014-03-30T13:40:06Z</time>
      </trkpt>
      <trkpt lat="43.75092" lon="3.57085">
        <ele>236.914</ele>
        <time>2014-03-30T13:40:13Z</time>
      </trkpt>
      <trkpt lat="43.75089" lon="3.57081">
        <ele>236.114</ele>
        <time>2014-03-30T13:40:19Z</time>
      </trkpt>
      <trkpt lat="43.75083" lon="3.57073">
        <ele>234.544</ele>
        <time>2014-03-30T13:40:26Z</time>
      </trkpt>
      <trkpt lat="43.7508" lon="3.57067">
        <ele>233.674</ele>
        <time>2014-03-30T13:40:33Z</time>
      </trkpt>
      <trkpt lat="43.75078" lon="3.57063">
        <ele>232.774</ele>
        <time>2014-03-30T13:40:40Z</time>
      </trkpt>
      <trkpt lat="43.75075" lon="3.57059">
        <ele>232.514</ele>
        <time>2014-03-30T13:40:47Z</time>
      </trkpt>
      <trkpt lat="43.75075" lon="3.57059">
        <ele>232.665</ele>
        <time>2014-03-30T13:40:48Z</time>
      </trkpt>
      <trkpt lat="43.75078" lon="3.57057">
        <ele>234.125</ele>
        <time>2014-03-30T13:40:54Z</time>
      </trkpt>
      <trkpt lat="43.7508" lon="3.57058">
        <ele>234.745</ele>
        <time>2014-03-30T13:40:59Z</time>
      </trkpt>
      <trkpt lat="43.75081" lon="3.57056">
        <ele>235.495</ele>
        <time>2014-03-30T13:41:06Z</time>
      </trkpt>
      <trkpt lat="43.75082" lon="3.57054">
        <ele>236.024</ele>
        <time>2014-03-30T13:41:15Z</time>
      </trkpt>
      <trkpt lat="43.75081" lon="3.57056">
        <ele>235.784</ele>
        <time>2014-03-30T13:41:43Z</time>
      </trkpt>
      <trkpt lat="43.75079" lon="3.57056">
        <ele>235.031</ele>
        <time>2014-03-30T13:41:47Z</time>
      </trkpt>
      <trkpt lat="43.75077" lon="3.57054">
        <ele>234.604</ele>
        <time>2014-03-30T13:41:52Z</time>
      </trkpt>
      <trkpt lat="43.75072" lon="3.57053">
        <ele>233.813</ele>
        <time>2014-03-30T13:41:55Z</time>
      </trkpt>
      <trkpt lat="43.7507" lon="3.5705">
        <ele>232.913</ele>
        <time>2014-03-30T13:41:58Z</time>
      </trkpt>
      <trkpt lat="43.75064" lon="3.57043">
        <ele>231.584</ele>
        <time>2014-03-30T13:42:05Z</time>
      </trkpt>
      <trkpt lat="43.7506" lon="3.57034">
        <ele>230.244</ele>
        <time>2014-03-30T13:42:13Z</time>
      </trkpt>
      <trkpt lat="43.75055" lon="3.57028">
        <ele>229.474</ele>
        <time>2014-03-30T13:42:20Z</time>
      </trkpt>
      <trkpt lat="43.75047" lon="3.5702">
        <ele>228.784</ele>
        <time>2014-03-30T13:42:29Z</time>
      </trkpt>
      <trkpt lat="43.75041" lon="3.57019">
        <ele>228.333</ele>
        <time>2014-03-30T13:42:36Z</time>
      </trkpt>
      <trkpt lat="43.7504" lon="3.57018">
        <ele>228.284</ele>
        <time>2014-03-30T13:42:37Z</time>
      </trkpt>
      <trkpt lat="43.75032" lon="3.57013">
        <ele>226.113</ele>
        <time>2014-03-30T13:42:45Z</time>
      </trkpt>
      <trkpt lat="43.75022" lon="3.57014">
        <ele>226.092</ele>
        <time>2014-03-30T13:42:54Z</time>
      </trkpt>
      <trkpt lat="43.75018" lon="3.57012">
        <ele>226.243</ele>
        <time>2014-03-30T13:42:58Z</time>
      </trkpt>
      <trkpt lat="43.75009" lon="3.5701">
        <ele>225.533</ele>
        <time>2014-03-30T13:43:06Z</time>
      </trkpt>
      <trkpt lat="43.75004" lon="3.57011">
        <ele>225.233</ele>
        <time>2014-03-30T13:43:11Z</time>
      </trkpt>
      <trkpt lat="43.74996" lon="3.5701">
        <ele>224.873</ele>
        <time>2014-03-30T13:43:18Z</time>
      </trkpt>
      <trkpt lat="43.74987" lon="3.5701">
        <ele>224.224</ele>
        <time>2014-03-30T13:43:26Z</time>
      </trkpt>
      <trkpt lat="43.74974" lon="3.5701">
        <ele>223.684</ele>
        <time>2014-03-30T13:43:36Z</time>
      </trkpt>
      <trkpt lat="43.74967" lon="3.5701">
        <ele>224.074</ele>
        <time>2014-03-30T13:43:43Z</time>
      </trkpt>
      <trkpt lat="43.74957" lon="3.57012">
        <ele>223.153</ele>
        <time>2014-03-30T13:43:52Z</time>
      </trkpt>
      <trkpt lat="43.74947" lon="3.57014">
        <ele>222.194</ele>
        <time>2014-03-30T13:44:01Z</time>
      </trkpt>
      <trkpt lat="43.74939" lon="3.57015">
        <ele>220.653</ele>
        <time>2014-03-30T13:44:08Z</time>
      </trkpt>
      <trkpt lat="43.74938" lon="3.57016">
        <ele>220.204</ele>
        <time>2014-03-30T13:44:13Z</time>
      </trkpt>
      <trkpt lat="43.74935" lon="3.57016">
        <ele>219.224</ele>
        <time>2014-03-30T13:44:21Z</time>
      </trkpt>
      <trkpt lat="43.74934" lon="3.57016">
        <ele>217.864</ele>
        <time>2014-03-30T13:44:40Z</time>
      </trkpt>
      <trkpt lat="43.74932" lon="3.57015">
        <ele>216.744</ele>
        <time>2014-03-30T13:45:07Z</time>
      </trkpt>
      <trkpt lat="43.74921" lon="3.57014">
        <ele>215.713</ele>
        <time>2014-03-30T13:45:17Z</time>
      </trkpt>
      <trkpt lat="43.74913" lon="3.57015">
        <ele>214.953</ele>
        <time>2014-03-30T13:45:25Z</time>
      </trkpt>
      <trkpt lat="43.74903" lon="3.57012">
        <ele>213.602</ele>
        <time>2014-03-30T13:45:34Z</time>
      </trkpt>
      <trkpt lat="43.74894" lon="3.57008">
        <ele>213.304</ele>
        <time>2014-03-30T13:45:43Z</time>
      </trkpt>
      <trkpt lat="43.74889" lon="3.57005">
        <ele>212.283</ele>
        <time>2014-03-30T13:45:49Z</time>
      </trkpt>
      <trkpt lat="43.74881" lon="3.57003">
        <ele>211.504</ele>
        <time>2014-03-30T13:45:56Z</time>
      </trkpt>
      <trkpt lat="43.74874" lon="3.57">
        <ele>210.403</ele>
        <time>2014-03-30T13:46:03Z</time>
      </trkpt>
      <trkpt lat="43.74866" lon="3.56999">
        <ele>211.063</ele>
        <time>2014-03-30T13:46:09Z</time>
      </trkpt>
      <trkpt lat="43.74864" lon="3.56999">
        <ele>211.154</ele>
        <time>2014-03-30T13:46:10Z</time>
      </trkpt>
      <trkpt lat="43.74855" lon="3.56997">
        <ele>208.865</ele>
        <time>2014-03-30T13:46:18Z</time>
      </trkpt>
      <trkpt lat="43.74849" lon="3.56992">
        <ele>210.055</ele>
        <time>2014-03-30T13:46:24Z</time>
      </trkpt>
      <trkpt lat="43.74846" lon="3.5699">
        <ele>209.504</ele>
        <time>2014-03-30T13:46:31Z</time>
      </trkpt>
      <trkpt lat="43.74843" lon="3.56987">
        <ele>207.091</ele>
        <time>2014-03-30T13:46:37Z</time>
      </trkpt>
      <trkpt lat="43.74837" lon="3.56974">
        <ele>205.983</ele>
        <time>2014-03-30T13:46:45Z</time>
      </trkpt>
      <trkpt lat="43.74837" lon="3.56971">
        <ele>206.765</ele>
        <time>2014-03-30T13:46:50Z</time>
      </trkpt>
      <trkpt lat="43.74838" lon="3.56971">
        <ele>207.89</ele>
        <time>2014-03-30T13:46:53Z</time>
      </trkpt>
      <trkpt lat="43.7484" lon="3.56968">
        <ele>210.189</ele>
        <time>2014-03-30T13:46:59Z</time>
      </trkpt>
      <trkpt lat="43.74841" lon="3.56966">
        <ele>211.486</ele>
        <time>2014-03-30T13:47:04Z</time>
      </trkpt>
      <trkpt lat="43.74839" lon="3.56963">
        <ele>208.251</ele>
        <time>2014-03-30T13:47:40Z</time>
      </trkpt>
      <trkpt lat="43.74838" lon="3.56965">
        <ele>207.32</ele>
        <time>2014-03-30T13:47:44Z</time>
      </trkpt>
      <trkpt lat="43.74833" lon="3.56965">
        <ele>206.321</ele>
        <time>2014-03-30T13:47:49Z</time>
      </trkpt>
      <trkpt lat="43.74828" lon="3.56953">
        <ele>205.894</ele>
        <time>2014-03-30T13:47:58Z</time>
      </trkpt>
      <trkpt lat="43.74825" lon="3.56943">
        <ele>206.525</ele>
        <time>2014-03-30T13:48:06Z</time>
      </trkpt>
      <trkpt lat="43.74824" lon="3.56935">
        <ele>207.375</ele>
        <time>2014-03-30T13:48:13Z</time>
      </trkpt>
      <trkpt lat="43.7482" lon="3.56927">
        <ele>207.393</ele>
        <time>2014-03-30T13:48:20Z</time>
      </trkpt>
      <trkpt lat="43.74815" lon="3.56916">
        <ele>206.794</ele>
        <time>2014-03-30T13:48:29Z</time>
      </trkpt>
      <trkpt lat="43.74813" lon="3.56913">
        <ele>206.413</ele>
        <time>2014-03-30T13:48:32Z</time>
      </trkpt>
      <trkpt lat="43.74811" lon="3.5691">
        <ele>205.651</ele>
        <time>2014-03-30T13:48:35Z</time>
      </trkpt>
      <trkpt lat="43.74809" lon="3.56906">
        <ele>204.342</ele>
        <time>2014-03-30T13:48:42Z</time>
      </trkpt>
      <trkpt lat="43.74808" lon="3.56902">
        <ele>203.232</ele>
        <time>2014-03-30T13:48:48Z</time>
      </trkpt>
      <trkpt lat="43.74807" lon="3.569">
        <ele>203.012</ele>
        <time>2014-03-30T13:48:50Z</time>
      </trkpt>
      <trkpt lat="43.74805" lon="3.5689">
        <ele>201.322</ele>
        <time>2014-03-30T13:48:58Z</time>
      </trkpt>
      <trkpt lat="43.74803" lon="3.56885">
        <ele>200.382</ele>
        <time>2014-03-30T13:49:03Z</time>
      </trkpt>
      <trkpt lat="43.74802" lon="3.56882">
        <ele>199.548</ele>
        <time>2014-03-30T13:49:06Z</time>
      </trkpt>
      <trkpt lat="43.748" lon="3.56874">
        <ele>197.88</ele>
        <time>2014-03-30T13:49:12Z</time>
      </trkpt>
      <trkpt lat="43.74797" lon="3.56869">
        <ele>196.59</ele>
        <time>2014-03-30T13:49:17Z</time>
      </trkpt>
      <trkpt lat="43.74794" lon="3.5686">
        <ele>195.222</ele>
        <time>2014-03-30T13:49:26Z</time>
      </trkpt>
      <trkpt lat="43.7479" lon="3.56855">
        <ele>194.26</ele>
        <time>2014-03-30T13:49:33Z</time>
      </trkpt>
      <trkpt lat="43.74785" lon="3.56851">
        <ele>193.06</ele>
        <time>2014-03-30T13:49:40Z</time>
      </trkpt>
      <trkpt lat="43.74779" lon="3.56848">
        <ele>191.47</ele>
        <time>2014-03-30T13:49:48Z</time>
      </trkpt>
      <trkpt lat="43.74774" lon="3.56848">
        <ele>188.779</ele>
        <time>2014-03-30T13:49:57Z</time>
      </trkpt>
      <trkpt lat="43.74772" lon="3.56847">
        <ele>187.97</ele>
        <time>2014-03-30T13:50:00Z</time>
      </trkpt>
      <trkpt lat="43.74766" lon="3.56846">
        <ele>185.841</ele>
        <time>2014-03-30T13:50:09Z</time>
      </trkpt>
      <trkpt lat="43.74761" lon="3.56845">
        <ele>183.599</ele>
        <time>2014-03-30T13:50:16Z</time>
      </trkpt>
      <trkpt lat="43.74761" lon="3.56844">
        <ele>183.189</ele>
        <time>2014-03-30T13:50:17Z</time>
      </trkpt>
      <trkpt lat="43.74755" lon="3.56839">
        <ele>181.59</ele>
        <time>2014-03-30T13:50:24Z</time>
      </trkpt>
      <trkpt lat="43.74749" lon="3.56833">
        <ele>181.251</ele>
        <time>2014-03-30T13:50:32Z</time>
      </trkpt>
      <trkpt lat="43.74744" lon="3.56832">
        <ele>180.59</ele>
        <time>2014-03-30T13:50:38Z</time>
      </trkpt>
      <trkpt lat="43.74743" lon="3.56832">
        <ele>180.36</ele>
        <time>2014-03-30T13:50:40Z</time>
      </trkpt>
      <trkpt lat="43.74737" lon="3.56832">
        <ele>179.101</ele>
        <time>2014-03-30T13:50:48Z</time>
      </trkpt>
      <trkpt lat="43.74732" lon="3.56831">
        <ele>178.552</ele>
        <time>2014-03-30T13:50:56Z</time>
      </trkpt>
      <trkpt lat="43.74728" lon="3.56828">
        <ele>176.252</ele>
        <time>2014-03-30T13:51:02Z</time>
      </trkpt>
      <trkpt lat="43.74724" lon="3.56828">
        <ele>176.25</ele>
        <time>2014-03-30T13:51:09Z</time>
      </trkpt>
      <trkpt lat="43.74719" lon="3.56829">
        <ele>175.211</ele>
        <time>2014-03-30T13:51:17Z</time>
      </trkpt>
      <trkpt lat="43.74716" lon="3.56831">
        <ele>174.018</ele>
        <time>2014-03-30T13:51:22Z</time>
      </trkpt>
      <trkpt lat="43.74712" lon="3.56827">
        <ele>172.359</ele>
        <time>2014-03-30T13:51:29Z</time>
      </trkpt>
      <trkpt lat="43.74709" lon="3.56828">
        <ele>170.7</ele>
        <time>2014-03-30T13:51:35Z</time>
      </trkpt>
      <trkpt lat="43.74706" lon="3.56828">
        <ele>169.086</ele>
        <time>2014-03-30T13:51:41Z</time>
      </trkpt>
      <trkpt lat="43.74702" lon="3.56826">
        <ele>166.468</ele>
        <time>2014-03-30T13:51:49Z</time>
      </trkpt>
      <trkpt lat="43.74697" lon="3.56822">
        <ele>165.03</ele>
        <time>2014-03-30T13:51:57Z</time>
      </trkpt>
      <trkpt lat="43.74696" lon="3.56821">
        <ele>164.75</ele>
        <time>2014-03-30T13:51:58Z</time>
      </trkpt>
      <trkpt lat="43.7469" lon="3.56814">
        <ele>162.752</ele>
        <time>2014-03-30T13:52:07Z</time>
      </trkpt>
      <trkpt lat="43.74687" lon="3.56809">
        <ele>162</ele>
        <time>2014-03-30T13:52:13Z</time>
      </trkpt>
      <trkpt lat="43.74681" lon="3.56806">
        <ele>160.32</ele>
        <time>2014-03-30T13:52:20Z</time>
      </trkpt>
      <trkpt lat="43.74674" lon="3.56801">
        <ele>158.107</ele>
        <time>2014-03-30T13:52:28Z</time>
      </trkpt>
      <trkpt lat="43.7467" lon="3.56801">
        <ele>156.291</ele>
        <time>2014-03-30T13:52:36Z</time>
      </trkpt>
      <trkpt lat="43.74667" lon="3.56797">
        <ele>156.47</ele>
        <time>2014-03-30T13:52:41Z</time>
      </trkpt>
      <trkpt lat="43.74666" lon="3.56796">
        <ele>155.85</ele>
        <time>2014-03-30T13:52:43Z</time>
      </trkpt>
      <trkpt lat="43.74661" lon="3.56793">
        <ele>152.847</ele>
        <time>2014-03-30T13:52:50Z</time>
      </trkpt>
      <trkpt lat="43.74656" lon="3.56791">
        <ele>150.558</ele>
        <time>2014-03-30T13:52:58Z</time>
      </trkpt>
      <trkpt lat="43.7465" lon="3.56786">
        <ele>150.59</ele>
        <time>2014-03-30T13:53:06Z</time>
      </trkpt>
      <trkpt lat="43.74646" lon="3.56784">
        <ele>150.18</ele>
        <time>2014-03-30T13:53:11Z</time>
      </trkpt>
      <trkpt lat="43.74642" lon="3.56781">
        <ele>148.96</ele>
        <time>2014-03-30T13:53:15Z</time>
      </trkpt>
      <trkpt lat="43.74639" lon="3.5678">
        <ele>147.628</ele>
        <time>2014-03-30T13:53:18Z</time>
      </trkpt>
      <trkpt lat="43.7463" lon="3.56776">
        <ele>146.021</ele>
        <time>2014-03-30T13:53:26Z</time>
      </trkpt>
      <trkpt lat="43.74621" lon="3.56773">
        <ele>143.28</ele>
        <time>2014-03-30T13:53:35Z</time>
      </trkpt>
      <trkpt lat="43.74612" lon="3.5677">
        <ele>142.831</ele>
        <time>2014-03-30T13:53:42Z</time>
      </trkpt>
      <trkpt lat="43.74604" lon="3.56767">
        <ele>143.163</ele>
        <time>2014-03-30T13:53:52Z</time>
      </trkpt>
      <trkpt lat="43.74603" lon="3.56767">
        <ele>142.912</ele>
        <time>2014-03-30T13:53:53Z</time>
      </trkpt>
      <trkpt lat="43.74599" lon="3.56768">
        <ele>145.054</ele>
        <time>2014-03-30T13:54:00Z</time>
      </trkpt>
      <trkpt lat="43.74595" lon="3.56767">
        <ele>144.25</ele>
        <time>2014-03-30T13:54:07Z</time>
      </trkpt>
      <trkpt lat="43.74589" lon="3.56767">
        <ele>142.648</ele>
        <time>2014-03-30T13:54:15Z</time>
      </trkpt>
      <trkpt lat="43.74588" lon="3.5677">
        <ele>143.135</ele>
        <time>2014-03-30T13:54:21Z</time>
      </trkpt>
      <trkpt lat="43.74587" lon="3.56773">
        <ele>142.822</ele>
        <time>2014-03-30T13:54:27Z</time>
      </trkpt>
      <trkpt lat="43.74585" lon="3.56772">
        <ele>141.943</ele>
        <time>2014-03-30T13:54:37Z</time>
      </trkpt>
      <trkpt lat="43.74587" lon="3.56774">
        <ele>142.049</ele>
        <time>2014-03-30T13:54:42Z</time>
      </trkpt>
      <trkpt lat="43.74586" lon="3.56773">
        <ele>141.152</ele>
        <time>2014-03-30T13:54:56Z</time>
      </trkpt>
      <trkpt lat="43.74582" lon="3.56773">
        <ele>137.961</ele>
        <time>2014-03-30T13:58:07Z</time>
      </trkpt>
      <trkpt lat="43.74578" lon="3.56767">
        <ele>135.883</ele>
        <time>2014-03-30T13:58:15Z</time>
      </trkpt>
      <trkpt lat="43.74574" lon="3.56764">
        <ele>134.651</ele>
        <time>2014-03-30T13:58:22Z</time>
      </trkpt>
      <trkpt lat="43.7457" lon="3.56762">
        <ele>133.229</ele>
        <time>2014-03-30T13:58:30Z</time>
      </trkpt>
      <trkpt lat="43.74569" lon="3.5676">
        <ele>132.721</ele>
        <time>2014-03-30T13:58:33Z</time>
      </trkpt>
      <trkpt lat="43.74565" lon="3.56753">
        <ele>132.949</ele>
        <time>2014-03-30T13:58:42Z</time>
      </trkpt>
      <trkpt lat="43.74564" lon="3.5675">
        <ele>133.06</ele>
        <time>2014-03-30T13:58:45Z</time>
      </trkpt>
      <trkpt lat="43.74562" lon="3.56745">
        <ele>133.101</ele>
        <time>2014-03-30T13:58:49Z</time>
      </trkpt>
      <trkpt lat="43.74561" lon="3.56735">
        <ele>132.329</ele>
        <time>2014-03-30T13:58:57Z</time>
      </trkpt>
      <trkpt lat="43.74559" lon="3.56731">
        <ele>131.679</ele>
        <time>2014-03-30T13:59:00Z</time>
      </trkpt>
      <trkpt lat="43.74552" lon="3.56726">
        <ele>129.97</ele>
        <time>2014-03-30T13:59:09Z</time>
      </trkpt>
      <trkpt lat="43.74546" lon="3.5672">
        <ele>129.57</ele>
        <time>2014-03-30T13:59:16Z</time>
      </trkpt>
      <trkpt lat="43.74537" lon="3.56712">
        <ele>128.53</ele>
        <time>2014-03-30T13:59:26Z</time>
      </trkpt>
      <trkpt lat="43.74529" lon="3.56702">
        <ele>128.69</ele>
        <time>2014-03-30T13:59:36Z</time>
      </trkpt>
      <trkpt lat="43.74528" lon="3.56701">
        <ele>128.55</ele>
        <time>2014-03-30T13:59:37Z</time>
      </trkpt>
      <trkpt lat="43.74524" lon="3.56692">
        <ele>128.651</ele>
        <time>2014-03-30T13:59:46Z</time>
      </trkpt>
      <trkpt lat="43.74519" lon="3.56684">
        <ele>127.679</ele>
        <time>2014-03-30T13:59:54Z</time>
      </trkpt>
      <trkpt lat="43.7451" lon="3.56677">
        <ele>127.171</ele>
        <time>2014-03-30T14:00:03Z</time>
      </trkpt>
      <trkpt lat="43.74504" lon="3.56671">
        <ele>125.895</ele>
        <time>2014-03-30T14:00:12Z</time>
      </trkpt>
      <trkpt lat="43.745" lon="3.56667">
        <ele>124.603</ele>
        <time>2014-03-30T14:00:19Z</time>
      </trkpt>
      <trkpt lat="43.74495" lon="3.56665">
        <ele>123.923</ele>
        <time>2014-03-30T14:00:27Z</time>
      </trkpt>
      <trkpt lat="43.74494" lon="3.56662">
        <ele>124.012</ele>
        <time>2014-03-30T14:00:32Z</time>
      </trkpt>
      <trkpt lat="43.74493" lon="3.5666">
        <ele>122.871</ele>
        <time>2014-03-30T14:00:40Z</time>
      </trkpt>
      <trkpt lat="43.74494" lon="3.56657">
        <ele>121.139</ele>
        <time>2014-03-30T14:00:49Z</time>
      </trkpt>
      <trkpt lat="43.74494" lon="3.56657">
        <ele>121.332</ele>
        <time>2014-03-30T14:00:54Z</time>
      </trkpt>
      <trkpt lat="43.74488" lon="3.56655">
        <ele>118.172</ele>
        <time>2014-03-30T14:01:02Z</time>
      </trkpt>
      <trkpt lat="43.74482" lon="3.5666">
        <ele>116.114</ele>
        <time>2014-03-30T14:01:12Z</time>
      </trkpt>
      <trkpt lat="43.74478" lon="3.56658">
        <ele>115.639</ele>
        <time>2014-03-30T14:01:20Z</time>
      </trkpt>
      <trkpt lat="43.74477" lon="3.56657">
        <ele>115.46</ele>
        <time>2014-03-30T14:01:22Z</time>
      </trkpt>
      <trkpt lat="43.74474" lon="3.56656">
        <ele>114.649</ele>
        <time>2014-03-30T14:01:27Z</time>
      </trkpt>
      <trkpt lat="43.74469" lon="3.56652">
        <ele>113.498</ele>
        <time>2014-03-30T14:01:36Z</time>
      </trkpt>
      <trkpt lat="43.74466" lon="3.56651">
        <ele>112.635</ele>
        <time>2014-03-30T14:01:41Z</time>
      </trkpt>
      <trkpt lat="43.74465" lon="3.56651">
        <ele>111.877</ele>
        <time>2014-03-30T14:01:43Z</time>
      </trkpt>
      <trkpt lat="43.74463" lon="3.56649">
        <ele>111.547</ele>
        <time>2014-03-30T14:01:46Z</time>
      </trkpt>
      <trkpt lat="43.74459" lon="3.5664">
        <ele>110.127</ele>
        <time>2014-03-30T14:01:55Z</time>
      </trkpt>
      <trkpt lat="43.74454" lon="3.56635">
        <ele>109.348</ele>
        <time>2014-03-30T14:02:03Z</time>
      </trkpt>
      <trkpt lat="43.74447" lon="3.56631">
        <ele>108.308</ele>
        <time>2014-03-30T14:02:12Z</time>
      </trkpt>
      <trkpt lat="43.74445" lon="3.56628">
        <ele>107.87</ele>
        <time>2014-03-30T14:02:16Z</time>
      </trkpt>
      <trkpt lat="43.74443" lon="3.56626">
        <ele>107.077</ele>
        <time>2014-03-30T14:02:21Z</time>
      </trkpt>
      <trkpt lat="43.74438" lon="3.56628">
        <ele>106.108</ele>
        <time>2014-03-30T14:02:28Z</time>
      </trkpt>
      <trkpt lat="43.74434" lon="3.56629">
        <ele>104.788</ele>
        <time>2014-03-30T14:02:36Z</time>
      </trkpt>
      <trkpt lat="43.74433" lon="3.56632">
        <ele>104.108</ele>
        <time>2014-03-30T14:02:41Z</time>
      </trkpt>
      <trkpt lat="43.74433" lon="3.56634">
        <ele>103.977</ele>
        <time>2014-03-30T14:02:43Z</time>
      </trkpt>
      <trkpt lat="43.74434" lon="3.56643">
        <ele>102.996</ele>
        <time>2014-03-30T14:02:52Z</time>
      </trkpt>
      <trkpt lat="43.74433" lon="3.56643">
        <ele>102.816</ele>
        <time>2014-03-30T14:02:53Z</time>
      </trkpt>
      <trkpt lat="43.74431" lon="3.56642">
        <ele>102.288</ele>
        <time>2014-03-30T14:02:57Z</time>
      </trkpt>
      <trkpt lat="43.74427" lon="3.56638">
        <ele>101.765</ele>
        <time>2014-03-30T14:03:04Z</time>
      </trkpt>
      <trkpt lat="43.74422" lon="3.56633">
        <ele>100.139</ele>
        <time>2014-03-30T14:03:13Z</time>
      </trkpt>
      <trkpt lat="43.7442" lon="3.56629">
        <ele>99.347</ele>
        <time>2014-03-30T14:03:24Z</time>
      </trkpt>
      <trkpt lat="43.74415" lon="3.56625">
        <ele>98.649</ele>
        <time>2014-03-30T14:03:31Z</time>
      </trkpt>
      <trkpt lat="43.74409" lon="3.56622">
        <ele>97.677</ele>
        <time>2014-03-30T14:03:39Z</time>
      </trkpt>
      <trkpt lat="43.74404" lon="3.56619">
        <ele>96.576</ele>
        <time>2014-03-30T14:03:47Z</time>
      </trkpt>
      <trkpt lat="43.744" lon="3.56617">
        <ele>95.605</ele>
        <time>2014-03-30T14:03:54Z</time>
      </trkpt>
      <trkpt lat="43.74397" lon="3.5662">
        <ele>94.828</ele>
        <time>2014-03-30T14:04:00Z</time>
      </trkpt>
      <trkpt lat="43.74391" lon="3.5662">
        <ele>94.02</ele>
        <time>2014-03-30T14:04:08Z</time>
      </trkpt>
      <trkpt lat="43.74389" lon="3.56618">
        <ele>93.872</ele>
        <time>2014-03-30T14:04:15Z</time>
      </trkpt>
      <trkpt lat="43.74387" lon="3.56615">
        <ele>93.872</ele>
        <time>2014-03-30T14:04:22Z</time>
      </trkpt>
      <trkpt lat="43.74384" lon="3.56616">
        <ele>93.142</ele>
        <time>2014-03-30T14:04:29Z</time>
      </trkpt>
      <trkpt lat="43.74381" lon="3.5662">
        <ele>91.487</ele>
        <time>2014-03-30T14:04:37Z</time>
      </trkpt>
      <trkpt lat="43.74381" lon="3.56623">
        <ele>91.12</ele>
        <time>2014-03-30T14:04:47Z</time>
      </trkpt>
      <trkpt lat="43.74381" lon="3.56624">
        <ele>90.736</ele>
        <time>2014-03-30T14:04:53Z</time>
      </trkpt>
      <trkpt lat="43.7438" lon="3.56626">
        <ele>89.546</ele>
        <time>2014-03-30T14:05:05Z</time>
      </trkpt>
      <trkpt lat="43.74377" lon="3.56626">
        <ele>88.256</ele>
        <time>2014-03-30T14:05:13Z</time>
      </trkpt>
      <trkpt lat="43.74377" lon="3.56627">
        <ele>87.79</ele>
        <time>2014-03-30T14:05:18Z</time>
      </trkpt>
      <trkpt lat="43.74376" lon="3.56627">
        <ele>85.412</ele>
        <time>2014-03-30T14:05:37Z</time>
      </trkpt>
      <trkpt lat="43.74374" lon="3.5663">
        <ele>85.523</ele>
        <time>2014-03-30T14:05:43Z</time>
      </trkpt>
      <trkpt lat="43.74374" lon="3.56629">
        <ele>84.832</ele>
        <time>2014-03-30T14:05:54Z</time>
      </trkpt>
      <trkpt lat="43.74374" lon="3.56629">
        <ele>84.911</ele>
        <time>2014-03-30T14:05:56Z</time>
      </trkpt>
      <trkpt lat="43.74366" lon="3.56627">
        <ele>85.001</ele>
        <time>2014-03-30T14:06:04Z</time>
      </trkpt>
      <trkpt lat="43.74357" lon="3.56621">
        <ele>84.933</ele>
        <time>2014-03-30T14:06:12Z</time>
      </trkpt>
      <trkpt lat="43.74348" lon="3.56614">
        <ele>84.244</ele>
        <time>2014-03-30T14:06:21Z</time>
      </trkpt>
      <trkpt lat="43.74348" lon="3.56614">
        <ele>83.477</ele>
        <time>2014-03-30T14:06:27Z</time>
      </trkpt>
      <trkpt lat="43.74349" lon="3.56613">
        <ele>83.011</ele>
        <time>2014-03-30T14:06:39Z</time>
      </trkpt>
    </trkseg>
  </trk>
</gpx>